[[{"header":{"parameterUnit":"m.s-1","parameterCategory":1,"la1":30.6,"la2":28.766,"lo1":-90.7593,"lo2":-88.6598,"dy":0.0162,"dx":0.0183,"nx":116,"ny":114,"refTime":"2024-02-13T06:00:00:Z","depth":0,"parameterNumber":2,"parameterNumberName":"U-component_of_WINDS"},"data":[0.0,0.0,0.0,0.0,0.0,0.0,0.0,0.0,0.0,0.0,0.0,0.0,0.0,0.0,0.0,0.0,0.0,0.0,0.0,0.0,0.0,0.0,0.0,0.0,0.0,0.0,0.0,0.0,0.0,0.0,0.0,0.0,0.0,0.0,0.0,0.0,0.0,0.0,0.0,0.0,0.0,0.0,0.0,0.0,0.0,0.0,0.0,0.0,0.0,0.0,0.0,0.0,0.0,0.0,0.0,0.0,0.0,0.0,0.0,0.0,0.0,0.0,0.0,0.0,0.0,0.0,0.0,0.0,0.0,0.0,0.0,0.0,0.0,0.0,0.0,0.0,0.0,0.0,0.0,0.0,0.0,0.0,0.0,0.0,0.0,0.0,0.0,0.0,0.0,0.0,0.0,0.0,0.0,0.0,0.0,0.0,0.0,0.0,0.0,0.0,0.0,0.0,0.0,0.0,0.0,0.0,0.0,0.0,0.0,0.0,0.0,0.0,0.0,0.0,0.0,0.0,0.0,0.0,0.0,0.0,0.0,0.0,0.0,0.0,0.0,0.0,0.0,0.0,0.0,0.0,0.0,0.0,0.0,0.0,0.0,0.0,0.0,0.0,0.0,0.0,0.0,0.0,0.0,0.0,0.0,0.0,0.0,0.0,0.0,0.0,0.0,0.0,0.0,0.0,0.0,0.0,0.0,0.0,0.0,0.0,0.0,0.0,0.0,0.0,0.0,0.0,0.0,0.0,0.0,0.0,0.0,0.0,0.0,0.0,0.0,0.0,0.0,0.0,0.0,0.0,0.0,0.0,0.0,0.0,0.0,0.0,0.0,0.0,0.0,0.0,0.0,0.0,0.0,0.0,0.0,0.0,0.0,0.0,0.0,0.0,0.0,0.0,0.0,0.0,0.0,0.0,0.0,0.0,0.0,0.0,0.0,0.0,0.0,0.0,0.0,0.0,0.0,0.0,0.0,0.0,0.0,0.0,0.0,0.0,0.0,0.0,0.0,0.0,0.0,0.0,0.0,0.0,0.0,0.0,0.0,0.0,0.0,0.0,0.0,0.0,0.0,0.0,0.0,0.0,0.0,0.0,0.0,0.0,0.0,0.0,0.0,0.0,0.0,0.0,0.0,0.0,0.0,0.0,0.0,0.0,0.0,0.0,0.0,0.0,0.0,0.0,0.0,0.0,0.0,0.0,0.0,0.0,0.0,0.0,0.0,0.0,0.0,0.0,0.0,0.0,0.0,0.0,0.0,0.0,0.0,0.0,0.0,0.0,0.0,0.0,0.0,0.0,0.0,0.0,0.0,0.0,0.0,0.0,0.0,0.0,0.0,0.0,0.0,0.0,0.0,0.0,0.0,0.0,0.0,0.0,0.0,0.0,0.0,0.0,0.0,0.0,0.0,0.0,0.0,0.0,0.0,0.0,0.0,0.0,0.0,0.0,0.0,0.0,0.0,0.0,0.0,0.0,0.0,0.0,0.0,0.0,0.0,0.0,0.0,0.0,0.0,0.0,0.0,0.0,0.0,0.0,0.0,0.0,0.0,0.0,0.0,0.0,0.0,0.0,0.0,0.0,0.0,0.0,0.0,0.0,0.0,0.0,0.0,0.0,0.0,0.0,0.0,0.0,0.0,0.0,0.0,0.0,0.0,0.0,0.0,0.0,0.0,0.0,0.0,0.0,0.0,0.0,0.0,0.0,0.0,0.0,0.0,0.0,0.0,0.0,0.0,0.0,0.0,0.0,0.0,0.0,0.0,0.0,0.0,0.0,0.0,0.0,0.0,0.0,0.0,0.0,0.0,0.0,0.0,0.0,0.0,0.0,0.0,0.0,0.0,0.0,0.0,0.0,0.0,0.0,0.0,0.0,0.0,0.0,0.0,0.0,0.0,0.0,0.0,0.0,0.0,0.0,0.0,0.0,0.0,0.0,0.0,0.0,0.0,0.0,0.0,0.0,0.0,0.0,0.0,0.0,0.0,0.0,0.0,0.0,0.0,0.0,0.0,0.0,0.0,0.0,0.0,0.0,0.0,0.0,0.0,0.0,0.0,0.0,0.0,0.0,0.0,0.0,0.0,0.0,0.0,0.0,0.0,0.0,0.0,0.0,0.0,0.0,0.0,0.0,0.0,0.0,0.0,0.0,0.0,0.0,0.0,0.0,0.0,0.0,0.0,0.0,0.0,0.0,0.0,0.0,0.0,0.0,0.0,0.0,0.0,0.0,0.0,0.0,0.0,0.0,0.0,0.0,0.0,0.0,0.0,0.0,0.0,0.0,0.0,0.0,0.0,0.0,0.0,0.0,0.0,0.0,0.0,0.0,0.0,0.0,0.0,0.0,0.0,0.0,0.0,0.0,0.0,0.0,0.0,0.0,0.0,0.0,0.0,0.0,0.0,0.0,0.0,0.0,0.0,0.0,0.0,0.0,0.0,0.0,0.0,0.0,0.0,0.0,0.0,0.0,0.0,0.0,0.0,0.0,0.0,0.0,0.0,0.0,0.0,0.0,0.0,0.0,0.0,0.0,0.0,0.0,0.0,0.0,0.0,0.0,0.0,0.0,0.0,0.0,0.0,0.0,0.0,0.0,0.0,0.0,0.0,0.0,0.0,0.0,0.0,0.0,0.0,0.0,0.0,0.0,0.0,0.0,0.0,0.0,0.0,0.0,0.0,0.0,0.0,0.0,0.0,0.0,0.0,0.0,0.0,0.0,0.0,0.0,0.0,0.0,0.0,0.0,0.0,0.0,0.0,0.0,0.0,0.0,0.0,0.0,0.0,0.0,0.0,0.0,0.0,0.0,0.0,0.0,0.0,0.0,0.0,0.0,0.0,0.0,0.0,0.0,0.0,0.0,0.0,0.0,0.0,0.0,0.0,0.0,0.0,0.0,0.0,0.0,0.0,0.0,0.0,0.0,0.0,0.0,0.0,0.0,0.0,0.0,0.0,0.0,0.0,0.0,0.0,0.0,0.0,0.0,0.0,0.0,0.0,0.0,0.0,0.0,0.0,0.0,0.0,0.0,0.0,0.0,0.0,0.0,0.0,0.0,0.0,0.0,0.0,0.0,0.0,0.0,0.0,0.0,0.0,0.0,0.0,0.0,0.0,0.0,0.0,0.0,0.0,0.0,0.0,0.0,0.0,0.0,0.0,0.0,0.0,0.0,0.0,0.0,0.0,0.0,0.0,0.0,0.0,0.0,0.0,0.0,0.0,0.0,0.0,0.0,0.0,0.0,0.0,0.0,0.0,0.0,0.0,0.0,0.0,0.0,0.0,0.0,0.0,0.0,0.0,0.0,0.0,0.0,0.0,0.0,0.0,0.0,0.0,0.0,0.0,0.0,0.0,0.0,0.0,0.0,0.0,0.0,0.0,0.0,0.0,0.0,0.0,0.0,0.0,0.0,0.0,0.0,0.0,0.0,0.0,0.0,0.0,0.0,0.0,0.0,0.0,0.0,0.0,0.0,0.0,0.0,0.0,0.0,0.0,0.0,0.0,0.0,0.0,0.0,0.0,0.0,0.0,0.0,0.0,0.0,0.0,0.0,0.0,0.0,0.0,0.0,0.0,0.0,0.0,0.0,0.0,0.0,0.0,0.0,0.0,0.0,0.0,0.0,0.0,0.0,0.0,0.0,0.0,0.0,0.0,0.0,0.0,0.0,0.0,0.0,0.0,0.0,0.0,0.0,0.0,0.0,0.0,0.0,0.0,0.0,0.0,0.0,0.0,0.0,0.0,0.0,0.0,0.0,0.0,0.0,0.0,0.0,0.0,0.0,0.0,0.0,0.0,0.0,0.0,0.0,0.0,0.0,0.0,0.0,0.0,0.0,0.0,0.0,0.0,0.0,0.0,0.0,0.0,0.0,0.0,0.0,0.0,0.0,0.0,0.0,0.0,0.0,0.0,0.0,0.0,0.0,0.0,0.0,0.0,0.0,0.0,0.0,0.0,0.0,0.0,0.0,0.0,0.0,0.0,0.0,0.0,0.0,0.0,0.0,0.0,0.0,0.0,0.0,0.0,0.0,0.0,0.0,0.0,0.0,0.0,0.0,0.0,0.0,0.0,0.0,0.0,0.0,0.0,0.0,0.0,0.0,0.0,0.0,0.0,0.0,0.0,0.0,0.0,0.0,0.0,0.0,0.0,0.0,0.0,0.0,0.0,0.0,0.0,0.0,0.0,0.0,0.0,0.0,0.0,0.0,0.0,0.0,0.0,0.0,0.0,0.0,0.0,0.0,0.0,0.0,0.0,0.0,0.0,0.0,0.0,0.0,0.0,0.0,0.0,0.0,0.0,0.0,0.0,0.0,0.0,0.0,0.0,0.0,0.0,0.0,0.0,0.0,0.0,0.0,0.0,0.0,0.0,0.0,0.0,0.0,0.0,0.0,0.0,0.0,0.0,0.0,0.0,0.0,0.0,0.0,0.0,0.0,0.0,0.0,0.0,0.0,0.0,0.0,0.0,0.0,0.0,0.0,0.0,0.0,0.0,0.0,0.0,0.0,0.0,0.0,0.0,0.0,0.0,0.0,0.0,0.0,0.0,0.0,0.0,0.0,0.0,0.0,0.0,0.0,0.0,0.0,0.0,0.0,0.0,0.0,0.0,0.0,0.0,0.0,0.0,0.0,0.0,0.0,0.0,0.0,0.0,0.0,0.0,0.0,0.0,0.0,0.0,0.0,0.0,0.0,0.0,0.0,0.0,0.0,0.0,0.0,0.0,0.0,0.0,0.0,0.0,0.0,0.0,0.0,0.0,0.0,0.0,0.0,0.0,0.0,0.0,0.0,0.0,0.0,0.0,0.0,0.0,0.0,0.0,0.0,0.0,0.0,0.0,0.0,0.0,0.0,0.0,0.0,0.0,0.0,0.0,0.0,0.0,0.0,0.0,0.0,0.0,0.0,0.0,0.0,0.0,0.0,0.0,0.0,0.0,0.0,0.0,0.0,0.0,0.0,0.0,0.0,0.0,0.0,0.0,0.0,0.0,0.0,0.0,0.0,0.0,0.0,0.0,0.0,0.0,0.0,0.0,0.0,0.0,0.0,0.0,0.0,0.0,0.0,0.0,0.0,0.0,0.0,0.0,0.0,0.0,0.0,0.0,0.0,0.0,0.0,0.0,0.0,0.0,0.0,0.0,0.0,0.0,0.0,0.0,0.0,0.0,0.0,0.0,0.0,0.0,0.0,0.0,0.0,0.0,0.0,0.0,0.0,0.0,0.0,0.0,0.0,0.0,0.0,0.0,0.0,0.0,0.0,0.0,0.0,0.0,0.0,0.0,0.0,0.0,0.0,0.0,0.0,0.0,0.0,0.0,0.0,0.0,0.0,0.0,0.0,0.0,0.0,0.0,0.0,0.0,0.0,0.0,0.0,0.0,0.0,0.0,0.0,0.0,0.0,0.0,0.0,0.0,0.0,0.0,0.0,0.0,0.0,0.0,0.0,0.0,0.0,0.0,0.0,0.0,0.0,0.0,0.0,0.0,0.0,0.0,0.0,0.0,0.0,0.0,0.0,0.0,0.0,0.0,0.0,0.0,0.0,0.0,0.0,0.0,0.0,0.0,0.0,0.0,0.0,0.0,0.0,0.0,0.0,0.0,0.0,0.0,0.0,0.0,0.0,0.0,0.0,0.0,0.0,0.0,0.0,0.0,0.0,0.0,0.0,0.0,0.0,0.0,0.0,0.0,0.0,0.0,0.0,0.0,0.0,0.0,0.0,0.0,0.0,0.0,0.0,0.0,0.0,0.0,0.0,0.0,0.0,0.0,0.0,0.0,0.0,0.0,0.0,0.0,0.0,0.0,0.0,0.0,0.0,0.0,0.0,0.0,0.0,0.0,0.0,0.0,0.0,0.0,0.0,0.0,0.0,0.0,0.0,0.0,0.0,0.0,0.0,0.0,0.0,0.0,0.0,0.0,0.0,0.0,0.0,0.0,0.0,0.0,0.0,0.0,0.0,0.0,0.0,0.0,0.0,0.0,0.0,0.0,0.0,0.0,0.0,0.0,0.0,0.0,0.0,0.0,0.0,0.0,0.0,0.0,0.0,0.0,0.0,0.0,0.0,0.0,0.0,0.0,0.0,0.0,0.0,0.0,0.0,0.0,0.0,0.0,0.0,6.0284,0.0,0.0,0.0,0.0,0.0,0.0,0.0,0.0,0.0,0.0,0.0,0.0,0.0,0.0,0.0,0.0,0.0,0.0,0.0,0.0,0.0,0.0,0.0,0.0,0.0,0.0,0.0,0.0,0.0,0.0,0.0,0.0,0.0,0.0,0.0,0.0,0.0,4.789,4.8701,4.8701,4.9165,5.0013,4.955,0.0,0.0,0.0,0.0,0.0,0.0,0.0,0.0,0.0,0.0,0.0,0.0,0.0,0.0,0.0,0.0,0.0,0.0,0.0,0.0,0.0,0.0,0.0,0.0,0.0,0.0,0.0,0.0,0.0,0.0,0.0,0.0,0.0,0.0,0.0,0.0,0.0,0.0,0.0,0.0,0.0,0.0,0.0,0.0,0.0,0.0,0.0,0.0,0.0,0.0,0.0,0.0,0.0,0.0,0.0,0.0,0.0,0.0,0.0,0.0,0.0,0.0,0.0,0.0,0.0,0.0,0.0,0.0,0.0,0.0,0.0,0.0,0.0,6.0784,0.0,0.0,0.0,0.0,0.0,0.0,0.0,0.0,0.0,0.0,0.0,0.0,0.0,0.0,0.0,0.0,0.0,0.0,0.0,0.0,0.0,0.0,0.0,4.2043,4.2775,4.4163,4.4434,4.4821,4.5554,4.5745,4.5822,4.5822,4.6662,4.7197,4.7312,4.8007,4.8739,4.9627,4.9627,4.9975,5.0708,5.0814,0.0,0.0,0.0,0.0,0.0,0.0,0.0,0.0,0.0,0.0,0.0,0.0,0.0,0.0,0.0,0.0,0.0,0.0,0.0,0.0,0.0,0.0,0.0,0.0,0.0,0.0,0.0,0.0,0.0,0.0,0.0,0.0,0.0,0.0,0.0,0.0,0.0,0.0,0.0,0.0,0.0,0.0,0.0,0.0,0.0,0.0,0.0,0.0,0.0,0.0,0.0,0.0,0.0,0.0,0.0,0.0,0.0,0.0,0.0,0.0,0.0,0.0,0.0,0.0,0.0,0.0,0.0,0.0,6.1244,6.1244,6.1244,6.1244,6.1244,6.1053,6.0784,0.0,0.0,0.0,0.0,0.0,0.0,0.0,0.0,0.0,0.0,0.0,0.0,0.0,0.0,0.0,0.0,0.0,0.0,0.0,0.0,0.0,0.0,4.3084,4.4048,4.428,4.4975,4.5477,4.5592,4.6317,4.6736,4.6736,4.7506,4.8315,4.9049,4.9165,4.9666,5.0516,5.0516,5.0593,5.0708,5.1349,5.1632,5.1635,5.0994,0.0,0.0,0.0,0.0,0.0,0.0,0.0,0.0,0.0,0.0,0.0,0.0,0.0,0.0,0.0,0.0,0.0,0.0,0.0,0.0,0.0,0.0,0.0,0.0,0.0,0.0,0.0,0.0,0.0,0.0,0.0,0.0,0.0,0.0,0.0,0.0,0.0,0.0,0.0,0.0,0.0,0.0,0.0,5.5707,5.6558,0.0,0.0,0.0,0.0,0.0,0.0,0.0,0.0,0.0,0.0,0.0,0.0,0.0,0.0,6.0784,6.1556,6.1944,6.1942,6.2626,6.2969,6.2969,6.2969,6.2969,6.2969,6.2969,0.0,6.0784,6.0784,0.0,0.0,0.0,0.0,0.0,0.0,0.0,0.0,0.0,0.0,0.0,0.0,0.0,0.0,0.0,0.0,0.0,0.0,0.0,0.0,0.0,4.3856,4.4512,4.4975,4.5361,4.5822,4.6317,4.6698,4.7081,4.7543,4.8392,4.9009,4.9395,4.9898,5.0537,5.1314,5.1279,5.1494,5.1994,5.2278,5.2402,5.2402,5.2044,5.1928,5.1996,5.1996,0.0,0.0,0.0,0.0,0.0,0.0,0.0,0.0,0.0,0.0,0.0,0.0,0.0,0.0,0.0,0.0,0.0,0.0,0.0,0.0,0.0,0.0,0.0,0.0,0.0,0.0,0.0,0.0,0.0,0.0,0.0,0.0,0.0,0.0,0.0,0.0,0.0,0.0,0.0,5.621,5.6747,5.7628,5.7743,5.8051,0.0,0.0,0.0,0.0,0.0,0.0,0.0,0.0,0.0,6.1519,6.1975,6.2203,6.2203,6.2587,6.2781,6.2781,6.3123,6.3314,6.3314,6.3314,6.3314,6.3314,6.3314,6.2891,6.2203,6.2203,6.2203,6.2203,0.0,0.0,0.0,0.0,0.0,0.0,0.0,0.0,0.0,0.0,0.0,0.0,0.0,0.0,0.0,0.0,0.0,0.0,4.4163,4.4511,4.4898,4.5554,4.5782,4.6202,4.6851,4.7312,4.7813,4.8392,4.928,4.9737,4.9721,5.0516,5.1328,5.2073,5.2025,5.2341,5.294,5.3086,5.3123,5.3158,5.3298,5.3203,5.2941,5.2941,5.2941,0.0,0.0,0.0,0.0,0.0,0.0,0.0,0.0,0.0,0.0,0.0,0.0,0.0,0.0,0.0,0.0,0.0,0.0,0.0,0.0,0.0,0.0,0.0,0.0,0.0,0.0,0.0,0.0,0.0,0.0,0.0,0.0,0.0,0.0,0.0,0.0,0.0,0.0,5.7324,5.7668,5.8508,5.8624,5.8933,0.0,0.0,0.0,0.0,0.0,0.0,6.1132,6.1941,6.2401,6.2401,6.2972,6.3429,6.3623,6.3852,6.4085,6.4279,6.4506,6.4583,6.4583,6.4583,6.4583,6.4583,6.4583,6.4583,6.4545,6.366,6.3314,6.3314,6.3314,6.3314,0.0,6.3314,6.3314,6.3314,0.0,0.0,0.0,0.0,0.0,0.0,0.0,0.0,0.0,0.0,0.0,4.4203,4.428,4.5051,4.5554,4.5592,4.6355,4.6851,4.6889,4.8393,4.928,4.9318,5.0168,5.0606,5.0547,5.1258,5.2043,5.2825,5.2822,5.2827,5.2834,5.3463,5.3742,5.3774,5.4472,5.4072,5.28,5.28,5.28,5.2806,0.0,0.0,0.0,0.0,0.0,0.0,0.0,0.0,0.0,0.0,0.0,0.0,0.0,0.0,0.0,0.0,0.0,0.0,0.0,0.0,0.0,0.0,0.0,0.0,0.0,0.0,0.0,0.0,0.0,0.0,0.0,0.0,0.0,0.0,0.0,0.0,0.0,0.0,0.0,5.9356,5.9433,0.0,0.0,0.0,0.0,6.0784,6.1556,6.2019,6.2019,6.2818,6.3238,6.3238,6.3275,6.37,6.4549,6.536,6.6133,6.6902,6.7742,6.8122,6.8122,6.8122,6.8122,6.8122,6.8122,6.8122,6.7891,6.462,6.3314,6.3314,6.3314,6.3314,6.3314,6.3314,6.3314,6.3314,0.0,0.0,0.0,0.0,0.0,0.0,0.0,0.0,4.2004,4.2545,4.3624,4.4511,4.5091,4.54,4.5822,4.6394,4.6736,4.7352,4.8431,4.9088,4.9649,5.015,5.0959,5.1606,5.2078,5.2201,5.2682,5.3499,5.3372,5.3852,5.4864,5.503,5.5326,5.579,5.6019,5.5841,5.5317,5.4484,5.4163,5.4165,5.4193,5.4223,0.0,0.0,0.0,0.0,0.0,0.0,0.0,0.0,0.0,0.0,0.0,0.0,0.0,0.0,0.0,0.0,0.0,0.0,0.0,0.0,0.0,0.0,0.0,0.0,0.0,0.0,0.0,0.0,0.0,0.0,0.0,0.0,0.0,0.0,0.0,0.0,0.0,6.0244,6.0321,0.0,0.0,6.1633,6.1863,6.2357,6.2701,6.2858,6.2858,6.4205,6.4974,6.4974,6.6008,6.6737,6.7047,6.7354,6.7664,6.7935,6.8237,6.8391,6.843,6.897,6.9241,6.9279,6.9779,7.001,6.9896,6.8702,6.7548,6.6583,6.6583,6.6583,6.6583,6.6583,6.6583,6.6583,0.0,0.0,0.0,0.0,0.0,0.0,0.0,0.0,4.2544,4.3393,4.4241,4.4975,4.5554,4.5859,4.6279,4.6851,4.7429,4.82,4.9318,4.9648,5.0149,5.0937,5.1664,5.2424,5.3176,5.3008,5.3411,5.4484,5.4354,5.4997,5.6262,5.6143,5.6352,5.6774,5.6684,5.6657,5.6524,5.5696,5.5274,5.5126,5.4861,5.4843,5.4942,0.0,0.0,0.0,0.0,0.0,0.0,0.0,0.0,0.0,0.0,0.0,0.0,0.0,0.0,0.0,0.0,0.0,0.0,0.0,0.0,0.0,0.0,0.0,0.0,0.0,0.0,0.0,0.0,0.0,0.0,0.0,0.0,0.0,0.0,0.0,6.0244,6.1132,6.1247,6.1555,6.2438,6.2515,6.2743,6.3275,6.3792,6.4137,6.4162,6.5797,6.6718,6.6744,6.7818,6.8662,6.9241,6.9241,6.9547,7.0122,7.0122,7.0122,7.0122,7.0701,7.0972,7.101,7.1551,7.1781,7.1781,7.1781,7.1126,7.0045,6.947,6.9241,6.9241,6.9241,6.9241,6.9241,0.0,0.0,0.0,0.0,0.0,0.0,0.0,4.2545,4.3433,4.4203,4.5051,4.5592,4.5592,4.6394,4.6926,4.6928,4.8431,4.9395,4.9433,5.0186,5.097,5.1747,5.2302,5.3029,5.3826,5.3676,5.4307,5.5814,5.5758,5.6071,5.6796,5.674,5.6676,5.6572,5.6492,5.6387,5.627,5.6233,5.599,5.5578,5.4861,5.4584,5.4653,0.0,0.0,0.0,0.0,0.0,0.0,0.0,0.0,0.0,0.0,0.0,0.0,0.0,0.0,0.0,0.0,0.0,0.0,0.0,0.0,0.0,0.0,0.0,0.0,0.0,0.0,0.0,0.0,0.0,0.0,0.0,0.0,0.0,6.0784,6.0824,6.1133,6.1982,6.2135,6.2474,6.3272,6.3386,6.3385,6.3462,6.4899,6.5818,6.5968,6.7514,6.8387,6.8458,6.8538,6.9348,7.0968,7.0967,7.1811,7.35,7.35,7.35,7.35,7.3502,7.3538,7.3538,7.354,7.358,7.3582,7.3584,7.3586,7.3393,7.1666,7.0975,7.0975,7.0975,7.0975,7.0975,0.0,0.0,0.0,0.0,0.0,0.0,0.0,4.3046,4.4048,4.428,4.5051,4.5592,4.5592,4.6394,4.712,4.7737,4.8779,4.9648,5.0222,5.097,5.1958,5.3164,5.3214,5.3844,5.5207,5.4961,5.5293,5.6315,5.6138,5.6451,5.7143,5.715,5.7413,5.7865,5.7878,5.7844,5.7735,5.7135,5.6799,5.6636,5.6083,5.5572,5.5123,0.0,0.0,0.0,0.0,0.0,0.0,0.0,0.0,0.0,0.0,0.0,0.0,0.0,0.0,0.0,0.0,0.0,0.0,0.0,0.0,0.0,0.0,0.0,0.0,0.0,0.0,0.0,0.0,0.0,0.0,0.0,0.0,6.1518,6.0901,6.1325,6.1827,6.2058,6.2553,6.3441,6.4894,6.4999,6.5504,6.6771,6.7252,6.7519,6.758,6.913,7.0049,7.0069,7.1258,7.2103,7.2567,7.2565,7.2795,7.3294,7.3294,7.3294,7.3294,7.3952,7.4221,7.4263,7.4936,7.523,7.5234,7.5295,7.532,7.5128,7.3434,7.278,7.278,7.278,7.278,7.278,0.0,0.0,0.0,0.0,0.0,0.0,0.0,4.347,4.4434,4.4782,4.5283,4.5745,4.6088,4.6891,4.7737,4.8585,4.9412,5.0107,5.0513,5.1439,5.2446,0.0,0.0,5.4614,5.5563,5.5634,5.604,5.6821,5.6648,5.6982,5.7748,5.7748,5.7948,5.8321,5.8321,5.8294,5.8209,5.7688,5.7461,5.7449,5.7254,5.6573,5.5684,5.5906,5.585,5.568,5.5867,5.6076,5.6263,5.6337,0.0,0.0,0.0,0.0,0.0,0.0,0.0,0.0,0.0,0.0,0.0,0.0,0.0,0.0,0.0,0.0,0.0,0.0,0.0,0.0,0.0,0.0,0.0,0.0,6.1744,6.2004,6.1779,6.2227,6.2697,6.3015,6.3738,6.4733,6.6045,6.6421,6.7142,6.8487,6.8839,6.9171,6.9584,7.0822,7.1544,7.1619,7.258,7.3232,7.3619,7.3619,7.3772,7.4121,7.45,7.4653,7.4691,7.5609,7.6009,0.0,7.6639,7.6907,7.6911,7.6962,7.6943,0.0,0.0,0.0,0.0,0.0,7.4549,7.4549,0.0,0.0,0.0,0.0,0.0,0.0,0.0,4.3933,4.4704,4.5515,4.5592,4.5935,4.6812,4.7621,4.8466,4.9309,5.0148,5.062,5.0722,5.1697,5.2637,5.3432,5.4634,5.5298,5.5398,5.5929,5.6593,5.7408,5.7256,5.7608,5.8357,5.8357,5.8299,5.8198,5.8198,5.8102,5.7999,5.7999,5.7999,5.8011,5.8116,5.7425,5.6307,5.6464,5.6669,5.6955,5.7007,5.7269,5.7562,5.7639,0.0,0.0,0.0,0.0,0.0,0.0,0.0,0.0,0.0,0.0,0.0,0.0,0.0,0.0,0.0,0.0,0.0,0.0,0.0,0.0,0.0,0.0,0.0,0.0,6.2124,6.2516,6.3245,6.3472,6.3798,6.4451,6.5306,6.6181,6.7101,6.7804,6.8557,6.937,6.9974,7.0709,0.0,0.0,0.0,0.0,0.0,7.3548,7.4399,7.4399,7.4819,7.5627,7.6391,7.677,7.6811,7.7649,7.8031,7.8047,7.8181,7.8231,7.8241,7.825,7.8258,7.8134,7.6817,7.6275,7.6284,7.6284,7.6284,0.0,0.0,0.0,0.0,0.0,0.0,0.0,0.0,4.4782,4.54,4.5592,4.5592,4.5935,4.6812,4.7621,4.8411,4.9251,5.0084,5.1024,5.1987,5.2092,5.2675,5.3916,5.468,5.5327,5.5943,5.6523,5.7211,5.8027,5.7904,5.7918,5.8071,5.8071,5.8057,5.8037,5.8037,5.8022,5.7999,5.7999,5.7999,5.8002,5.8025,5.7542,5.6857,5.7064,5.6853,5.6523,5.6573,5.6854,5.7216,5.7263,5.7448,5.7698,5.782,0.0,0.0,0.0,0.0,0.0,0.0,0.0,0.0,0.0,0.0,0.0,0.0,0.0,0.0,0.0,0.0,0.0,0.0,0.0,0.0,6.1844,6.293,6.4045,6.4841,6.5417,6.5644,6.5332,6.6535,6.7905,6.9338,6.9565,7.0128,7.1414,7.1627,7.1739,7.1844,7.2735,0.0,7.3285,7.4047,7.4853,7.5731,7.5731,7.6144,7.6931,0.0,0.0,7.7197,7.7366,7.7501,7.7631,7.7701,7.7796,7.7916,7.7948,7.8022,7.8113,7.799,7.7954,7.8021,7.8021,7.8021,7.8021,0.0,0.0,0.0,0.0,0.0,0.0,0.0,4.5051,4.5592,4.5592,4.5592,4.609,4.7352,4.7852,4.86,4.9851,5.0216,5.0901,5.2166,5.1985,5.2643,5.4475,5.51,5.5744,5.6538,5.7179,5.7684,5.8091,5.8028,5.7999,5.7999,5.7999,5.7999,5.7999,5.7999,5.7999,5.7999,5.7999,5.7999,5.7999,5.7999,5.7813,5.7517,5.7694,5.7643,5.7469,5.7473,5.773,5.806,5.8201,5.8398,5.8622,5.8876,5.9,5.9159,0.0,0.0,0.0,0.0,0.0,0.0,0.0,0.0,0.0,0.0,0.0,0.0,0.0,0.0,6.1292,0.0,0.0,6.2735,6.3467,6.4189,6.5053,6.6178,6.6913,6.713,6.6572,6.7812,6.8987,6.9716,7.0485,7.1344,7.2426,7.2373,7.2494,7.2873,7.3714,7.4234,7.425,7.5188,7.5925,7.6346,7.6346,7.6567,7.6938,7.7356,7.7768,7.8177,7.8661,7.9176,7.9715,7.9792,7.9948,8.0055,8.0104,8.0217,8.0376,8.0535,7.9706,7.8452,7.8452,7.8481,7.8484,0.0,0.0,0.0,0.0,0.0,0.0,0.0,4.5168,4.5592,4.5592,4.5745,4.6434,4.793,4.8238,4.8939,5.0438,5.0286,5.0656,5.1997,5.1782,5.2538,5.463,5.5412,5.6095,5.671,5.7571,5.7999,5.7999,5.7999,5.7999,5.7999,5.7999,5.7999,5.7999,5.7999,5.7999,5.7999,5.7999,5.7999,5.7999,5.7999,5.7999,5.8011,5.8111,5.8279,5.8457,5.8457,5.8629,5.893,5.9132,5.932,5.9528,5.989,6.0053,6.0157,6.0386,6.0533,0.0,0.0,0.0,0.0,0.0,0.0,0.0,0.0,0.0,6.0826,6.0874,6.1486,6.201,6.1982,6.2748,6.3849,6.5106,6.5383,6.5994,6.751,6.8108,6.8347,6.8258,6.9128,6.9828,7.0059,7.1215,7.2196,7.29,7.2728,7.3016,7.3921,7.4568,7.4978,7.5181,7.6016,7.6527,7.6677,7.6824,7.6971,7.7158,7.7951,7.8703,7.9374,8.017,8.0994,8.1757,8.1909,8.203,8.2161,8.2184,8.2285,8.2488,8.2634,8.1285,7.9241,7.9354,7.9428,7.9458,0.0,0.0,0.0,0.0,0.0,0.0,0.0,0.0,4.5592,4.5592,4.6278,4.7083,4.8006,4.8779,4.9564,5.0362,5.0154,5.0585,5.192,5.1753,5.2221,5.3612,5.5041,5.5805,5.5754,5.724,5.7999,5.7999,5.7999,5.7999,5.7999,5.7999,5.7999,5.7999,5.7999,5.7999,5.7999,5.7999,5.7999,5.7999,5.7999,5.7999,5.7999,5.8014,5.8105,5.8221,5.8221,5.8378,5.8577,5.8792,5.8955,5.9132,5.9519,5.9702,5.9805,6.0149,0.0,6.0442,6.0564,6.0551,6.0503,6.0495,6.0493,6.0495,0.0,0.0,6.1642,6.158,6.2286,6.2809,6.2629,6.3822,6.4914,6.5025,6.6038,6.735,6.9008,6.8943,6.9274,7.0707,7.0558,7.0816,7.2036,7.2306,7.2593,7.3037,7.3053,7.3353,7.413,7.4354,7.4789,7.5523,7.5784,7.6233,7.6936,7.7676,7.8379,7.9085,7.9944,8.0431,8.0505,8.0635,8.0873,8.1217,8.1446,8.1564,8.1586,8.1702,8.1846,8.2007,8.2278,8.2359,8.2361,8.2716,8.2847,8.2868,0.0,0.0,0.0,0.0,0.0,0.0,0.0,0.0,0.0,4.5592,4.6355,4.7197,4.8006,4.9262,5.0144,5.0376,5.0109,5.0533,5.1906,5.1647,5.2273,5.4114,5.5154,5.5881,5.6274,5.7412,5.7999,5.7999,5.7999,5.7999,5.7999,5.7999,5.7999,5.7999,5.7999,5.7999,5.7999,5.7999,5.7999,5.7999,5.7999,5.7999,5.7999,5.7999,5.8031,5.8077,5.8077,5.8184,0.0,0.0,5.8648,5.8863,5.9218,5.9394,5.9579,5.9922,6.0137,0.0,6.0273,6.0308,0.0,0.0,6.0154,6.0276,6.0804,6.1149,6.1525,6.2024,6.275,6.3456,6.3868,6.4797,6.5821,0.0,6.7567,6.8448,6.95,6.9825,7.032,7.1401,7.1311,7.1405,7.2079,7.2529,7.3036,7.3699,7.3643,7.3903,7.4691,7.5275,7.5716,7.6042,7.7109,7.7813,7.8149,7.8949,7.9538,7.9871,8.0245,8.0656,8.1178,8.1178,8.1526,8.2164,8.2334,8.2422,8.2435,8.2621,8.2773,8.2907,8.3288,8.3608,8.3785,8.3341,8.3274,8.3421,0.0,0.0,0.0,0.0,0.0,0.0,0.0,0.0,0.0,0.0,4.6547,4.7621,4.8701,4.985,5.0492,5.0411,5.0344,5.0778,5.1935,5.1825,5.2519,5.4334,5.5188,5.5903,5.6452,5.7483,5.7999,5.7999,5.7999,5.7999,5.7999,5.7999,5.7999,5.7999,5.7999,5.7999,5.7999,5.7999,5.7999,5.7999,5.7999,5.7999,5.7999,5.7999,5.7999,5.7999,5.7999,5.8057,0.0,0.0,5.8438,5.8654,5.892,5.9135,5.9407,5.967,5.9882,6.0024,6.0001,0.0,0.0,6.0078,6.0116,6.0356,6.1197,6.1561,6.1925,6.2748,6.3581,6.44,6.5195,6.5883,0.0,6.8203,6.8793,6.9371,7.0258,7.0678,7.1175,7.189,7.1957,7.2047,7.2368,7.2921,7.346,7.4034,7.4148,7.4529,7.5342,7.6195,7.6755,7.7012,7.8447,7.9203,7.9203,8.0036,8.0434,8.0434,8.0655,8.1212,8.2027,8.2295,8.2791,8.3444,8.3605,8.364,8.3647,8.3801,8.3966,8.4186,8.4499,8.4853,8.5074,8.4402,8.4062,8.3995,0.0,0.0,0.0,0.0,0.0,0.0,0.0,0.0,0.0,0.0,0.0,0.0,0.0,5.0615,5.0532,5.0414,5.0912,5.1502,5.2052,5.2507,5.3009,5.3619,5.5009,5.5757,5.5624,5.7195,5.7999,5.7999,5.7999,5.7999,5.7999,5.7999,5.7999,5.7999,5.7999,5.7999,5.7999,5.7999,5.7999,5.7999,5.7999,5.7999,5.7999,5.7999,5.7999,5.7999,5.7999,0.0,5.8025,5.8145,5.8305,5.8445,5.8635,5.8938,0.0,5.9389,5.9649,5.9883,0.0,0.0,5.9789,6.0513,6.0676,6.0897,6.1678,6.2593,6.3432,6.4104,6.4912,6.5753,6.6518,6.7238,6.7978,6.8657,6.9292,7.0161,7.1622,7.1612,7.1755,7.2565,7.2552,7.2767,0.0,7.3786,7.3844,7.3703,7.4445,7.5212,7.6027,7.6823,7.7667,7.8527,7.9347,7.9791,7.9791,8.0587,8.0983,8.0983,8.1762,8.2566,8.3369,8.4269,8.4719,8.4768,8.4959,8.5039,8.5039,8.5047,8.5232,8.5565,8.5704,8.6108,8.6646,8.6892,8.6323,8.546,0.0,0.0,0.0,0.0,0.0,0.0,0.0,0.0,0.0,0.0,0.0,0.0,0.0,0.0,0.0,0.0,5.0982,5.1569,5.2139,5.2548,5.3055,5.359,5.4466,5.5142,5.5588,5.6638,5.7483,5.7999,5.7999,5.7999,5.7999,5.7999,5.7999,5.7999,5.7999,5.7999,5.7999,5.7999,5.7999,5.7999,5.7999,5.7999,5.7999,5.7999,5.7999,5.7999,0.0,0.0,5.8008,5.8048,5.8142,5.8284,5.851,5.8711,5.8917,5.9203,5.977,6.0269,6.0062,0.0,6.0808,6.0936,6.097,6.1212,6.2073,6.2945,6.3804,6.4704,6.5571,6.6531,6.7912,6.8189,6.8627,6.9991,7.0575,7.1058,7.1564,7.1948,7.2266,7.2527,7.3005,0.0,0.0,0.0,0.0,7.5219,7.5542,7.6309,7.7671,7.8038,7.8552,7.9368,8.0171,8.0608,8.0608,8.1379,8.2072,8.2614,8.3393,8.3944,8.4201,8.4512,8.4656,8.4656,8.4722,8.4784,8.4796,8.4866,8.498,8.5104,8.5351,8.5727,8.6133,8.6387,8.6477,8.651,0.0,0.0,0.0,0.0,0.0,0.0,0.0,0.0,0.0,0.0,0.0,0.0,0.0,0.0,0.0,0.0,0.0,0.0,5.2305,5.3025,5.3551,5.3755,5.4347,5.4983,5.5643,5.6398,5.7183,5.7999,5.7999,5.7999,5.7999,5.7999,5.7999,5.7999,5.7999,5.7999,5.7999,5.7999,5.7999,5.7999,5.7999,5.7999,5.7999,5.7999,5.7999,0.0,0.0,5.7999,5.7999,5.7999,5.808,5.8209,5.8356,5.8537,5.8824,5.9383,5.9927,6.0387,6.0502,6.0863,6.1265,6.1388,6.1637,6.2068,6.2971,6.3805,6.4656,6.5674,6.6516,6.7496,6.8916,6.9195,6.9663,7.095,7.1374,7.1577,7.1822,7.2215,7.2602,7.2899,7.338,0.0,0.0,0.0,0.0,7.6019,7.6644,7.7451,7.8556,7.9143,7.969,8.0212,8.1012,8.1558,8.1848,8.2366,8.3026,8.3826,8.4646,8.5017,8.5049,8.5339,8.5449,8.5449,8.5449,8.5449,8.5453,8.5563,8.5646,8.5693,8.5922,8.6213,8.6545,8.6827,8.7153,8.7517,0.0,0.0,0.0,0.0,0.0,0.0,0.0,0.0,0.0,0.0,0.0,0.0,0.0,0.0,0.0,0.0,0.0,0.0,5.2539,5.383,5.4457,5.4131,5.4596,5.5131,5.5714,5.64,5.7155,5.7926,5.7963,5.7999,5.7999,5.7999,5.7999,5.7999,5.7999,5.7999,5.7999,5.7999,5.7999,5.7999,5.7999,5.7999,5.7999,5.7999,5.7999,5.7999,5.7999,0.0,5.7999,5.7999,0.0,0.0,5.8181,5.845,5.8942,5.99,6.0178,6.0324,6.0953,6.1056,6.1189,6.193,6.2682,6.3463,6.4284,6.5069,6.5962,6.6935,6.7818,6.8677,0.0,0.0,7.0991,7.1673,7.1664,7.1766,7.24,7.2529,7.2826,0.0,0.0,0.0,0.0,0.0,0.0,7.624,0.0,7.863,7.8703,8.0163,8.1044,8.1114,8.1856,8.2663,8.3454,8.3495,8.3903,8.4682,8.5494,8.5865,8.5902,8.666,8.6982,8.6982,8.6982,8.6982,8.6982,8.6982,8.7094,8.7296,8.7296,8.7505,8.7876,8.8136,8.8391,8.846,0.0,0.0,0.0,0.0,0.0,0.0,0.0,0.0,0.0,0.0,0.0,0.0,0.0,0.0,0.0,0.0,0.0,0.0,5.2656,5.3938,5.4561,5.4274,5.4172,5.4395,5.4978,5.5675,5.6389,5.711,5.7706,5.7999,5.7999,5.7999,5.7999,5.7999,5.7999,5.7999,5.7999,5.7999,5.7999,5.7999,5.7999,5.7999,5.7999,5.7999,5.7999,5.7999,0.0,0.0,0.0,0.0,0.0,0.0,0.0,5.8749,5.9421,5.9669,6.0579,6.1516,6.1586,6.2044,6.2654,6.3379,6.3716,6.4112,6.5016,6.5933,6.6855,6.779,6.8708,6.9793,0.0,0.0,0.0,7.2566,7.2519,0.0,7.2477,7.3013,0.0,0.0,0.0,7.5652,7.6052,7.7231,0.0,0.0,7.8373,7.9103,8.031,8.0787,8.1554,8.2761,8.2981,8.3463,8.427,8.4903,8.5274,8.5494,8.6297,8.6697,8.6693,8.6913,8.6982,8.6982,8.6982,8.6982,8.6982,8.6982,8.7012,8.7092,8.7092,8.7572,8.8357,8.8491,8.9078,8.9793,0.0,0.0,0.0,0.0,0.0,0.0,0.0,0.0,0.0,0.0,0.0,0.0,0.0,0.0,0.0,0.0,0.0,0.0,0.0,5.3738,5.4381,5.4475,5.4206,5.4326,5.487,5.551,5.6196,5.6895,5.7616,5.7999,5.7999,5.7999,5.7999,5.7999,5.7999,5.7999,5.7999,5.7999,5.7999,0.0,0.0,5.7999,5.7999,5.7999,5.7999,0.0,0.0,0.0,0.0,0.0,0.0,5.8114,5.8164,5.8785,5.959,6.0012,0.0,6.2052,6.268,6.3177,6.3676,6.4439,6.4901,6.5306,6.5882,6.7024,6.8137,6.8766,6.9985,0.0,0.0,0.0,0.0,0.0,0.0,0.0,7.2514,7.3197,7.3824,0.0,7.5322,0.0,7.7121,7.8042,7.8883,0.0,7.9653,8.0057,8.0934,8.1664,8.2468,8.3381,8.3756,8.4311,8.5127,8.593,8.6334,8.6334,8.6766,8.6982,8.7023,8.7358,8.7537,8.7541,0.0,8.8046,8.8046,8.8046,8.8046,8.8046,8.8046,8.841,8.8895,8.9071,8.949,9.0048,0.0,0.0,0.0,0.0,0.0,0.0,0.0,0.0,0.0,0.0,0.0,0.0,0.0,0.0,0.0,0.0,0.0,0.0,0.0,0.0,0.0,5.4737,5.4473,5.4526,5.4974,5.5517,5.614,5.6845,5.752,5.7904,5.7999,5.7999,5.7999,5.7999,5.7999,5.7999,5.7999,5.7999,5.7999,5.7999,5.7999,5.7999,5.7999,0.0,0.0,0.0,0.0,0.0,0.0,0.0,5.8025,5.8053,5.8269,5.8892,5.9694,6.0648,6.1407,6.2269,6.3772,6.4139,6.4316,6.5221,6.6008,6.6575,6.6812,6.816,6.9434,6.9794,0.0,7.2519,7.2737,0.0,7.3405,7.3178,0.0,7.2746,7.2693,7.3354,7.4147,7.4948,7.5869,7.7011,7.8446,7.8776,7.9507,8.0897,8.1191,8.1334,8.1334,8.2651,8.3495,8.372,8.4495,8.5233,8.5939,8.666,8.7055,8.717,8.717,8.7202,8.7349,8.8055,8.8349,8.839,0.0,0.0,8.94,8.94,8.94,8.94,8.94,8.9473,8.9564,8.9773,8.9871,9.0034,0.0,0.0,0.0,0.0,0.0,0.0,0.0,0.0,0.0,0.0,4.8856,0.0,0.0,0.0,0.0,0.0,0.0,0.0,0.0,0.0,0.0,0.0,5.4731,5.4476,5.4269,5.4853,5.5443,5.5995,0.0,5.7469,5.7999,5.7999,5.7999,5.7999,5.7999,5.7999,5.7999,5.7999,5.7999,5.7999,5.7999,5.7999,5.7999,0.0,0.0,0.0,0.0,0.0,0.0,0.0,5.8167,5.8112,5.8819,5.9562,6.0382,6.1217,6.201,6.2827,6.3834,6.4112,6.4466,6.5925,6.6491,6.6846,6.7535,6.8717,0.0,0.0,0.0,7.2872,7.3604,7.3833,0.0,7.3405,0.0,0.0,0.0,0.0,7.4984,0.0,0.0,0.0,0.0,0.0,0.0,0.0,0.0,0.0,8.2981,8.3238,8.4013,8.5347,8.6142,8.6656,8.6803,8.6913,8.7316,8.7986,8.7986,8.8344,8.8996,8.9143,8.9184,8.9216,0.0,0.0,8.94,8.94,8.94,8.94,8.94,8.9803,9.0404,9.0435,9.0857,9.1485,0.0,0.0,0.0,0.0,0.0,0.0,0.0,0.0,0.0,0.0,4.955,5.0245,0.0,0.0,0.0,0.0,0.0,0.0,0.0,0.0,0.0,0.0,0.0,0.0,0.0,0.0,0.0,0.0,0.0,0.0,0.0,0.0,0.0,0.0,0.0,0.0,5.7999,5.7999,5.7999,0.0,0.0,0.0,0.0,0.0,0.0,0.0,0.0,0.0,0.0,0.0,5.8462,5.8496,5.9179,5.99,6.0659,6.1473,6.2564,6.3649,6.4494,6.5047,6.5638,6.6813,6.7216,6.758,6.8503,0.0,0.0,0.0,0.0,7.3878,7.429,0.0,0.0,0.0,0.0,0.0,0.0,0.0,0.0,0.0,0.0,0.0,0.0,0.0,0.0,0.0,0.0,0.0,8.3385,8.4201,8.5196,8.6407,8.6803,8.7206,8.7614,8.7614,8.8018,8.8821,8.8821,8.9037,8.94,8.9845,9.0028,9.0065,0.0,0.0,9.0656,9.0656,9.0656,9.0656,9.0656,9.0881,9.1212,9.1212,9.1473,9.1826,0.0,0.0,0.0,0.0,0.0,0.0,0.0,4.7582,4.8392,4.928,5.0168,5.0709,5.0709,5.0709,5.0709,0.0,0.0,0.0,0.0,0.0,0.0,0.0,0.0,0.0,0.0,0.0,0.0,0.0,0.0,0.0,0.0,0.0,0.0,0.0,0.0,0.0,0.0,0.0,5.7999,0.0,0.0,0.0,0.0,0.0,0.0,0.0,0.0,0.0,0.0,0.0,5.8834,5.8952,5.9825,6.0353,6.0854,6.1829,6.3061,6.4281,6.512,6.5908,6.6709,6.7514,6.788,6.8262,6.9347,7.0525,0.0,0.0,0.0,7.4767,7.4767,0.0,0.0,0.0,0.0,0.0,0.0,0.0,0.0,0.0,0.0,0.0,0.0,0.0,0.0,0.0,0.0,0.0,0.0,8.527,8.6334,8.6986,8.717,8.7573,8.8206,8.839,8.8858,8.9657,8.9657,8.9767,8.9955,9.0583,9.0844,9.0881,0.0,0.0,0.0,9.1808,9.1808,9.1808,9.1808,9.1808,9.1808,9.1808,9.1808,9.1808,0.0,0.0,0.0,0.0,0.0,0.0,0.0,4.7582,4.8392,4.928,5.0168,5.0709,5.0709,5.0709,5.0709,0.0,0.0,0.0,0.0,0.0,0.0,0.0,0.0,0.0,0.0,0.0,0.0,0.0,0.0,0.0,0.0,0.0,0.0,0.0,0.0,0.0,0.0,0.0,0.0,0.0,0.0,0.0,0.0,0.0,0.0,0.0,0.0,0.0,0.0,0.0,0.0,5.9534,6.1093,6.1262,6.1172,6.2646,0.0,0.0,6.5263,6.5983,6.6729,6.7639,6.8057,6.8544,6.9622,0.0,0.0,0.0,0.0,0.0,0.0,0.0,0.0,0.0,0.0,7.4979,0.0,0.0,0.0,0.0,0.0,0.0,0.0,0.0,0.0,0.0,0.0,0.0,0.0,8.6403,8.6908,8.6982,8.7725,8.8133,8.8206,8.8927,8.9698,9.0473,9.0473,9.0881,9.1583,9.1661,9.1698,9.1698,0.0,0.0,0.0,9.1808,9.1808,9.1808,9.1808,9.1808,9.1808,9.1808,9.1808,9.1808,0.0,0.0,0.0,0.0,0.0,0.0,0.0,4.8353,4.9203,5.0053,5.0477,5.0709,5.0709,5.0709,5.0709,0.0,0.0,0.0,0.0,0.0,0.0,0.0,0.0,0.0,0.0,0.0,0.0,0.0,0.0,0.0,0.0,0.0,0.0,0.0,0.0,0.0,0.0,0.0,0.0,0.0,0.0,0.0,0.0,0.0,0.0,0.0,0.0,0.0,0.0,0.0,0.0,0.0,6.1531,6.1857,0.0,0.0,6.4271,6.5247,6.5543,6.6516,6.7559,6.7916,6.8209,6.8812,7.038,0.0,0.0,0.0,7.4895,7.5315,7.5367,0.0,0.0,0.0,0.0,0.0,7.58,7.6233,7.708,0.0,0.0,0.0,0.0,0.0,0.0,0.0,0.0,0.0,0.0,8.6839,8.7206,8.7725,8.8023,8.8683,8.9633,8.9959,9.0546,9.1326,9.1326,9.1473,9.1808,9.1808,9.1808,9.1808,0.0,0.0,0.0,9.1808,9.1808,9.1808,9.1808,9.1808,9.1808,9.1808,9.1808,9.1808,0.0,0.0,0.0,0.0,0.0,0.0,4.8315,4.9009,4.9704,5.0593,5.0709,5.0709,5.0709,5.0709,5.0709,5.0709,0.0,0.0,0.0,0.0,0.0,0.0,0.0,0.0,0.0,0.0,0.0,0.0,0.0,0.0,0.0,0.0,0.0,0.0,0.0,0.0,0.0,0.0,0.0,0.0,0.0,0.0,0.0,0.0,0.0,0.0,0.0,0.0,0.0,0.0,0.0,0.0,0.0,0.0,6.2462,0.0,6.4846,6.597,6.5879,6.7006,6.8215,6.8253,6.8462,6.9144,0.0,0.0,7.273,7.4778,7.536,7.5536,7.5622,7.5489,7.5243,7.4931,7.5407,7.5842,7.6035,7.6829,7.7809,0.0,0.0,0.0,0.0,0.0,0.0,0.0,0.0,0.0,0.0,0.0,8.7614,8.8169,8.8647,8.945,9.0583,9.0844,9.1253,9.1808,9.1808,9.1808,9.1808,9.1808,9.1808,0.0,0.0,0.0,0.0,9.1808,9.1808,9.1808,9.1808,9.1808,9.1808,9.1808,9.1808,9.1808,0.0,0.0,0.0,0.0,0.0,0.0,0.0,4.9395,4.9704,5.0593,5.0709,5.0709,5.0709,5.0709,5.0709,5.0709,0.0,0.0,0.0,0.0,0.0,0.0,0.0,0.0,0.0,0.0,0.0,0.0,0.0,0.0,0.0,0.0,0.0,0.0,0.0,0.0,0.0,0.0,0.0,0.0,0.0,0.0,0.0,0.0,0.0,0.0,0.0,0.0,0.0,0.0,0.0,0.0,0.0,6.2709,6.2794,6.3895,6.5247,6.6348,6.6221,6.7337,6.8511,6.8677,6.8858,6.9505,0.0,0.0,7.3072,7.507,7.5536,7.5625,7.5678,7.5591,7.5409,7.5132,7.6088,7.6734,7.6253,7.7905,7.9372,0.0,0.0,0.0,0.0,0.0,0.0,0.0,0.0,0.0,0.0,0.0,8.8206,8.8206,8.9743,9.0583,9.0583,9.14,9.1808,9.1808,9.1808,9.1808,9.1808,9.1808,0.0,0.0,0.0,0.0,0.0,9.1808,9.1808,9.1808,9.1808,9.1808,9.1808,9.1808,9.1808,9.1808,0.0,0.0,0.0,0.0,0.0,0.0,0.0,4.9898,5.04,5.067,5.0709,5.0709,5.0709,5.0709,5.0709,5.0709,0.0,0.0,0.0,0.0,0.0,0.0,0.0,0.0,0.0,0.0,0.0,0.0,0.0,0.0,0.0,0.0,0.0,0.0,0.0,0.0,0.0,0.0,0.0,0.0,0.0,0.0,0.0,0.0,0.0,0.0,0.0,0.0,0.0,0.0,0.0,0.0,0.0,0.0,0.0,6.4508,6.5806,6.6775,6.6699,6.7795,6.9002,6.9041,6.9187,6.9818,7.1705,0.0,7.3245,7.5172,7.5674,7.5837,7.5885,7.5769,7.5555,7.5333,7.6283,7.6883,0.0,0.0,0.0,0.0,0.0,0.0,0.0,0.0,0.0,0.0,0.0,0.0,0.0,0.0,8.9257,8.9817,9.0326,9.0844,9.14,9.1657,9.1808,9.1808,9.1808,9.1808,9.1808,9.1808,0.0,0.0,0.0,0.0,0.0,9.1808,9.1808,9.1808,9.1808,9.1808,9.1808,9.1808,9.1808,9.1808,0.0,0.0,0.0,0.0,0.0,0.0,0.0,5.038,5.0721,5.0699,5.0696,5.0689,5.0711,5.0709,5.0709,5.0709,0.0,0.0,0.0,0.0,0.0,0.0,0.0,0.0,0.0,0.0,0.0,0.0,0.0,0.0,0.0,0.0,0.0,0.0,0.0,0.0,0.0,0.0,0.0,0.0,0.0,0.0,6.0285,0.0,0.0,0.0,0.0,0.0,0.0,0.0,0.0,0.0,0.0,0.0,0.0,0.0,6.6084,6.6924,6.7018,6.8226,6.943,6.943,6.9589,7.0189,0.0,0.0,7.3465,7.5317,7.5817,7.5914,7.5998,0.0,0.0,0.0,0.0,0.0,0.0,0.0,0.0,0.0,0.0,0.0,0.0,0.0,0.0,0.0,0.0,0.0,0.0,0.0,9.0216,9.1028,9.1065,9.1289,9.1808,9.1808,9.1808,9.1808,9.1808,9.1808,9.1808,0.0,0.0,0.0,0.0,0.0,0.0,9.1808,9.1808,9.1808,9.1808,9.1808,9.1808,9.1808,9.1808,9.1808,0.0,0.0,0.0,0.0,0.0,0.0,0.0,0.0,0.0,0.0,5.0703,5.0682,5.0718,5.0711,5.0709,0.0,0.0,0.0,0.0,0.0,0.0,0.0,0.0,0.0,0.0,0.0,0.0,5.5398,5.5368,5.5268,5.5135,0.0,0.0,0.0,0.0,0.0,0.0,0.0,0.0,0.0,0.0,6.0359,0.0,0.0,0.0,0.0,0.0,0.0,0.0,0.0,0.0,0.0,0.0,0.0,0.0,0.0,0.0,0.0,0.0,6.854,6.9782,6.982,6.9999,7.0618,7.2428,0.0,0.0,0.0,0.0,0.0,0.0,0.0,0.0,0.0,0.0,0.0,0.0,0.0,0.0,0.0,0.0,0.0,0.0,0.0,0.0,0.0,0.0,0.0,0.0,0.0,0.0,9.1771,9.1808,9.1808,9.1808,9.1808,9.1808,9.1808,9.1808,9.1808,9.1808,0.0,0.0,0.0,0.0,0.0,0.0,9.1808,9.1808,9.1808,9.1808,9.1808,9.1808,9.1808,9.1808,9.1808,0.0,0.0,0.0,0.0,0.0,0.0,0.0,0.0,0.0,0.0,5.0747,5.0694,5.0685,5.0691,5.0709,0.0,0.0,0.0,0.0,0.0,0.0,0.0,0.0,0.0,0.0,0.0,0.0,5.5533,5.5507,5.5395,5.5312,5.516,0.0,0.0,0.0,0.0,0.0,0.0,0.0,0.0,6.0359,6.0516,0.0,0.0,0.0,0.0,6.0779,6.0784,0.0,0.0,0.0,0.0,0.0,0.0,0.0,0.0,6.6324,6.7083,6.7787,0.0,6.9413,7.0097,7.0331,7.0878,0.0,7.3153,0.0,0.0,0.0,0.0,0.0,0.0,0.0,0.0,0.0,0.0,0.0,0.0,0.0,0.0,0.0,0.0,0.0,0.0,0.0,0.0,0.0,0.0,0.0,0.0,0.0,9.1771,9.1808,9.1808,9.1808,9.1808,9.1808,9.1808,9.1808,9.1808,9.1808,0.0,0.0,0.0,0.0,0.0,9.1808,9.1808,9.1808,9.1808,9.1808,9.1808,9.1808,9.1808,9.1808,9.1808,0.0,0.0,0.0,0.0,0.0,0.0,0.0,0.0,0.0,0.0,0.0,0.0,0.0,0.0,0.0,0.0,0.0,0.0,0.0,0.0,0.0,0.0,0.0,0.0,0.0,0.0,0.0,0.0,0.0,5.5548,0.0,0.0,0.0,0.0,0.0,0.0,0.0,0.0,0.0,0.0,6.0534,0.0,0.0,0.0,0.0,0.0,6.0784,6.0784,0.0,6.0784,6.0784,6.109,0.0,0.0,0.0,0.0,6.6416,6.7213,6.8061,6.8743,6.9463,7.0307,7.0906,7.158,7.2888,0.0,0.0,0.0,0.0,0.0,0.0,0.0,0.0,0.0,0.0,0.0,0.0,0.0,0.0,0.0,0.0,0.0,0.0,0.0,0.0,0.0,0.0,0.0,0.0,0.0,0.0,0.0,9.1808,9.1808,9.1808,9.1808,9.1808,9.1808,9.1808,9.1808,9.1808,0.0,0.0,0.0,0.0,0.0,9.1808,9.1808,9.1808,9.1808,9.1808,9.1808,9.1808,9.1808,9.1808,9.1808,0.0,0.0,0.0,0.0,0.0,0.0,0.0,0.0,0.0,0.0,0.0,0.0,0.0,0.0,0.0,0.0,0.0,0.0,0.0,0.0,0.0,0.0,0.0,0.0,0.0,0.0,0.0,0.0,0.0,0.0,0.0,0.0,5.6142,0.0,0.0,0.0,0.0,0.0,0.0,0.0,6.0679,0.0,0.0,0.0,0.0,0.0,0.0,0.0,0.0,6.0784,6.0901,6.1284,6.2815,0.0,0.0,0.0,0.0,0.0,6.8162,6.8917,6.963,7.052,7.1407,7.2328,7.3128,0.0,0.0,0.0,0.0,0.0,0.0,0.0,0.0,0.0,0.0,0.0,0.0,0.0,0.0,0.0,0.0,0.0,0.0,0.0,0.0,0.0,0.0,0.0,0.0,0.0,0.0,0.0,9.1808,9.1808,9.1808,9.1808,9.1808,9.1808,9.1808,9.1808,9.1808,9.1808,0.0,0.0,0.0,0.0,9.1808,9.1808,9.1808,9.1808,9.1808,9.1808,9.1808,9.1808,9.1808,9.1808,0.0,0.0,0.0,0.0,0.0,0.0,0.0,0.0,0.0,0.0,0.0,0.0,0.0,0.0,0.0,0.0,0.0,0.0,0.0,0.0,0.0,0.0,0.0,0.0,0.0,0.0,0.0,0.0,0.0,0.0,5.5691,5.6355,5.7483,5.8926,0.0,0.0,0.0,0.0,0.0,6.0684,6.0746,0.0,0.0,0.0,0.0,0.0,0.0,0.0,0.0,6.0784,6.1285,6.2056,6.3009,0.0,0.0,0.0,0.0,0.0,6.8162,6.8992,6.9863,7.0673,7.1477,7.2319,0.0,0.0,0.0,0.0,0.0,0.0,0.0,0.0,0.0,0.0,0.0,0.0,0.0,0.0,0.0,0.0,0.0,0.0,0.0,0.0,0.0,0.0,0.0,0.0,0.0,0.0,0.0,0.0,0.0,9.1808,9.1808,9.1808,9.1808,9.1808,9.1808,9.1808,9.1808,9.1808,9.1808,0.0,0.0,9.1808,9.1808,9.1808,9.1808,9.1808,9.1808,9.1808,9.1808,9.1808,9.1808,9.1808,0.0,0.0,0.0,0.0,0.0,0.0,0.0,0.0,0.0,0.0,0.0,0.0,0.0,0.0,0.0,0.0,0.0,0.0,0.0,0.0,0.0,0.0,0.0,0.0,0.0,0.0,0.0,0.0,0.0,5.5707,5.5744,5.7023,5.8263,5.9428,0.0,0.0,0.0,0.0,6.0743,6.0746,0.0,0.0,0.0,0.0,0.0,0.0,0.0,0.0,0.0,0.0,6.1364,6.2249,6.3046,0.0,0.0,0.0,0.0,0.0,6.8277,6.9356,7.0552,7.1402,7.2187,0.0,0.0,0.0,0.0,0.0,0.0,0.0,0.0,0.0,0.0,0.0,0.0,0.0,0.0,0.0,0.0,0.0,0.0,0.0,0.0,0.0,0.0,0.0,0.0,0.0,0.0,0.0,0.0,0.0,0.0,0.0,9.1808,9.1808,9.1808,9.1808,9.1808,9.1808,9.1808,9.1808,9.1808,0.0,0.0,9.1808,9.1808,9.1808,9.1808,9.1808,9.1808,9.1808,9.1808,9.1808,9.1808,9.1808,0.0,0.0,0.0,0.0,0.0,0.0,0.0,0.0,0.0,0.0,0.0,0.0,0.0,0.0,0.0,0.0,0.0,0.0,0.0,0.0,0.0,0.0,0.0,0.0,0.0,0.0,5.5707,5.5707,5.5707,5.5898,5.6358,5.7856,5.9009,0.0,0.0,0.0,0.0,6.0784,6.0784,6.0784,0.0,0.0,0.0,0.0,0.0,0.0,0.0,0.0,0.0,0.0,0.0,0.0,0.0,0.0,0.0,6.5939,6.7242,6.843,6.866,6.9935,7.1395,7.2264,0.0,0.0,0.0,0.0,0.0,0.0,0.0,0.0,0.0,0.0,0.0,0.0,0.0,0.0,0.0,0.0,0.0,0.0,0.0,0.0,0.0,0.0,0.0,0.0,0.0,0.0,0.0,0.0,0.0,0.0,0.0,0.0,9.1808,9.1808,9.1808,9.1808,9.1808,9.1808,9.1808,9.1808,9.1808,9.1808,9.1808,9.1808,9.1808,9.1808,9.1808,9.1808,9.1808,9.1808,9.1808,9.1808,9.1808,9.1808,0.0,0.0,0.0,0.0,0.0,0.0,0.0,0.0,0.0,0.0,0.0,0.0,0.0,0.0,0.0,0.0,0.0,0.0,0.0,0.0,0.0,0.0,0.0,0.0,0.0,5.5707,5.5707,5.5707,5.5707,5.6512,5.8124,5.9009,5.9896,6.0707,0.0,0.0,6.0784,6.0784,6.0784,6.0784,6.0784,0.0,0.0,0.0,0.0,0.0,0.0,0.0,0.0,0.0,0.0,0.0,0.0,0.0,6.5977,6.6787,6.7667,6.8584,6.9395,7.0823,7.2271,7.304,0.0,0.0,0.0,0.0,0.0,0.0,0.0,0.0,0.0,0.0,0.0,0.0,0.0,0.0,0.0,0.0,0.0,0.0,0.0,0.0,0.0,0.0,0.0,0.0,0.0,0.0,0.0,0.0,0.0,0.0,0.0,0.0,9.1808,9.1808,9.1808,9.1808,9.1808,9.1808,9.1808,9.1808,9.1808,9.1808,9.1808,9.1808,9.1808,9.1808,9.1808,9.1808,9.1808,9.1808,9.1808,9.1808,9.1808,9.1808,0.0,0.0,0.0,0.0,0.0,0.0,0.0,0.0,0.0,0.0,0.0,0.0,0.0,0.0,0.0,0.0,0.0,0.0,0.0,0.0,0.0,0.0,0.0,5.5707,5.5707,5.5707,5.5707,5.5707,5.6247,5.7398,5.9047,5.9355,0.0,0.0,0.0,6.0784,6.0784,6.0784,6.0784,6.0784,6.0784,6.0784,0.0,0.0,0.0,0.0,0.0,0.0,0.0,0.0,6.2977,6.4163,6.4511,6.5206,6.6054,6.6864,6.7705,6.8584,6.9473,7.0938,7.2385,7.3109,0.0,0.0,0.0,0.0,0.0,0.0,0.0,0.0,0.0,0.0,0.0,0.0,0.0,0.0,0.0,0.0,0.0,0.0,0.0,0.0,0.0,0.0,0.0,0.0,0.0,0.0,0.0,0.0,0.0,0.0,0.0,0.0,0.0,9.1808,9.1808,9.1808,9.1808,9.1808,9.1808,9.1808,9.1808,9.1808,9.1808,9.1808,9.1808,9.1808,9.1808,9.1808,9.1808,9.1808,9.1808,9.1808,9.1808,9.1808,0.0,0.0,0.0,0.0,0.0,0.0,0.0,0.0,0.0,0.0,0.0,0.0,0.0,0.0,0.0,0.0,0.0,0.0,0.0,0.0,0.0,0.0,0.0,5.5707,5.5707,5.5978,5.6093,5.6093,5.7247,5.8399,5.951,0.0,0.0,0.0,0.0,6.0784,6.0784,6.0784,6.0784,6.0784,6.0784,6.0784,0.0,0.0,0.0,0.0,0.0,0.0,0.0,0.0,6.3668,6.4665,6.4936,6.5591,6.6441,6.7284,6.8127,6.9048,7.0166,7.1498,7.273,7.3493,0.0,0.0,0.0,0.0,0.0,0.0,0.0,0.0,0.0,0.0,0.0,0.0,0.0,0.0,0.0,0.0,0.0,0.0,0.0,0.0,0.0,0.0,0.0,0.0,0.0,0.0,0.0,0.0,0.0,0.0,0.0,0.0,0.0,9.1808,9.1808,9.1808,9.1808,9.1808,9.1808,9.1808,9.1808,9.1808,9.1808,9.1808,9.1808,9.1808,9.1808,9.1808,9.1808,9.1808,9.1808,9.1808,9.1808,9.1808,0.0,0.0,0.0,0.0,0.0,0.0,0.0,0.0,0.0,0.0,0.0,0.0,0.0,0.0,0.0,0.0,0.0,0.0,0.0,0.0,0.0,0.0,0.0,5.5707,5.5707,5.6556,5.7021,5.7021,5.8705,5.951,5.9511,6.0398,0.0,0.0,0.0,0.0,6.0784,6.0784,6.0784,6.0784,6.0784,6.0784,6.0784,0.0,0.0,0.0,0.0,0.0,0.0,0.0,6.4626,6.4742,6.5631,6.6441,6.7285,6.8164,6.9047,7.009,7.1748,7.2728,7.3491,7.4289,0.0,0.0,0.0,0.0,0.0,0.0,0.0,0.0,0.0,0.0,0.0,0.0,0.0,0.0,0.0,0.0,0.0,0.0,0.0,0.0,0.0,0.0,0.0,0.0,0.0,0.0,0.0,0.0,0.0,0.0,0.0,0.0,0.0,9.1808,9.1808,9.1808,9.1808,9.1808,9.1808,9.1808,9.1808,9.1808,9.1808,9.1808,9.1808,9.1808,9.1808,9.1808,9.1808,9.1808,9.1808,9.1808,9.1808,9.1808,0.0,0.0,0.0,0.0,0.0,0.0,0.0,0.0,0.0,0.0,0.0,0.0,0.0,0.0,0.0,0.0,0.0,0.0,0.0,0.0,0.0,0.0,0.0,0.0,0.0,5.8015,5.8744,5.8744,5.9242,5.9819,0.0,0.0,0.0,6.0784,0.0,0.0,6.0784,6.0784,6.0784,6.0784,6.0784,6.0784,6.0784,0.0,0.0,0.0,0.0,0.0,0.0,0.0,0.0,0.0,6.6478,6.6902,6.7401,6.8898,6.9895,7.0783,7.1904,7.3191,0.0,0.0,0.0,0.0,0.0,0.0,0.0,0.0,0.0,0.0,0.0,0.0,0.0,0.0,0.0,0.0,0.0,0.0,0.0,0.0,0.0,0.0,0.0,0.0,0.0,0.0,0.0,0.0,0.0,0.0,0.0,0.0,0.0,0.0,0.0,0.0,9.1808,9.1808,9.1808,9.1808,9.1808,9.1808,9.1808,9.1808,9.1808,9.1808,9.1808,9.1808,9.1808,9.1808,9.1808,9.1808,9.1808,9.1808,9.1808,9.1808,0.0,0.0,0.0,0.0,0.0,0.0,0.0,0.0,0.0,0.0,5.1842,5.2089,0.0,0.0,0.0,0.0,0.0,0.0,0.0,0.0,5.5707,5.5707,5.6016,5.6786,5.7978,5.8973,5.9664,6.0012,6.0012,0.0,0.0,0.0,6.0784,6.0784,0.0,6.0784,6.0784,6.0784,6.0784,6.0784,6.0784,6.0784,6.0822,0.0,0.0,0.0,0.0,0.0,0.0,0.0,0.0,0.0,6.6864,6.7326,6.7898,6.9281,7.0514,7.1587,7.2402,0.0,0.0,0.0,0.0,0.0,0.0,0.0,0.0,0.0,0.0,0.0,0.0,0.0,0.0,0.0,0.0,0.0,0.0,0.0,0.0,0.0,0.0,0.0,0.0,0.0,0.0,0.0,0.0,0.0,0.0,0.0,0.0,0.0,0.0,0.0,9.1808,9.1808,9.1808,9.1808,9.1808,9.1808,9.1808,9.1808,9.1808,9.1808,9.1808,9.1808,9.1808,9.1808,9.1808,9.1808,9.1808,9.1808,9.1808,9.1808,9.1808,9.1808,0.0,0.0,5.1406,5.1406,0.0,0.0,0.0,0.0,0.0,0.0,5.2681,5.2923,0.0,0.0,0.0,0.0,0.0,0.0,0.0,0.0,5.5746,5.5822,5.671,5.7938,5.9473,5.9587,6.0012,6.0784,6.0784,0.0,0.0,0.0,6.0784,6.0784,0.0,6.0784,6.0784,6.0784,6.0784,6.0824,6.0901,6.0939,6.1016,6.1866,0.0,0.0,0.0,0.0,0.0,0.0,0.0,0.0,6.6979,6.7821,6.8699,6.9666,7.1054,7.2462,7.3226,0.0,0.0,0.0,0.0,0.0,0.0,0.0,0.0,0.0,0.0,0.0,0.0,0.0,0.0,0.0,0.0,0.0,0.0,0.0,0.0,0.0,0.0,0.0,0.0,0.0,0.0,0.0,0.0,0.0,0.0,0.0,0.0,0.0,0.0,0.0,9.1808,9.1808,9.1808,0.0,9.1808,9.1808,9.1808,9.1808,9.1808,9.1808,9.1808,9.1808,9.1808,9.1808,9.1808,9.1808,9.1808,9.1808,9.1808,9.1808,9.1808,9.1808,0.0,0.0,5.1406,5.1406,0.0,0.0,0.0,0.0,0.0,0.0,0.0,0.0,0.0,0.0,0.0,0.0,0.0,0.0,0.0,0.0,5.6016,5.6673,5.8168,5.9127,5.9472,6.0167,6.0592,6.0784,6.0784,0.0,0.0,0.0,0.0,6.0784,0.0,6.0784,6.0784,6.0784,6.0784,6.0861,6.1558,6.1827,6.1903,6.2743,6.3472,0.0,0.0,0.0,0.0,0.0,0.0,0.0,6.7856,6.8702,6.9704,7.1209,7.2399,7.3378,0.0,7.4824,0.0,0.0,0.0,0.0,0.0,0.0,0.0,0.0,0.0,0.0,0.0,0.0,0.0,0.0,0.0,0.0,0.0,0.0,0.0,0.0,0.0,0.0,0.0,0.0,0.0,0.0,0.0,0.0,0.0,0.0,0.0,0.0,0.0,9.1808,9.1808,9.1808,9.1808,0.0,9.1808,9.1808,9.1808,9.1808,9.1808,9.1808,9.1808,9.1808,9.1808,9.1808,9.1808,9.1808,9.1808,9.1808,9.1808,9.1808,9.1808,9.189,0.0,0.0,0.0,0.0,0.0,0.0,0.0,0.0,0.0,0.0,0.0,0.0,0.0,0.0,0.0,0.0,0.0,0.0,0.0,0.0,0.0,0.0,5.9011,5.9704,6.0128,6.0553,6.0784,0.0,0.0,0.0,0.0,0.0,0.0,6.0784,0.0,6.0784,6.0784,6.0784,6.1055,6.1441,6.1905,6.2324,6.2783,6.3586,6.4202,6.4665,6.5051,0.0,0.0,0.0,0.0,0.0,0.0,0.0,7.0014,7.171,7.2822,7.3636,0.0,0.0,0.0,0.0,0.0,0.0,0.0,0.0,0.0,0.0,0.0,0.0,0.0,0.0,0.0,0.0,0.0,0.0,0.0,0.0,0.0,0.0,0.0,0.0,0.0,0.0,0.0,0.0,0.0,0.0,0.0,0.0,0.0,0.0,9.1808,9.1808,9.1808,9.1808,9.1808,9.1808,9.1808,9.1808,9.1808,9.1808,9.1808,9.1808,9.1808,9.1808,9.1808,9.1808,9.1808,9.1808,9.1808,9.1808,9.1808,9.1808,9.206,9.2473,0.0,0.0,0.0,0.0,0.0,0.0,0.0,0.0,0.0,0.0,0.0,0.0,0.0,0.0,0.0,0.0,0.0,0.0,0.0,0.0,0.0,0.0,5.9627,6.005,6.0784,6.0784,6.0784,0.0,0.0,0.0,0.0,0.0,0.0,6.0784,0.0,6.0784,6.0824,6.0978,6.1441,6.2135,6.2404,6.2937,0.0,0.0,0.0,0.0,6.5631,6.5979,6.621,6.6864,0.0,0.0,0.0,0.0,7.0437,7.1977,7.3012,7.3859,7.4547,0.0,0.0,0.0,0.0,0.0,0.0,0.0,0.0,0.0,0.0,0.0,0.0,0.0,0.0,0.0,0.0,0.0,0.0,0.0,0.0,0.0,0.0,0.0,0.0,0.0,0.0,0.0,0.0,0.0,0.0,0.0,9.1808,9.1808,9.1808,9.1808,9.1808,9.1808,9.1808,9.1808,9.1808,9.1808,9.1808,9.1808,9.1808,9.1808,9.1808,9.1808,9.1808,9.1808,9.1808,9.1808,9.1808,9.1808,9.1808,9.1973,9.2473,9.3129,0.0,0.0,0.0,0.0,0.0,0.0,0.0,0.0,0.0,0.0,5.6084,5.6,0.0,5.5902,5.586,5.5727,5.6406,5.6827,5.6827,0.0,0.0,0.0,6.0205,6.0668,6.0784,6.0784,6.0784,0.0,0.0,0.0,0.0,0.0,0.0,6.0784,0.0,0.0,6.0861,6.1596,6.1982,6.2212,6.3668,6.4319,0.0,0.0,0.0,0.0,0.0,0.0,6.6979,6.7058,6.8093,0.0,0.0,0.0,7.2056,7.3049,7.3894,7.4707,0.0,0.0,7.4798,0.0,0.0,0.0,0.0,0.0,0.0,0.0,0.0,0.0,0.0,0.0,0.0,0.0,0.0,0.0,0.0,0.0,0.0,0.0,0.0,0.0,0.0,0.0,0.0,0.0,0.0,0.0,0.0,9.1808,9.1808,9.1808,9.1808,9.1808,9.1808,9.1808,9.1808,9.1808,9.1808,9.1808,9.1808,9.1808,9.1808,9.1808,9.1808,9.1808,9.1808,9.1808,9.1808,9.1808,9.1808,9.1808,9.189,9.2643,9.301,9.329,0.0,0.0,0.0,0.0,0.0,0.0,0.0,0.0,0.0,0.0,0.0,5.6085,5.5912,5.6288,5.6519,5.6447,5.7246,5.7937,5.8359,5.9088,5.9704,6.0205,0.0,6.0784,6.0784,6.0784,0.0,0.0,0.0,0.0,0.0,6.0784,6.0784,0.0,0.0,0.0,0.0,0.0,6.2633,6.3554,6.4282,6.4896,0.0,0.0,0.0,0.0,0.0,0.0,0.0,0.0,6.9052,6.9858,7.0783,0.0,0.0,0.0,7.4432,0.0,7.5394,7.5165,7.4814,0.0,7.5378,0.0,0.0,0.0,0.0,0.0,0.0,0.0,0.0,0.0,0.0,0.0,0.0,0.0,0.0,0.0,0.0,0.0,0.0,0.0,0.0,0.0,0.0,0.0,0.0,0.0,9.1808,9.1808,9.1808,9.1808,9.1808,9.1808,9.1808,9.1808,9.1808,9.1808,9.1808,9.1808,9.1808,9.1808,9.1808,9.1808,9.1808,9.1808,9.1808,9.1808,9.1808,9.1808,9.1808,9.2101,9.2556,9.2969,9.3685,9.4533,0.0,0.0,0.0,0.0,0.0,0.0,0.0,0.0,0.0,0.0,0.0,5.6368,5.6218,0.0,0.0,0.0,5.8128,5.8932,5.9781,5.9819,6.0127,6.0784,0.0,6.0784,6.0784,6.0784,0.0,0.0,0.0,0.0,6.0784,6.0784,6.0939,0.0,6.1132,0.0,0.0,0.0,0.0,6.4626,6.4857,6.5437,0.0,0.0,0.0,0.0,0.0,0.0,0.0,0.0,0.0,0.0,0.0,0.0,0.0,0.0,0.0,0.0,0.0,0.0,7.4939,7.5367,7.576,7.615,0.0,0.0,0.0,0.0,0.0,0.0,0.0,0.0,0.0,0.0,0.0,0.0,0.0,0.0,0.0,0.0,0.0,0.0,0.0,0.0,0.0,0.0,0.0,0.0,9.1808,9.1808,9.1808,9.1808,9.1808,9.1808,9.1808,9.1808,9.1808,9.1808,9.1808,9.1808,9.1808,9.1808,9.1808,9.1808,9.1808,9.1808,9.1808,9.1808,9.1808,9.1808,9.2056,9.2514,9.3161,9.3557,9.4469,9.5519,0.0,0.0,0.0,0.0,0.0,0.0,0.0,0.0,0.0,0.0,0.0,5.7192,5.7039,5.7748,5.8223,5.8243,5.8972,5.9819,6.0668,6.0745,6.0747,6.0784,0.0,0.0,0.0,0.0,0.0,0.0,0.0,0.0,6.0784,6.0784,6.1247,6.2019,6.2019,6.2059,6.2212,0.0,0.0,0.0,6.5514,6.6325,0.0,0.0,0.0,0.0,0.0,0.0,0.0,0.0,0.0,0.0,0.0,0.0,0.0,0.0,0.0,0.0,0.0,7.5315,0.0,7.5566,7.5926,0.0,0.0,0.0,0.0,0.0,0.0,0.0,0.0,0.0,0.0,0.0,0.0,0.0,0.0,0.0,0.0,0.0,0.0,0.0,0.0,0.0,0.0,0.0,0.0,0.0,9.1808,9.1808,9.1808,9.1808,9.1808,9.1808,9.1808,9.1808,9.1808,9.1808,9.1808,9.1808,9.1808,9.1808,9.1808,9.1808,9.1808,9.1808,9.1808,9.1808,9.1808,9.189,9.2721,9.3056,9.3295,9.4793,9.5414,9.5602,0.0,0.0,0.0,0.0,0.0,0.0,0.0,0.0,0.0,0.0,0.0,0.0,0.0,5.8598,5.907,5.9087,5.9858,6.0475,6.0784,6.0784,6.0784,6.0784,0.0,0.0,0.0,0.0,0.0,0.0,0.0,6.0784,6.0824,6.1364,6.1789,6.2098,6.2098,6.271,6.3745,6.4359,0.0,0.0,6.6555,6.717,0.0,0.0,0.0,0.0,0.0,0.0,0.0,0.0,0.0,0.0,0.0,0.0,0.0,0.0,0.0,0.0,0.0,0.0,0.0,7.6349,7.6595,7.6811,0.0,0.0,0.0,0.0,0.0,0.0,0.0,0.0,0.0,0.0,0.0,0.0,0.0,0.0,0.0,0.0,0.0,0.0,0.0,0.0,0.0,0.0,0.0,0.0,9.1808,9.1808,9.1808,9.1808,9.1808,9.1808,9.1808,9.1808,9.1808,9.1808,9.1808,9.1808,9.1808,9.1808,9.1808,9.1808,9.1808,9.1808,9.1808,9.1808,9.2138,9.2679,9.2973,9.3717,9.4697,9.5286,9.5846,9.6307,0.0,0.0,0.0,0.0,0.0,5.7001,0.0,0.0,0.0,0.0,0.0,0.0,0.0,0.0,5.9935,5.9935,6.0475,6.0784,6.0784,6.0784,6.0784,6.0784,6.0784,0.0,0.0,0.0,0.0,0.0,0.0,0.0,0.0,0.0,6.2404,6.294,6.294,0.0,0.0,0.0,0.0,6.7132,0.0,0.0,6.8778,0.0,0.0,0.0,0.0,0.0,0.0,0.0,0.0,0.0,0.0,0.0,0.0,0.0,0.0,0.0,0.0,0.0,0.0,0.0,0.0,7.7491,0.0,0.0,0.0,0.0,0.0,0.0,0.0,0.0,0.0,0.0,0.0,0.0,0.0,0.0,0.0,0.0,0.0,0.0,0.0,0.0,0.0,0.0,0.0,0.0,9.1808,9.1808,9.1808,9.1808,9.1808,9.1808,9.1808,9.1808,9.1808,9.1808,9.1808,9.1808,9.1808,9.1808,9.1808,9.1808,9.1808,9.1808,9.1808,9.2101,9.2597,9.3161,9.3681,9.457,9.5519,9.5809,9.6224,9.6685,0.0,5.7126,5.7413,5.8236,5.84,5.84,0.0,0.0,0.0,0.0,0.0,0.0,0.0,0.0,0.0,6.0784,6.0784,6.0784,6.0784,6.0784,6.0784,6.0784,6.0784,0.0,0.0,0.0,0.0,0.0,0.0,0.0,0.0,0.0,6.3055,0.0,6.4665,6.4665,6.478,0.0,6.7133,6.7239,0.0,6.8819,6.9576,0.0,0.0,0.0,7.1925,7.2554,0.0,0.0,0.0,0.0,0.0,0.0,0.0,0.0,0.0,0.0,0.0,0.0,0.0,0.0,0.0,0.0,7.8639,0.0,0.0,0.0,0.0,0.0,0.0,0.0,0.0,0.0,0.0,0.0,0.0,0.0,0.0,0.0,0.0,0.0,0.0,0.0,0.0,0.0,0.0,9.1808,9.1808,9.1808,9.1808,9.1808,9.1808,9.1808,9.1808,9.1808,9.1808,9.1808,9.1808,9.1808,9.1808,9.1808,9.1808,9.1808,9.1808,9.1803,9.1881,9.2757,9.3129,9.3286,9.4894,9.5514,9.5639,9.6395,9.6685,9.6685,5.7914,5.7954,5.8036,5.8284,5.8325,5.8516,0.0,0.0,0.0,0.0,0.0,0.0,0.0,0.0,0.0,6.0784,6.0784,6.0784,6.0784,6.0784,6.0784,6.0784,6.0784,6.0784,0.0,0.0,0.0,0.0,0.0,0.0,0.0,0.0,0.0,0.0,6.5862,6.6401,6.6441,6.6902,0.0,0.0,6.9062,6.9979,0.0,0.0,0.0,0.0,0.0,7.3307,0.0,0.0,7.4743,7.5428,0.0,0.0,0.0,0.0,0.0,0.0,7.5906,0.0,0.0,0.0,0.0,0.0,7.9024,7.9396,0.0,0.0,0.0,0.0,0.0,0.0,0.0,0.0,0.0,0.0,0.0,0.0,0.0,0.0,0.0,0.0,0.0,0.0,0.0,0.0,9.1808,9.1808,9.1808,9.1808,9.1808,9.1808,9.1808,9.1808,9.1808,9.1808,9.1808,9.1808,9.1808,9.1808,9.1808,9.1808,9.1808,9.1808,9.1808,9.2175,9.2748,9.2992,9.3451,9.4066,9.5106,9.5851,9.639,9.6639,9.6685,9.6685,5.8739,5.8818,5.8933,5.9279,5.9356,5.9511,0.0,0.0,0.0,0.0,0.0,0.0,0.0,0.0,0.0,0.0,6.0784,6.0784,6.0784,6.0784,6.0784,6.0784,6.0784,6.0784,0.0,0.0,0.0,0.0,0.0,0.0,0.0,0.0,0.0,0.0,0.0,0.0,0.0,0.0,0.0,0.0,7.0326,0.0,0.0,7.2132,7.2541,0.0,0.0,0.0,7.4666,7.4722,7.5162,0.0,0.0,0.0,0.0,0.0,0.0,0.0,0.0,0.0,0.0,0.0,0.0,0.0,7.9288,7.986,8.0379,0.0,0.0,0.0,0.0,0.0,0.0,0.0,0.0,0.0,0.0,0.0,0.0,0.0,0.0,0.0,0.0,0.0,0.0,0.0,9.1808,9.1808,9.1808,9.1808,9.1808,9.1808,9.1808,9.1808,9.1808,9.1808,9.1808,9.1808,9.1808,9.1808,9.1808,9.1808,9.1808,9.1808,9.1808,9.2308,9.3146,9.3473,9.4081,9.4893,9.5685,9.6307,9.6685,9.6685,9.6685,9.6685,0.0,5.9627,5.9896,6.0668,6.0784,0.0,0.0,0.0,0.0,0.0,0.0,0.0,0.0,0.0,0.0,0.0,6.0784,6.0784,6.0784,6.0784,6.0784,6.0784,6.0901,6.0939,6.0939,0.0,0.0,0.0,0.0,0.0,0.0,0.0,0.0,0.0,6.7316,6.8273,0.0,0.0,0.0,7.1213,7.1635,7.2227,0.0,0.0,7.3014,0.0,7.3689,7.4249,7.5038,7.5073,0.0,0.0,0.0,0.0,0.0,0.0,7.6037,0.0,0.0,0.0,0.0,0.0,0.0,0.0,7.9519,8.0311,8.0983,0.0,0.0,0.0,0.0,0.0,0.0,0.0,0.0,0.0,0.0,0.0,0.0,0.0,0.0,0.0,0.0,0.0,9.0933,9.1725,9.1808,9.1808,9.1808,9.1808,9.1808,9.1808,9.1808,9.1808,9.1808,9.1808,9.1808,9.1808,9.1808,9.1808,9.1808,9.1808,9.1808,9.1808,9.1918,9.2418,9.3297,9.4082,9.4861,9.5597,9.639,9.6685,9.6685,9.6685,9.6685,9.6685,6.0513,6.0553,6.0592,6.0784,0.0,0.0,0.0,0.0,0.0,0.0,0.0,0.0,0.0,0.0,0.0,0.0,0.0,6.0784,6.0784,6.0784,6.0784,6.0784,6.1479,6.1866,6.1866,6.2666,0.0,0.0,0.0,0.0,0.0,0.0,0.0,0.0,0.0,0.0,0.0,0.0,0.0,7.3494,7.2832,0.0,0.0,7.3104,7.3449,7.4002,7.4105,7.4344,7.4653,0.0,7.5052,7.5145,0.0,0.0,0.0,0.0,0.0,0.0,0.0,0.0,0.0,0.0,0.0,0.0,7.9702,8.0522,8.1223,0.0,0.0,0.0,0.0,0.0,0.0,0.0,0.0,0.0,0.0,0.0,0.0,0.0,0.0,0.0,0.0,9.0121,9.0933,9.1725,9.1808,9.1808,9.1808,9.1808,9.1808,9.1808,9.1808,9.1808,9.1808,9.1808,9.1808,9.1808,9.1808,9.1808,9.1808,9.1808,9.1808,9.184,9.2533,9.3299,9.4129,9.4945,9.5379,9.5597,9.639,9.6685,9.6685,9.6685,9.6685,9.6685,6.0784,6.0784,6.0784,6.0784,0.0,0.0,0.0,0.0,0.0,0.0,0.0,0.0,0.0,0.0,0.0,0.0,0.0,0.0,0.0,0.0,6.2004,6.2004,6.2459,6.2706,6.2706,6.3511,0.0,0.0,0.0,0.0,0.0,0.0,0.0,0.0,0.0,0.0,0.0,0.0,7.3405,7.4067,7.3471,0.0,7.3937,7.3758,7.3764,7.3887,7.4016,7.4142,7.4372,7.5046,7.537,0.0,0.0,7.6491,7.6755,0.0,7.7535,7.7808,0.0,0.0,0.0,7.9985,0.0,0.0,0.0,8.0961,8.1418,8.1208,0.0,0.0,0.0,0.0,0.0,0.0,0.0,0.0,0.0,0.0,0.0,0.0,0.0,0.0,0.0,8.9768,9.0515,9.1693,9.1808,9.1808,9.1808,9.1808,9.1808,9.1808,9.1808,9.1808,9.1808,9.1808,9.1808,9.1808,9.1808,9.1808,9.1808,9.1808,9.1808,9.1845,9.2721,9.3565,9.4377,9.5176,9.573,9.6141,9.6556,9.6685,9.6685,9.6685,9.6685,9.6685,6.0784,6.0784,6.0784,6.0784,0.0,0.0,0.0,0.0,0.0,0.0,0.0,0.0,0.0,0.0,0.0,0.0,0.0,0.0,0.0,0.0,0.0,6.3185,6.3577,6.3802,6.3815,6.4817,6.5665,0.0,0.0,0.0,0.0,0.0,0.0,0.0,0.0,0.0,0.0,0.0,0.0,7.4131,0.0,7.409,7.4415,7.4151,7.3861,7.3551,7.3802,7.4117,7.4495,7.5422,0.0,7.6168,7.6979,7.7422,0.0,0.0,0.0,0.0,0.0,0.0,0.0,0.0,0.0,8.0583,0.0,0.0,0.0,8.1826,0.0,0.0,0.0,0.0,0.0,0.0,0.0,0.0,0.0,0.0,0.0,0.0,0.0,0.0,0.0,8.9465,9.0231,9.1689,9.1808,9.1808,9.1808,9.1808,9.1808,9.1808,9.1808,9.1808,9.1808,9.1808,9.1808,9.1808,9.1808,9.1808,9.1808,9.1808,9.1808,9.1845,9.2905,9.3712,9.4377,9.5359,9.6093,9.6685,9.6685,9.6685,9.6685,9.6685,9.6685,9.6685,6.0784,6.0784,6.0784,6.0784,0.0,0.0,0.0,0.0,0.0,0.0,0.0,0.0,0.0,0.0,0.0,0.0,0.0,0.0,6.3109,0.0,0.0,0.0,6.4686,0.0,6.5591,6.7164,6.8007,6.8124,0.0,0.0,0.0,0.0,0.0,0.0,7.2434,0.0,0.0,0.0,7.4286,0.0,7.4511,7.4305,0.0,7.379,7.3506,7.3356,7.4077,7.4873,7.5661,0.0,7.6284,7.6583,0.0,7.713,0.0,0.0,0.0,0.0,0.0,0.0,0.0,0.0,8.0823,0.0,0.0,0.0,8.2322,8.1822,0.0,0.0,0.0,0.0,0.0,0.0,0.0,0.0,0.0,0.0,0.0,0.0,0.0,0.0,0.0,0.0,9.0832,9.1725,9.1808,9.1808,9.1808,9.1808,9.1808,9.1808,9.1808,9.1808,9.1808,9.1808,9.1808,9.1808,9.1808,9.1808,9.1808,9.1808,9.1808,9.1881,9.3496,9.4235,9.4419,9.5951,9.6612,9.6685,9.6685,9.6685,9.6685,9.6685,9.6685,9.6685,6.0784,6.0784,6.0784,6.0784,0.0,0.0,0.0,0.0,0.0,0.0,0.0,0.0,0.0,0.0,0.0,0.0,0.0,0.0,0.0,0.0,0.0,0.0,0.0,0.0,0.0,6.7983,6.862,6.9162,6.9627,0.0,0.0,0.0,0.0,0.0,7.3608,0.0,7.4778,0.0,0.0,0.0,0.0,0.0,0.0,7.4253,7.4313,7.4496,7.4748,7.5196,7.5797,0.0,7.6888,0.0,0.0,0.0,0.0,0.0,0.0,0.0,0.0,0.0,0.0,0.0,0.0,0.0,0.0,0.0,8.2345,0.0,0.0,0.0,0.0,0.0,0.0,0.0,0.0,0.0,0.0,0.0,0.0,0.0,0.0,0.0,0.0,0.0,0.0,0.0,0.0,9.1808,9.1808,9.1808,9.1808,9.1808,9.1808,9.1808,9.1808,9.1808,9.1808,9.1808,9.1808,9.1808,9.1808,9.1808,9.206,9.2611,9.379,9.4556,9.5066,9.6245,9.6685,9.6685,9.6685,9.6685,9.6685,9.6685,9.6685,9.6685,6.1093,0.0,0.0,0.0,0.0,0.0,0.0,0.0,0.0,0.0,0.0,0.0,6.4385,6.5416,0.0,0.0,0.0,6.7611,0.0,0.0,0.0,0.0,0.0,0.0,0.0,0.0,6.9959,7.0672,0.0,0.0,0.0,0.0,0.0,0.0,0.0,7.4738,7.5147,0.0,0.0,7.4761,7.5117,7.5227,7.5183,7.4856,7.5101,7.5568,7.5419,7.5701,7.6235,7.6944,7.7574,0.0,7.8941,0.0,0.0,0.0,0.0,0.0,8.0474,0.0,0.0,0.0,0.0,0.0,0.0,0.0,0.0,0.0,0.0,0.0,0.0,0.0,0.0,0.0,0.0,0.0,0.0,0.0,0.0,0.0,0.0,0.0,0.0,0.0,0.0,0.0,9.1684,9.1808,9.1808,9.1808,9.1808,9.1808,9.1808,9.1808,9.1808,9.1808,9.1808,9.1808,9.1808,9.1808,9.1808,9.1808,9.2285,9.312,9.3937,9.4777,9.557,9.6387,9.6685,9.6685,9.6685,9.6685,9.6685,9.6685,9.6685,9.6685,6.1904,6.1364,0.0,0.0,0.0,0.0,0.0,0.0,0.0,0.0,0.0,0.0,0.0,0.0,0.0,0.0,0.0,6.7298,6.7296,0.0,6.7387,0.0,0.0,0.0,0.0,0.0,0.0,7.3168,0.0,0.0,0.0,0.0,0.0,0.0,0.0,7.5175,7.4964,7.4667,7.4831,7.5357,7.4979,7.5443,7.6276,0.0,7.5515,7.6068,7.6064,0.0,0.0,7.7562,7.8403,0.0,0.0,0.0,0.0,0.0,0.0,0.0,0.0,0.0,0.0,0.0,0.0,0.0,0.0,0.0,8.2799,0.0,0.0,0.0,0.0,0.0,0.0,0.0,0.0,0.0,0.0,0.0,0.0,0.0,0.0,0.0,0.0,0.0,0.0,9.0575,9.1354,9.1808,9.1808,9.1808,9.1808,9.1808,9.1808,9.1808,9.1808,9.1808,9.1808,9.1808,9.1808,9.1808,9.1808,9.1808,9.2285,9.312,9.3937,9.4777,9.557,9.6387,9.6685,9.6685,9.6685,9.6685,9.6685,9.6685,9.6685,9.6685,0.0,0.0,0.0,0.0,0.0,0.0,0.0,6.4842,0.0,0.0,0.0,0.0,0.0,0.0,6.8814,0.0,0.0,7.0153,7.0153,7.0153,0.0,0.0,0.0,7.1534,0.0,0.0,0.0,0.0,0.0,0.0,7.4244,7.4971,7.5339,0.0,0.0,7.5408,0.0,0.0,0.0,0.0,0.0,7.6692,7.7838,0.0,0.0,7.7745,7.7745,7.8359,0.0,7.9185,7.9518,7.9978,8.0081,8.0363,8.0725,8.0864,8.1099,0.0,0.0,0.0,8.2116,8.2116,0.0,0.0,0.0,0.0,0.0,0.0,0.0,0.0,0.0,0.0,0.0,0.0,0.0,0.0,0.0,0.0,0.0,0.0,0.0,0.0,0.0,0.0,0.0,9.0542,9.1345,9.1808,0.0,9.1808,9.1808,9.1808,9.1808,9.1808,9.1808,9.1808,9.1808,9.1808,9.1808,9.1808,9.1808,9.1808,9.2579,9.39,9.4194,9.5075,9.6313,9.6575,9.6685,9.6685,9.6685,9.6685,9.6685,9.6685,9.6685,9.6685,6.4086,0.0,0.0,0.0,0.0,0.0,0.0,0.0,0.0,0.0,6.8307,0.0,6.8485,0.0,7.0091,0.0,7.0814,7.1363,7.1363,7.1363,0.0,0.0,7.2023,0.0,0.0,0.0,0.0,0.0,0.0,7.4953,7.5008,7.549,7.5811,7.6039,0.0,0.0,0.0,0.0,7.6026,0.0,0.0,7.7841,0.0,0.0,7.8201,0.0,0.0,7.943,7.9917,7.9917,8.0206,8.0573,8.0676,8.0932,8.1225,8.1367,8.1536,8.1687,8.1687,8.207,0.0,0.0,8.2594,0.0,0.0,0.0,0.0,0.0,0.0,0.0,0.0,0.0,0.0,0.0,0.0,0.0,0.0,8.666,0.0,0.0,0.0,0.0,0.0,0.0,8.962,9.0138,9.1179,9.1808,0.0,0.0,9.1808,9.1808,9.1808,9.1808,9.1808,9.1808,9.1808,9.1808,9.1808,9.1808,9.1808,9.1808,9.2726,9.4309,9.4309,9.5222,9.6685,9.6685,9.6685,9.6685,9.6685,9.6685,9.6685,9.6685,9.6685,9.6685,0.0,0.0,0.0,0.0,6.4871,0.0,0.0,0.0,6.8253,0.0,6.9441,6.9942,7.0624,7.1064,7.1327,7.1321,7.1138,0.0,7.0994,7.0994,0.0,0.0,7.2132,7.2756,7.3196,0.0,0.0,0.0,0.0,0.0,7.5759,7.5759,7.6122,7.6735,7.653,0.0,7.7037,7.6502,7.6581,7.718,7.8374,7.8806,7.8813,7.9555,0.0,7.9926,7.9886,7.989,7.9926,7.9926,8.0499,8.1242,8.1242,8.1909,8.2665,8.2665,8.2709,8.275,8.275,8.2783,8.2783,8.2783,0.0,0.0,0.0,0.0,8.2557,0.0,0.0,0.0,0.0,0.0,0.0,0.0,0.0,0.0,0.0,0.0,0.0,0.0,0.0,0.0,0.0,8.8445,8.94,8.94,9.0881,9.1808,0.0,0.0,9.1808,9.1808,9.1808,9.1808,9.1808,9.1808,9.1808,9.1808,9.1808,9.1808,9.1808,9.1808,9.2726,9.4309,9.4309,9.5222,9.6685,9.6685,9.6685,9.6685,9.6685,9.6685,9.6685,9.6685,9.6685,9.6685,6.7662,6.7736,6.7928,0.0,0.0,6.792,0.0,0.0,0.0,0.0,7.0749,7.1026,7.0994,7.1461,7.1706,7.1606,7.2132,0.0,0.0,0.0,0.0,7.2629,7.2975,7.3308,7.3562,7.4133,0.0,7.4864,0.0,0.0,7.6452,7.6452,7.688,7.7656,0.0,0.0,7.787,7.7323,7.7561,7.84,7.9237,7.988,0.0,0.0,8.1048,8.1497,8.0905,8.1089,8.157,8.157,8.1741,8.1957,8.1957,8.21,8.2324,8.2324,8.2817,8.3355,8.3355,8.3826,8.4256,8.4256,8.4134,8.4047,0.0,0.0,0.0,0.0,0.0,0.0,0.0,0.0,0.0,0.0,0.0,0.0,0.0,0.0,0.0,8.6982,0.0,0.0,0.0,8.8445,8.94,8.94,9.0881,0.0,0.0,0.0,0.0,9.1808,9.1808,9.1808,9.1808,9.1808,9.1808,9.1808,9.1808,9.1808,9.1808,9.1808,9.2726,9.4309,9.4309,9.5222,9.6685,9.6685,9.6685,9.6685,9.6685,9.6685,9.6685,9.6685,9.6685,9.6685,6.9348,0.0,0.0,0.0,0.0,0.0,7.0719,0.0,0.0,7.1273,0.0,0.0,7.1554,7.1976,7.2223,7.2144,7.2863,0.0,0.0,0.0,0.0,7.3953,7.4086,7.4296,7.4596,7.4916,0.0,7.5625,0.0,0.0,7.7056,7.7006,7.7443,7.8233,0.0,7.8151,0.0,7.8738,7.8849,7.9313,8.0027,0.0,0.0,8.1375,8.2035,8.2659,8.2215,8.2109,8.2264,8.2627,8.2733,8.2806,8.3141,8.3255,8.3255,8.3255,8.3615,8.4024,8.4024,8.4383,8.4706,8.4706,8.4676,8.4605,8.4605,8.4605,8.4682,0.0,0.0,0.0,0.0,0.0,0.0,0.0,0.0,0.0,0.0,0.0,0.0,0.0,0.0,0.0,0.0,0.0,8.94,8.94,0.0,0.0,0.0,0.0,0.0,9.1808,9.1808,9.1808,9.1808,9.1808,9.1808,9.1808,9.1808,9.1808,9.1808,9.1808,9.2726,9.4309,9.4309,9.5222,9.6685,9.6685,9.6685,9.6685,9.6685,9.6685,9.6685,9.6685,9.6685,9.6685,0.0,0.0,0.0,0.0,0.0,0.0,0.0,7.2567,0.0,7.1891,0.0,7.2508,0.0,7.273,7.3005,0.0,0.0,7.3857,0.0,7.4507,7.4933,7.5077,7.5106,7.5296,7.5713,7.5885,0.0,0.0,0.0,0.0,7.7588,7.7432,7.7849,7.8696,0.0,0.0,0.0,8.027,8.0204,0.0,8.0828,8.1228,8.1375,8.2076,8.2843,8.3569,8.3569,8.3096,8.2631,8.3316,8.3569,8.3679,8.4384,8.4605,8.4605,8.4605,8.4682,8.4756,8.4756,8.4829,8.4898,8.4898,8.4898,8.4898,8.4898,8.4898,8.5123,8.5824,8.5971,0.0,0.0,0.0,0.0,0.0,0.0,0.0,0.0,0.0,0.0,0.0,0.0,0.0,0.0,0.0,0.0,0.0,0.0,0.0,0.0,0.0,0.0,9.1808,9.1808,0.0,9.1808,0.0,9.1808,9.1808,9.1808,9.1808,9.1808,9.1913,9.2836,9.4309,9.4414,9.5295,9.6685,9.6685,9.6685,9.6685,9.6685,9.6685,9.6685,9.6685,9.6685,9.6685,0.0,0.0,0.0,0.0,0.0,0.0,0.0,7.3355,7.2688,7.2259,7.3269,0.0,7.363,7.4154,7.4504,7.4504,7.4632,0.0,0.0,0.0,0.0,7.4948,7.504,7.5149,7.5232,7.5523,7.5824,0.0,0.0,0.0,0.0,0.0,7.8357,7.9279,7.9598,0.0,8.0449,8.0852,0.0,8.0861,8.1672,8.2402,8.2981,8.3132,8.3683,8.4384,8.4384,8.4311,8.4205,8.4348,8.4384,8.4421,8.4568,8.4605,8.4605,8.4605,8.5086,8.5608,8.5608,8.6077,8.6582,8.6582,8.6582,8.6582,8.6582,8.6582,8.6619,8.6766,8.6803,8.6839,8.6982,0.0,0.0,0.0,0.0,0.0,0.0,0.0,0.0,0.0,0.0,0.0,0.0,0.0,0.0,0.0,0.0,0.0,0.0,0.0,0.0,0.0,0.0,0.0,0.0,0.0,9.1808,9.1808,9.1808,9.1808,9.1808,9.2533,9.3382,9.4341,9.4992,9.5836,9.6685,9.6685,9.6685,9.6685,9.6685,9.6685,9.6685,9.6685,9.6685,9.6685,0.0,0.0,0.0,0.0,0.0,0.0,0.0,7.4776,0.0,7.3594,7.4222,7.4688,7.4538,7.4746,7.4907,7.4907,7.5274,7.5535,0.0,7.5898,7.6147,7.6147,7.6227,0.0,7.6398,0.0,7.6764,0.0,0.0,0.0,0.0,0.0,0.0,8.0402,0.0,8.0962,0.0,0.0,0.0,8.2284,8.2655,8.3316,8.4013,8.4013,8.4531,8.5237,8.5237,8.549,8.5779,8.5343,8.5237,8.5311,8.5706,8.5848,8.5848,8.5848,8.611,8.6407,8.6407,8.6693,8.6982,8.6982,8.6982,8.6982,8.6982,8.6982,8.6982,8.6982,8.6982,8.6982,8.6982,8.6982,0.0,0.0,0.0,0.0,0.0,0.0,0.0,0.0,0.0,0.0,0.0,0.0,0.0,0.0,0.0,0.0,0.0,0.0,0.0,0.0,0.0,0.0,0.0,0.0,0.0,9.1808,9.1808,9.1808,9.1845,9.2716,9.3529,9.4341,9.5139,9.5942,9.6685,9.6685,9.6685,9.6685,9.6685,9.6685,9.6685,9.6685,9.6685,9.6685,0.0,7.49,0.0,0.0,7.5712,0.0,0.0,7.5929,7.5628,7.4816,7.511,7.5356,7.5327,7.5385,7.5494,7.5682,7.6273,7.6717,7.6868,7.748,7.7839,7.7839,7.7839,7.7905,7.8075,7.8079,7.8185,0.0,0.0,0.0,0.0,0.0,0.0,0.0,0.0,0.0,0.0,0.0,8.2925,8.3422,8.3605,8.4123,8.4866,8.4866,8.5343,8.6045,8.6045,8.6477,8.6913,8.6261,8.6045,8.6155,8.6803,8.6982,8.6982,8.6982,8.6982,8.6982,8.6982,8.6982,8.6982,8.6982,8.6982,8.6982,8.6982,8.6982,8.6982,8.6982,8.6982,8.6982,8.6982,8.6982,0.0,0.0,0.0,0.0,0.0,0.0,0.0,0.0,0.0,0.0,0.0,0.0,0.0,0.0,0.0,0.0,0.0,0.0,0.0,0.0,0.0,9.1808,9.1808,0.0,9.1808,0.0,9.1808,9.1808,9.1845,9.2882,9.3689,9.4341,9.5322,9.6093,9.6685,9.6685,9.6685,9.6685,9.6685,9.6685,9.6685,9.6685,9.6685,9.6685,0.0,0.0,0.0,0.0,0.0,0.0,0.0,7.6048,7.6015,7.5174,7.5761,7.6195,7.602,7.664,7.7399,7.8185,7.8336,7.8666,7.9408,7.9518,7.9555,7.9555,7.9555,7.9563,7.9579,7.9579,7.9657,0.0,0.0,0.0,0.0,0.0,0.0,0.0,0.0,0.0,0.0,8.3035,8.3324,8.3458,8.4201,8.4976,8.5682,8.5682,8.6187,8.6876,8.6876,8.6949,8.6982,8.6913,8.6876,8.6913,8.6986,8.6982,8.6982,8.6982,8.6982,8.6982,8.6982,8.6982,8.6982,8.6982,8.6982,8.6982,8.6982,8.6982,8.6982,8.6982,8.6982,8.6982,8.6982,8.6982,8.6982,0.0,0.0,0.0,0.0,0.0,0.0,0.0,0.0,0.0,0.0,0.0,0.0,0.0,0.0,0.0,0.0,0.0,0.0,9.1808,0.0,9.1808,9.1808,9.1808,0.0,9.1808,9.1808,9.1808,9.1845,9.3446,9.4218,9.4382,9.5914,9.6644,9.6685,9.6685,9.6685,9.6685,9.6685,9.6685,9.6685,9.6685,9.6685,9.6685,0.0,0.0,0.0,0.0,0.0,0.0,0.0,7.7691,7.7877,7.7897,7.7804,7.7704,7.7606,7.8336,7.8923,7.9294,7.9331,7.9445,7.9779,7.9816,7.9816,7.9816,7.9816,7.9816,7.9816,7.9816,7.9844,0.0,0.0,0.0,0.0,0.0,0.0,0.0,0.0,8.2785,8.3047,8.3785,8.4384,8.4866,8.52,8.5788,8.6513,8.6513,8.6734,8.6982,8.6982,8.7316,8.7725,8.7725,8.7394,8.7092,8.7578,8.7725,8.7835,8.8303,8.8445,8.8445,8.8445,8.8445,8.8445,8.8445,8.8445,8.8445,8.8445,8.8445,8.8445,8.8445,8.8445,8.8445,8.8445,8.8445,8.8445,0.0,0.0,0.0,0.0,0.0,0.0,0.0,0.0,0.0,0.0,0.0,0.0,0.0,0.0,0.0,0.0,0.0,0.0,9.1808,0.0,9.1808,9.1808,9.1808,9.1808,9.1808,9.1808,9.1808,9.1845,9.3524,9.4846,9.5772,9.6428,9.6685,9.6685,9.6685,9.6685,9.6685,9.6685,9.6685,9.6685,9.6685,9.6685,9.6685,7.6404,0.0,7.7088,0.0,7.759,7.8061,7.8956,7.9098,7.9243,7.9758,7.9515,7.9213,7.8997,7.9445,7.9886,8.0139,8.0139,8.0249,8.0473,8.051,8.051,8.051,8.051,0.0,8.051,8.051,8.051,8.051,8.0613,0.0,0.0,0.0,0.0,0.0,8.3652,8.384,8.3826,8.4609,8.5274,8.5829,8.6045,8.6477,8.6982,8.6982,8.7133,8.7353,8.7353,8.7871,8.8569,8.8569,8.8197,8.7789,8.8381,8.8569,8.8679,8.9216,8.94,8.94,8.94,8.94,8.94,8.94,8.94,8.94,8.94,8.94,8.94,8.94,8.94,8.94,8.94,8.94,8.94,0.0,0.0,0.0,0.0,0.0,0.0,0.0,0.0,9.0326,9.0918,0.0,0.0,0.0,0.0,0.0,0.0,0.0,0.0,0.0,0.0,0.0,0.0,9.1808,9.1808,9.1808,9.1808,9.1932,9.2257,9.3887,9.541,9.6685,9.6685,9.6685,9.6685,9.6685,9.6685,9.6685,9.6685,9.6685,9.6685,9.6685,9.6685,9.6685,7.6804,7.7959,7.8925,7.8796,7.9417,7.9911,7.9803,7.9779,7.9779,7.9816,8.0461,8.0681,7.9886,7.9775,8.0106,8.0934,8.1008,8.1338,8.2121,8.2154,8.2154,0.0,0.0,8.2154,8.2154,8.2154,8.2154,8.2154,0.0,0.0,8.2198,0.0,8.3797,8.4572,8.4572,8.4572,8.4646,8.5421,8.5792,8.5865,8.666,8.6982,8.6982,8.6982,8.7504,8.8206,8.8206,8.8711,8.94,8.94,8.9363,8.9363,8.9363,8.94,8.94,8.94,8.94,8.94,8.94,8.94,8.94,8.94,8.94,8.94,8.94,8.94,8.94,8.94,8.94,8.94,8.94,8.94,8.94,8.94,0.0,0.0,0.0,0.0,0.0,0.0,9.1289,9.1771,9.1771,0.0,0.0,0.0,0.0,0.0,0.0,0.0,0.0,9.1808,9.1808,0.0,9.1808,9.1808,9.1808,9.1808,9.1808,9.2262,9.3129,9.4751,9.5943,9.6685,9.6685,9.6685,9.6685,9.6685,9.6685,9.6685,9.6685,9.6685,9.6685,9.6685,9.6685,9.6685,7.9016,7.9369,7.9624,7.951,7.9703,8.0047,8.0542,8.0608,8.0791,8.135,8.2145,8.2545,8.2288,8.175,8.153,0.0,8.2329,8.2724,0.0,8.354,8.3838,8.3838,8.3838,8.3838,8.3838,8.3838,8.3838,8.3838,0.0,0.0,0.0,8.4091,8.4348,8.4605,8.5164,8.5425,8.5457,8.6293,8.6623,8.6623,8.6913,8.7316,8.7839,8.7839,8.8307,8.9037,8.9037,8.9551,9.0216,9.0216,9.0583,9.1028,9.1028,9.0656,9.0326,9.0881,9.1028,9.1028,9.1028,9.1028,9.1028,9.1028,9.1028,9.1028,9.1028,9.1028,9.1028,9.1028,9.1028,9.1028,9.1028,9.1028,9.1028,9.1028,0.0,0.0,0.0,0.0,0.0,0.0,9.1657,9.1808,0.0,9.1808,0.0,0.0,0.0,0.0,0.0,0.0,0.0,0.0,9.1808,0.0,9.1808,9.1808,9.1808,9.1808,9.1808,9.2547,9.3933,9.5015,9.5935,9.6685,9.6685,9.6685,9.6685,9.6685,9.6685,9.6685,9.6685,9.6685,9.6685,9.6685,9.6685,9.6685,7.9932,8.0163,8.0356,8.0265,8.0506,8.0983,8.1774,8.1884,8.2182,8.2998,8.354,8.3866,8.3866,8.3398,0.0,8.3104,8.3577,0.0,8.3866,8.4307,8.4605,8.4605,8.4605,8.4605,8.4605,0.0,0.0,8.4605,8.4605,8.4756,8.5049,8.5049,8.5196,8.5518,8.604,8.6261,8.6261,8.6803,8.6982,8.7019,8.7316,8.7761,8.8243,8.8532,8.9152,8.9845,8.9845,9.0363,9.1065,9.1065,9.1363,9.1808,9.1808,9.1473,9.1143,9.1661,9.1808,9.1808,9.1808,9.1808,9.1808,9.1808,9.1808,9.1808,9.1808,9.1808,9.1808,9.1808,9.1808,9.1808,9.1808,9.1808,9.1808,9.1808,0.0,9.1808,0.0,0.0,0.0,0.0,0.0,0.0,0.0,9.1808,0.0,0.0,0.0,0.0,0.0,0.0,0.0,9.1808,9.1808,0.0,9.1808,9.1808,9.1808,9.1808,9.2459,9.3286,9.4328,9.5431,9.6224,9.6685,9.6685,9.6685,9.6685,9.6685,9.6685,9.6685,9.6685,9.6685,9.6685,9.6685,9.6685,9.6685,7.9963,8.0612,0.0,0.0,8.1819,0.0,8.3385,8.3491,8.3752,8.4495,8.4641,8.4678,8.4678,8.4715,8.4756,8.4756,0.0,0.0,0.0,8.4751,8.4756,8.4756,8.4756,0.0,8.4756,8.4756,8.4756,8.4756,8.4756,8.5159,8.5865,8.5865,8.6261,8.6982,8.6982,8.6982,8.6982,8.706,8.7092,8.7133,8.7949,8.8316,8.8459,8.9184,8.9991,9.0693,9.0693,9.1175,9.1808,9.1808,9.1808,9.1808,9.1808,9.1808,9.1808,9.1808,9.1808,9.1808,9.1808,9.1808,9.1808,9.1808,9.1808,9.1808,9.1808,9.1808,9.1808,9.1808,9.1808,9.1808,9.1808,9.1808,9.1808,9.1808,9.1808,9.1808,9.1808,0.0,0.0,0.0,0.0,0.0,0.0,9.1808,9.1808,0.0,0.0,0.0,0.0,0.0,9.1808,9.1808,9.1808,9.1808,9.1808,9.1808,9.1845,9.1918,9.3525,9.4328,9.4456,9.5993,9.6685,9.6685,9.6685,9.6685,9.6685,9.6685,9.6685,9.6685,9.6685,9.6685,9.6685,9.6685,9.6685,9.6685,0.0,0.0,8.2835,8.2835,8.3504,8.4095,8.4274,8.4307,8.4384,8.4572,8.5123,8.5531,8.5531,8.6073,8.6436,8.6436,8.5857,8.5531,8.5531,8.6077,8.6436,8.6436,8.6436,8.6436,8.6436,8.6436,8.6436,8.6436,8.6436,8.6546,8.6734,8.6734,8.6803,8.6982,8.6982,8.6982,8.7023,8.7651,8.7908,8.7986,8.8785,8.9482,9.0032,9.0248,9.0808,9.151,9.151,9.1657,9.1808,9.1808,9.1808,9.1808,9.1808,9.1808,9.1808,9.1808,9.1808,9.1808,9.1808,9.1808,9.1808,9.1808,9.1808,9.1808,9.1808,9.1808,9.1808,9.1808,9.1808,9.1808,9.1808,9.1808,9.1808,9.1808,9.1808,9.1808,9.1808,9.1808,0.0,0.0,9.1808,9.1808,9.1808,9.1808,9.1808,0.0,0.0,0.0,0.0,0.0,9.1808,9.1808,9.1808,9.1808,9.1808,9.1808,9.2134,9.279,9.3804,9.4626,9.526,9.6259,9.6685,9.6685,9.6685,9.6685,9.6685,9.6685,9.6685,9.6685,9.6685,9.6685,9.6685,9.6685,9.6685,9.6685,8.3292,8.365,8.394,8.394,8.4311,8.4719,8.509,8.5164,8.527,8.5632,8.6073,8.6334,8.6334,8.6734,8.6982,8.6982,8.6587,8.6334,8.6334,8.6766,8.6982,8.6982,8.6982,8.6982,8.6982,8.6982,8.6982,8.6982,8.6982,8.6982,8.6982,8.6982,8.6982,8.7019,8.739,8.7541,8.7614,8.8418,8.8748,8.8821,8.9624,9.0212,9.0624,9.1028,9.1436,9.1808,9.1808,9.1808,9.1808,9.1808,9.1808,9.1808,9.1808,9.1808,9.1808,9.1808,9.1808,9.1808,9.1808,9.1808,9.1808,9.1808,9.1808,9.1808,9.1808,9.1808,9.1808,9.1808,9.1808,9.1808,9.1808,9.1808,9.1808,9.1808,9.1808,9.1808,9.1808,9.1808,0.0,9.1808,9.1808,9.1808,9.1808,9.1808,9.1808,9.1808,0.0,0.0,9.1808,9.1808,9.1808,9.1808,9.1808,9.1808,9.1808,9.1808,9.2244,9.312,9.3937,9.4713,9.5534,9.6323,9.6685,9.6685,9.6685,9.6685,9.6685,9.6685,9.6685,9.6685,9.6685,9.6685,9.6685,9.6685,9.6685,9.6685,8.4605,8.4682,8.4792,8.4792,8.4866,8.5196,8.5861,8.5971,8.6224,8.6913,8.6982,8.6982,8.6982,8.6982,8.6982,8.6982,8.6982,8.6982,8.6982,8.6982,8.6982,8.6982,8.6982,8.6982,8.6982,8.6982,8.6982,8.6982,8.6982,8.706,8.717,8.717,8.7243,8.7386,8.8092,8.8385,8.8422,8.9257,8.9583,8.9657,9.0473,9.0771,9.0844,9.1551,9.1808,9.1808,9.1808,9.1808,9.1808,9.1808,9.1808,9.1808,9.1808,9.1808,9.1808,9.1808,9.1808,9.1808,9.1808,9.1808,9.1808,9.1808,9.1808,9.1808,9.1808,9.1808,9.1808,9.1808,9.1808,9.1808,9.1808,9.1808,9.1808,9.1808,9.1808,9.1808,9.1808,0.0,9.1808,9.1808,9.1808,9.1808,9.1808,9.1808,9.1808,9.1808,9.1808,0.0,0.0,9.1808,9.1808,9.1808,9.1808,9.1808,9.1808,9.1918,9.2427,9.3308,9.4084,9.4882,9.568,9.6387,9.6685,9.6685,9.6685,9.6685,9.6685,9.6685,9.6685,9.6685,9.6685,9.6685,9.6685,9.6685,9.6685,9.6685,8.4605,8.5164,8.5604,8.5604,8.6187,8.6656,8.6803,8.6803,8.6876,8.6986,8.6982,8.6982,8.6982,8.6982,8.6982,8.6982,8.6982,8.6982,8.6982,8.6982,8.6982,8.6982,8.6982,8.6982,8.6982,8.6982,8.6982,8.6982,8.6982,8.7353,8.8018,8.8018,8.8381,8.9033,8.9143,8.9216,8.9253,9.0065,9.04,9.0473,9.1289,9.162,9.1624,9.1734,9.1808,9.1808,9.1808,9.1808,9.1808,9.1808,9.1808,9.1808,9.1808,9.1808,9.1808,9.1808,9.1808,9.1808,9.1808,9.1808,9.1808,9.1808,9.1808,9.1808,9.1808,9.1808,9.1808,9.1808,9.1808,9.1808,9.1808,9.1808,9.1808,9.1808,9.1808,9.1808,9.1808,0.0,9.1808,9.1808,9.1808,9.1808,9.1808,9.1808,9.1808,9.1808,9.1808,9.1808,9.1808,9.1808,9.1808,9.1808,9.1808,9.1808,9.1808,9.2537,9.3308,9.4121,9.4919,9.5721,9.6534,9.6649,9.6685,9.6685,9.6685,9.6685,9.6685,9.6685,9.6685,9.6685,9.6685,9.6685,9.6685,9.6685,9.6685,9.6685,8.5889,8.6183,8.6444,8.6444,8.6766,8.6982,8.6982,8.6982,8.6982,8.6982,8.6982,8.6982,8.6982,8.6982,8.717,8.7614,8.7651,8.783,8.8266,8.7496,8.6982,8.6982,8.6982,8.7206,8.7651,8.7651,8.7867,8.8303,8.8303,8.8487,8.8858,8.8858,8.9037,8.9432,8.9845,9.0065,9.0101,9.0918,9.1248,9.1289,9.1661,9.1808,9.1808,9.1808,9.1808,9.1808,9.1808,9.1808,9.1808,9.1808,9.1808,9.1808,9.1808,9.1808,9.1808,9.1808,9.1808,9.1808,9.1808,9.1808,9.1808,9.1808,9.1808,9.1808,9.1808,9.1808,9.1808,9.1808,9.1808,9.1808,9.1808,9.1808,9.1808,9.1808,9.1808,0.0,0.0,9.1808,9.1808,9.1808,9.1808,9.1808,9.1808,9.1808,9.1808,9.1808,9.1808,9.1808,9.1808,9.1808,9.1808,9.1808,9.1808,9.1808,9.1808,9.2648,9.3492,9.4309,9.5139,9.5905,9.6685,9.6685,9.6685,9.6685,9.6685,9.6685,9.6685,9.6685,9.6685,9.6685,9.6685,9.6685,9.6685,9.6685,9.6685,9.6685,8.6982,8.6982,8.6982,8.6982,8.6982,8.6982,8.6982,8.6982,8.706,8.7243,8.728,8.7353,8.7532,8.7569,8.7794,8.8422,8.8495,8.8748,8.9363,8.8225,8.7569,8.7569,8.7569,8.7863,8.8459,8.8495,8.8785,8.94,8.94,8.951,8.9693,8.9693,8.9767,8.9991,9.0583,9.0881,9.0918,9.1551,9.1808,9.1808,9.1808,9.1808,9.1808,9.1808,9.1808,9.1808,9.1808,9.1808,9.1808,9.1808,9.1808,9.1808,9.1808,9.1808,9.1808,9.1808,9.1808,9.1808,9.1808,9.1808,9.1808,9.1808,9.1808,9.1808,9.1808,9.1808,9.1808,9.1808,9.1808,9.1808,9.1808,9.1808,9.1808,9.1808,0.0,0.0,0.0,9.1808,9.1808,9.1808,9.1808,9.1808,9.1808,9.1808,9.1808,9.1808,9.1808,9.1808,9.1808,9.1808,9.1808,9.1808,9.1808,9.1918,9.2097,9.2941,9.3786,9.4598,9.5396,9.6088,9.6685,9.6685,9.6685,9.6685,9.6685,9.6685,9.6685,9.6685,9.6685,9.6685,9.6685,9.6685,9.6685,9.6685,9.6685,9.6685,8.6982,8.6982,8.6982,8.6982,8.6982,8.6982,8.6982,8.6982,8.728,8.8018,8.8096,8.8385,8.9143,8.9216,8.9253,8.9326,8.9326,8.9326,8.94,8.929,8.9216,8.9216,8.9216,8.9253,8.9326,8.9326,8.9322,8.94,8.94,8.9767,9.051,9.051,9.0918,9.1624,9.1698,9.1698,9.1734,9.1771,9.1808,9.1808,9.1808,9.1808,9.1808,9.1808,9.1808,9.1808,9.1808,9.1808,9.1808,9.1808,9.1808,9.1808,9.1808,9.1808,9.1808,9.1808,9.1808,9.1808,9.1808,9.1808,9.1808,9.1808,9.1808,9.1808,9.1808,9.1808,9.1808,9.1808,9.1808,9.1808,9.1808,9.1808,9.1808,9.1808,0.0,0.0,9.1808,9.1808,9.1808,9.1808,9.1808,9.1808,9.1808,9.1808,9.1808,9.1808,9.1808,9.1808,9.1808,9.1808,9.1808,9.1808,9.1808,9.217,9.301,9.3827,9.463,9.5423,9.624,9.6649,9.6685,9.6685,9.6685,9.6685,9.6685,9.6685,9.6685,9.6685,9.6685,9.6685,9.6685,9.6685,9.6685,9.6685,9.6685,9.6685,8.6982,8.6982,8.6982,8.6982,8.7427,8.7725,8.7725,8.8161,8.8597,8.889,8.8927,8.9074,8.9363,8.94,8.9583,9.0101,9.0138,9.0363,9.0844,9.0881,9.0436,8.9436,8.94,8.962,9.0138,9.0138,9.04,9.0881,9.0881,9.1028,9.1326,9.1326,9.151,9.1808,9.1808,9.1808,9.1808,9.1808,9.1808,9.1808,9.1808,9.1808,9.1808,9.1808,9.1808,9.1808,9.1808,9.1808,9.1808,9.1808,9.1808,9.1808,9.1808,9.1808,9.1808,9.1808,9.1808,9.1808,9.1808,9.1808,9.1808,9.1808,9.1808,9.1808,9.1808,9.1808,9.1808,9.1808,9.1808,9.1808,9.1808,9.1808,9.1808,9.1808,0.0,9.1808,9.1808,9.1808,9.1808,9.1808,9.1808,9.1808,9.1808,9.1808,9.1808,9.1808,9.1808,9.1808,9.1808,9.1808,9.206,9.2574,9.2611,9.2758,9.3083,9.4405,9.5212,9.5496,9.6313,9.6685,9.6685,9.6685,9.6685,9.6685,9.6685,9.6685,9.6685,9.6685,9.6685,9.6685,9.6685,9.6685,9.6685,9.6685,9.6685,9.6685,8.6982,8.7206,8.739,8.739,8.8055,8.8569,8.8569,8.9037,8.9473,8.9734,8.9767,8.9877,9.0138,9.0138,9.04,9.0918,9.0991,9.1216,9.1771,9.1808,9.1326,9.0212,9.0138,9.04,9.0955,9.0991,9.1248,9.1808,9.1808,9.1808,9.1808,9.1808,9.1808,9.1808,9.1808,9.1808,9.1808,9.1808,9.1808,9.1808,9.1808,9.1808,9.1808,9.1808,9.1808,9.1808,9.1808,9.1808,9.1808,9.1808,9.1808,9.1808,9.1808,9.1808,9.1808,9.1808,9.1808,9.1808,9.1808,9.1808,9.1808,9.1808,9.1808,9.1808,9.1808,9.1808,9.1808,9.1808,9.1808,9.1808,9.1808,9.1808,9.1808,9.1808,9.1808,9.1808,9.1808,9.1808,9.1808,9.1808,9.1808,9.1808,9.1808,9.1808,9.1808,9.1808,9.1808,9.1808,9.1808,9.206,9.2464,9.3083,9.3597,9.3854,9.3854,9.4951,9.5648,9.5868,9.6424,9.6685,9.6685,9.6685,9.6685,9.6685,9.6685,9.6685,9.6685,9.6685,9.6685,9.6685,9.6685,9.6685,9.6685,9.6685,9.6685,9.6685,8.7019,8.7651,8.8206,8.8206,8.8858,8.94,8.94,8.94,8.9698,9.051,9.0624,9.0918,9.1698,9.1808,9.1808,9.1808,9.1808,9.1808,9.1808,9.1808,9.1808,9.1808,9.1808,9.1808,9.1808,9.1808,9.1808,9.1808,9.1808,9.1808,9.1808,9.1808,9.1808,9.1808,9.1808,9.1808,9.1808,9.1808,9.1808,9.1808,9.1808,9.1808,9.1808,9.1808,9.1808,9.1808,9.1808,9.1808,9.1808,9.1808,9.1808,9.1808,9.1808,9.1808,9.1808,9.1808,9.1808,9.1808,9.1808,9.1808,9.1808,9.1808,9.1808,9.1808,9.1808,9.1808,9.1808,9.1808,9.1808,9.1808,9.1808,9.1808,9.1808,9.1808,9.1808,9.1808,9.1808,9.1808,9.1808,9.1808,9.1808,9.1808,9.1808,9.1808,9.1808,9.1808,9.1808,9.1808,9.1808,9.2648,9.312,9.312,9.4657,9.5496,9.5496,9.5496,9.5905,9.6685,9.6685,9.6685,9.6685,9.6685,9.6685,9.6685,9.6685,9.6685,9.6685,9.6685,9.6685,9.6685,9.6685,9.6685,9.6685,9.6685,9.6685,9.6685,8.8556,8.8886,8.9037,8.9037,8.9698,9.0248,9.0248,9.0734,9.1179,9.14,9.1436,9.1546,9.1771,9.1808,9.1808,9.1808,9.1808,9.1808,9.1808,9.1808,9.1808,9.1808,9.1808,9.1808,9.1808,9.1808,9.1808,9.1808,9.1808,9.1808,9.1808,9.1808,9.1808,9.1808,9.1808,9.1808,9.1808,9.1808,9.1808,9.1808,9.1808,9.1808,9.1808,9.1808,9.1808,9.1808,9.1808,9.1808,9.1808,9.1808,9.1808,9.1808,9.1808,9.1808,9.1808,9.1808,9.1808,9.1808,9.1808,9.1808,9.1808,9.1808,9.1808,9.1808,9.1808,9.1808,9.1808,9.1808,9.1808,9.1808,9.1808,9.1808,9.1808,9.1808,9.1808,9.1808,9.1808,9.1808,9.1808,9.1808,9.1808,9.1808,9.1808,9.1808,9.1808,9.1808,9.1808,9.2065,9.268,9.2973,9.3634,9.4767,9.524,9.5758,9.635,9.635,9.646,9.6685,9.6685,9.6685,9.6685,9.6685,9.6685,9.6685,9.6685,9.6685,9.6685,9.6685,9.6685,9.6685,9.6685,9.6685,9.6685,9.6685,9.6685,9.6685,8.929,8.9657,8.9877,8.9877,9.0546,9.1065,9.1065,9.1473,9.1808,9.1808,9.1808,9.1808,9.1808,9.1808,9.1808,9.1808,9.1808,9.1808,9.1808,9.1808,9.1808,9.1808,9.1808,9.1808,9.1808,9.1808,9.1808,9.1808,9.1808,9.1808,9.1808,9.1808,9.1808,9.1808,9.1808,9.1808,9.1808,9.1808,9.1808,9.1808,9.1808,9.1808,9.1808,9.1808,9.1808,9.1808,9.1808,9.1808,9.1808,9.1808,9.1808,9.1808,9.1808,9.1808,9.1808,9.1808,9.1808,9.1808,9.1808,9.1808,9.1808,9.1808,9.1808,9.1808,9.1808,9.1808,9.1808,9.1808,9.1808,9.1808,9.1808,9.1808,9.1808,9.1808,9.1808,9.1808,9.1808,9.1808,9.1808,9.1808,9.1808,9.1808,9.1808,9.1808,9.1808,9.1808,9.2138,9.2533,9.3083,9.3703,9.451,9.546,9.5795,9.6199,9.6685,9.6685,9.6685,9.6685,9.6685,9.6685,9.6685,9.6685,9.6685,9.6685,9.6685,9.6685,9.6685,9.6685,9.6685,9.6685,9.6685,9.6685,9.6685,9.6685,9.6685,9.6685,8.9583,9.0212,9.0693,9.0693,9.1326,9.1808,9.1808,9.1808,9.1808,9.1808,9.1808,9.1808,9.1808,9.1808,9.1808,9.1808,9.1808,9.1808,9.1808,9.1808,9.1808,9.1808,9.1808,9.1808,9.1808,9.1808,9.1808,9.1808,9.1808,9.1808,9.1808,9.1808,9.1808,9.1808,9.1808,9.1808,9.1808,9.1808,9.1808,9.1808,9.1808,9.1808,9.1808,9.1808,9.1808,9.1808,9.1808,9.1808,9.1808,9.1808,9.1808,9.1808,9.1808,9.1808,9.1808,9.1808,9.1808,9.1808,9.1808,9.1808,9.1808,9.1808,9.1808,9.1808,9.1808,9.1808,9.1808,9.1808,9.1808,9.1808,9.1808,9.1808,9.1808,9.1808,9.1808,9.1808,9.1808,9.1808,9.1808,9.1808,9.1808,9.1808,9.1808,9.1881,9.1918,9.1918,9.2721,9.323,9.3304,9.4694,9.5533,9.5611,9.6313,9.6685,9.6685,9.6685,9.6685,9.6685,9.6685,9.6685,9.6685,9.6685,9.6685,9.6685,9.6685,9.6685,9.6685,9.6685,9.6685,9.6685,9.6685,9.6685,9.6685,9.6685,9.6685,9.6685,9.1175,9.1436,9.1551,9.1551,9.1698,9.1808,9.1808,9.1808,9.1808,9.1808,9.1808,9.1808,9.1808,9.1808,9.1808,9.1808,9.1808,9.1808,9.1808,9.1808,9.1808,9.1808,9.1808,9.1808,9.1808,9.1808,9.1808,9.1808,9.1808,9.1808,9.1808,9.1808,9.1808,9.1808,9.1808,9.1808,9.1808,9.1808,9.1808,9.1808,9.1808,9.1808,9.1808,9.1808,9.1808,9.1808,9.1808,9.1808,9.1808,9.1808,9.1808,9.1808,9.1808,9.1808,9.1808,9.1808,9.1808,9.1808,9.1808,9.1808,9.1808,9.1808,9.1808,9.1808,9.1808,9.1808,9.1808,9.1808,9.1808,9.1808,9.1808,9.1808,9.1808,9.1808,9.1808,9.1808,9.1808,9.1808,9.1808,9.1808,9.1808,9.1808,9.1808,9.2427,9.2831,9.2831,9.357,9.4299,9.4951,9.5313,9.5795,9.6424,9.6612,9.6685,9.6685,9.6685,9.6685,9.6685,9.6685,9.6685,9.6685,9.6685,9.6685,9.6685,9.6685,9.6685,9.6685,9.6685,9.6685,9.6685,9.6685,9.6685,9.6685,9.6685,9.6685,9.6685,9.1734,9.1808,9.1808,9.1808,9.1808,9.1808,9.1808,9.1808,9.1808,9.1808,9.1808,9.1808,9.1808,9.1808,9.1808,9.1808,9.1808,9.1808,9.1808,9.1808,9.1808,9.1808,9.1808,9.1808,9.1808,9.1808,9.1808,9.1808,9.1808,9.1808,9.1808,9.1808,9.1808,9.1808,9.1808,9.1808,9.1808,9.1808,9.1808,9.1808,9.1808,9.1808,9.1808,9.1808,9.1808,9.1808,9.1808,9.1808,9.1808,9.1808,9.1808,9.1808,9.1808,9.1808,9.1808,9.1808,9.1808,9.1808,9.1808,9.1808,9.1808,9.1808,9.1808,9.1808,9.1808,9.1808,9.1808,9.1808,9.1808,9.1808,9.1808,9.1808,9.1808,9.1808,9.1808,9.1808,9.1808,9.1808,9.1808,9.1808,9.1808,9.1955,9.2391,9.2827,9.3272,9.3639,9.441,9.5066,9.546,9.5868,9.6277,9.6681,9.6685,9.6685,9.6685,9.6685,9.6685,9.6685,9.6685,9.6685,9.6685,9.6685,9.6685,9.6685,9.6685,9.6685,9.6685,9.6685,9.6685,9.6685,9.6685,9.6685,9.6685,9.6685,9.6685,9.6685,9.1808,9.1808,9.1808,9.1808,9.1808,9.1808,9.1808,9.1808,9.1808,9.1808,9.1808,9.1808,9.1808,9.1808,9.1808,9.1808,9.1808,9.1808,9.1808,9.1808,9.1808,9.1808,9.1808,9.1808,9.1808,9.1808,9.1808,9.1808,9.1808,9.1808,9.1808,9.1808,9.1808,9.1808,9.1808,9.1808,9.1808,9.1808,9.1808,9.1808,9.1808,9.1808,9.1808,9.1808,9.1808,9.1808,9.1808,9.1808,9.1808,9.1808,9.1808,9.1808,9.1808,9.1808,9.1808,9.1808,9.1808,9.1808,9.1808,9.1808,9.1808,9.1808,9.1808,9.1808,9.1808,9.1808,9.1808,9.1808,9.1808,9.1808,9.1808,9.1808,9.1808,9.1808,9.1808,9.1808,9.1808,9.1808,9.1808,9.1808,9.1918,9.2354,9.323,9.3414,9.3781,9.4446,9.5249,9.5721,9.5721,9.635,9.6685,9.6685,9.6685,9.6685,9.6685,9.6685,9.6685,9.6685,9.6685,9.6685,9.6685,9.6685,9.6685,9.6685,9.6685,9.6685,9.6685,9.6685,9.6685,9.6685,9.6685,9.6685,9.6685,9.6685,9.6685,9.6685,9.1808,9.1808,9.1808,9.1808,9.1808,9.1808,9.1808,9.1808,9.1808,9.1808,9.1808,9.1808,9.1808,9.1808,9.1808,9.1808,9.1808,9.1808,9.1808,9.1808,9.1808,9.1808,9.1808,9.1808,9.1808,9.1808,9.1808,9.1808,9.1808,9.1808,9.1808,9.1808,9.1808,9.1808,9.1808,9.1808,9.1808,9.1808,9.1808,9.1808,9.1808,9.1808,9.1808,9.1808,9.1808,9.1808,9.1808,9.1808,9.1808,9.1808,9.1808,9.1808,9.1808,9.1808,9.1808,9.1808,9.1808,9.1808,9.1808,9.1808,9.1808,9.1808,9.1808,9.1808,9.1808,9.1808,9.1808,9.1808,9.1808,9.1808,9.1808,9.1808,9.1808,9.1808,9.1808,9.1808,9.1808,9.1808,9.1808,9.1808,9.2464,9.3235,9.4047,9.4772,9.5208,9.5318,9.6093,9.6534,9.6534,9.6649,9.6685,9.6685,9.6685,9.6685,9.6685,9.6685,9.6685,9.6685,9.6685,9.6685,9.6685,9.6685,9.6685,9.6685,9.6685,9.6685,9.6685,9.6685,9.6685,9.6685,9.6685,9.6685,9.6685,9.6685,9.6685,9.6685,9.1808,9.1808,9.1808,9.1808,9.1808,9.1808,9.1808,9.1808,9.1808,9.1808,9.1808,9.1808,9.1808,9.1808,9.1808,9.1808,9.1808,9.1808,9.1808,9.1808,9.1808,9.1808,9.1808,9.1808,9.1808,9.1808,9.1808,9.1808,9.1808,9.1808,9.1808,9.1808,9.1808,9.1808,9.1808,9.1808,9.1808,9.1808,9.1808,9.1808,9.1808,9.1808,9.1808,9.1808,9.1808,9.1808,9.1808,9.1808,9.1808,9.1808,9.1808,9.1808,9.1808,9.1808,9.1808,9.1808,9.1808,9.1808,9.1808,9.1808,9.1808,9.1808,9.1808,9.1808,9.1808,9.1808,9.1808,9.1808,9.1808,9.1808,9.1808,9.1808,9.1808,9.1808,9.1808,9.1808,9.1808,9.1808,9.1991,9.2464,9.3272,9.4079,9.4882,9.5281,9.5685,9.613,9.6502,9.6685,9.6685,9.6685,9.6685,9.6685,9.6685,9.6685,9.6685,9.6685,9.6685,9.6685,9.6685,9.6685,9.6685,9.6685,9.6685,9.6685,9.6685,9.6685,9.6685,9.6685,9.6685,9.6685,9.6685,9.6685,9.6685,9.6685,9.6685,9.6685]},{"header":{"parameterUnit":"m.s-1","parameterCategory":1,"la1":30.6,"la2":28.766,"lo1":-90.7593,"lo2":-88.6598,"dy":0.0162,"dx":0.0183,"nx":116,"ny":114,"refTime":"2024-02-13T06:00:00:Z","depth":0,"parameterNumber":3,"parameterNumberName":"V-component_of_WINDS"},"data":[0.0,0.0,0.0,0.0,0.0,0.0,0.0,0.0,0.0,0.0,0.0,0.0,0.0,0.0,0.0,0.0,0.0,0.0,0.0,0.0,0.0,0.0,0.0,0.0,0.0,0.0,0.0,0.0,0.0,0.0,0.0,0.0,0.0,0.0,0.0,0.0,0.0,0.0,0.0,0.0,0.0,0.0,0.0,0.0,0.0,0.0,0.0,0.0,0.0,0.0,0.0,0.0,0.0,0.0,0.0,0.0,0.0,0.0,0.0,0.0,0.0,0.0,0.0,0.0,0.0,0.0,0.0,0.0,0.0,0.0,0.0,0.0,0.0,0.0,0.0,0.0,0.0,0.0,0.0,0.0,0.0,0.0,0.0,0.0,0.0,0.0,0.0,0.0,0.0,0.0,0.0,0.0,0.0,0.0,0.0,0.0,0.0,0.0,0.0,0.0,0.0,0.0,0.0,0.0,0.0,0.0,0.0,0.0,0.0,0.0,0.0,0.0,0.0,0.0,0.0,0.0,0.0,0.0,0.0,0.0,0.0,0.0,0.0,0.0,0.0,0.0,0.0,0.0,0.0,0.0,0.0,0.0,0.0,0.0,0.0,0.0,0.0,0.0,0.0,0.0,0.0,0.0,0.0,0.0,0.0,0.0,0.0,0.0,0.0,0.0,0.0,0.0,0.0,0.0,0.0,0.0,0.0,0.0,0.0,0.0,0.0,0.0,0.0,0.0,0.0,0.0,0.0,0.0,0.0,0.0,0.0,0.0,0.0,0.0,0.0,0.0,0.0,0.0,0.0,0.0,0.0,0.0,0.0,0.0,0.0,0.0,0.0,0.0,0.0,0.0,0.0,0.0,0.0,0.0,0.0,0.0,0.0,0.0,0.0,0.0,0.0,0.0,0.0,0.0,0.0,0.0,0.0,0.0,0.0,0.0,0.0,0.0,0.0,0.0,0.0,0.0,0.0,0.0,0.0,0.0,0.0,0.0,0.0,0.0,0.0,0.0,0.0,0.0,0.0,0.0,0.0,0.0,0.0,0.0,0.0,0.0,0.0,0.0,0.0,0.0,0.0,0.0,0.0,0.0,0.0,0.0,0.0,0.0,0.0,0.0,0.0,0.0,0.0,0.0,0.0,0.0,0.0,0.0,0.0,0.0,0.0,0.0,0.0,0.0,0.0,0.0,0.0,0.0,0.0,0.0,0.0,0.0,0.0,0.0,0.0,0.0,0.0,0.0,0.0,0.0,0.0,0.0,0.0,0.0,0.0,0.0,0.0,0.0,0.0,0.0,0.0,0.0,0.0,0.0,0.0,0.0,0.0,0.0,0.0,0.0,0.0,0.0,0.0,0.0,0.0,0.0,0.0,0.0,0.0,0.0,0.0,0.0,0.0,0.0,0.0,0.0,0.0,0.0,0.0,0.0,0.0,0.0,0.0,0.0,0.0,0.0,0.0,0.0,0.0,0.0,0.0,0.0,0.0,0.0,0.0,0.0,0.0,0.0,0.0,0.0,0.0,0.0,0.0,0.0,0.0,0.0,0.0,0.0,0.0,0.0,0.0,0.0,0.0,0.0,0.0,0.0,0.0,0.0,0.0,0.0,0.0,0.0,0.0,0.0,0.0,0.0,0.0,0.0,0.0,0.0,0.0,0.0,0.0,0.0,0.0,0.0,0.0,0.0,0.0,0.0,0.0,0.0,0.0,0.0,0.0,0.0,0.0,0.0,0.0,0.0,0.0,0.0,0.0,0.0,0.0,0.0,0.0,0.0,0.0,0.0,0.0,0.0,0.0,0.0,0.0,0.0,0.0,0.0,0.0,0.0,0.0,0.0,0.0,0.0,0.0,0.0,0.0,0.0,0.0,0.0,0.0,0.0,0.0,0.0,0.0,0.0,0.0,0.0,0.0,0.0,0.0,0.0,0.0,0.0,0.0,0.0,0.0,0.0,0.0,0.0,0.0,0.0,0.0,0.0,0.0,0.0,0.0,0.0,0.0,0.0,0.0,0.0,0.0,0.0,0.0,0.0,0.0,0.0,0.0,0.0,0.0,0.0,0.0,0.0,0.0,0.0,0.0,0.0,0.0,0.0,0.0,0.0,0.0,0.0,0.0,0.0,0.0,0.0,0.0,0.0,0.0,0.0,0.0,0.0,0.0,0.0,0.0,0.0,0.0,0.0,0.0,0.0,0.0,0.0,0.0,0.0,0.0,0.0,0.0,0.0,0.0,0.0,0.0,0.0,0.0,0.0,0.0,0.0,0.0,0.0,0.0,0.0,0.0,0.0,0.0,0.0,0.0,0.0,0.0,0.0,0.0,0.0,0.0,0.0,0.0,0.0,0.0,0.0,0.0,0.0,0.0,0.0,0.0,0.0,0.0,0.0,0.0,0.0,0.0,0.0,0.0,0.0,0.0,0.0,0.0,0.0,0.0,0.0,0.0,0.0,0.0,0.0,0.0,0.0,0.0,0.0,0.0,0.0,0.0,0.0,0.0,0.0,0.0,0.0,0.0,0.0,0.0,0.0,0.0,0.0,0.0,0.0,0.0,0.0,0.0,0.0,0.0,0.0,0.0,0.0,0.0,0.0,0.0,0.0,0.0,0.0,0.0,0.0,0.0,0.0,0.0,0.0,0.0,0.0,0.0,0.0,0.0,0.0,0.0,0.0,0.0,0.0,0.0,0.0,0.0,0.0,0.0,0.0,0.0,0.0,0.0,0.0,0.0,0.0,0.0,0.0,0.0,0.0,0.0,0.0,0.0,0.0,0.0,0.0,0.0,0.0,0.0,0.0,0.0,0.0,0.0,0.0,0.0,0.0,0.0,0.0,0.0,0.0,0.0,0.0,0.0,0.0,0.0,0.0,0.0,0.0,0.0,0.0,0.0,0.0,0.0,0.0,0.0,0.0,0.0,0.0,0.0,0.0,0.0,0.0,0.0,0.0,0.0,0.0,0.0,0.0,0.0,0.0,0.0,0.0,0.0,0.0,0.0,0.0,0.0,0.0,0.0,0.0,0.0,0.0,0.0,0.0,0.0,0.0,0.0,0.0,0.0,0.0,0.0,0.0,0.0,0.0,0.0,0.0,0.0,0.0,0.0,0.0,0.0,0.0,0.0,0.0,0.0,0.0,0.0,0.0,0.0,0.0,0.0,0.0,0.0,0.0,0.0,0.0,0.0,0.0,0.0,0.0,0.0,0.0,0.0,0.0,0.0,0.0,0.0,0.0,0.0,0.0,0.0,0.0,0.0,0.0,0.0,0.0,0.0,0.0,0.0,0.0,0.0,0.0,0.0,0.0,0.0,0.0,0.0,0.0,0.0,0.0,0.0,0.0,0.0,0.0,0.0,0.0,0.0,0.0,0.0,0.0,0.0,0.0,0.0,0.0,0.0,0.0,0.0,0.0,0.0,0.0,0.0,0.0,0.0,0.0,0.0,0.0,0.0,0.0,0.0,0.0,0.0,0.0,0.0,0.0,0.0,0.0,0.0,0.0,0.0,0.0,0.0,0.0,0.0,0.0,0.0,0.0,0.0,0.0,0.0,0.0,0.0,0.0,0.0,0.0,0.0,0.0,0.0,0.0,0.0,0.0,0.0,0.0,0.0,0.0,0.0,0.0,0.0,0.0,0.0,0.0,0.0,0.0,0.0,0.0,0.0,0.0,0.0,0.0,0.0,0.0,0.0,0.0,0.0,0.0,0.0,0.0,0.0,0.0,0.0,0.0,0.0,0.0,0.0,0.0,0.0,0.0,0.0,0.0,0.0,0.0,0.0,0.0,0.0,0.0,0.0,0.0,0.0,0.0,0.0,0.0,0.0,0.0,0.0,0.0,0.0,0.0,0.0,0.0,0.0,0.0,0.0,0.0,0.0,0.0,0.0,0.0,0.0,0.0,0.0,0.0,0.0,0.0,0.0,0.0,0.0,0.0,0.0,0.0,0.0,0.0,0.0,0.0,0.0,0.0,0.0,0.0,0.0,0.0,0.0,0.0,0.0,0.0,0.0,0.0,0.0,0.0,0.0,0.0,0.0,0.0,0.0,0.0,0.0,0.0,0.0,0.0,0.0,0.0,0.0,0.0,0.0,0.0,0.0,0.0,0.0,0.0,0.0,0.0,0.0,0.0,0.0,0.0,0.0,0.0,0.0,0.0,0.0,0.0,0.0,0.0,0.0,0.0,0.0,0.0,0.0,0.0,0.0,0.0,0.0,0.0,0.0,0.0,0.0,0.0,0.0,0.0,0.0,0.0,0.0,0.0,0.0,0.0,0.0,0.0,0.0,0.0,0.0,0.0,0.0,0.0,0.0,0.0,0.0,0.0,0.0,0.0,0.0,0.0,0.0,0.0,0.0,0.0,0.0,0.0,0.0,0.0,0.0,0.0,0.0,0.0,0.0,0.0,0.0,0.0,0.0,0.0,0.0,0.0,0.0,0.0,0.0,0.0,0.0,0.0,0.0,0.0,0.0,0.0,0.0,0.0,0.0,0.0,0.0,0.0,0.0,0.0,0.0,0.0,0.0,0.0,0.0,0.0,0.0,0.0,0.0,0.0,0.0,0.0,0.0,0.0,0.0,0.0,0.0,0.0,0.0,0.0,0.0,0.0,0.0,0.0,0.0,0.0,0.0,0.0,0.0,0.0,0.0,0.0,0.0,0.0,0.0,0.0,0.0,0.0,0.0,0.0,0.0,0.0,0.0,0.0,0.0,0.0,0.0,0.0,0.0,0.0,0.0,0.0,0.0,0.0,0.0,0.0,0.0,0.0,0.0,0.0,0.0,0.0,0.0,0.0,0.0,0.0,0.0,0.0,0.0,0.0,0.0,0.0,0.0,0.0,0.0,0.0,0.0,0.0,0.0,0.0,0.0,0.0,0.0,0.0,0.0,0.0,0.0,0.0,0.0,0.0,0.0,0.0,0.0,0.0,0.0,0.0,0.0,0.0,0.0,0.0,0.0,0.0,0.0,0.0,0.0,0.0,0.0,0.0,0.0,0.0,0.0,0.0,0.0,0.0,0.0,0.0,0.0,0.0,0.0,0.0,0.0,0.0,0.0,0.0,0.0,0.0,0.0,0.0,0.0,0.0,0.0,0.0,0.0,0.0,0.0,0.0,0.0,0.0,0.0,0.0,0.0,0.0,0.0,0.0,0.0,0.0,0.0,0.0,0.0,0.0,0.0,0.0,0.0,0.0,0.0,0.0,0.0,0.0,0.0,0.0,0.0,0.0,0.0,0.0,0.0,0.0,0.0,0.0,0.0,0.0,0.0,0.0,0.0,0.0,0.0,0.0,0.0,0.0,0.0,0.0,0.0,0.0,0.0,0.0,0.0,0.0,0.0,0.0,0.0,0.0,0.0,0.0,0.0,0.0,0.0,0.0,0.0,0.0,0.0,0.0,0.0,0.0,0.0,0.0,0.0,0.0,0.0,0.0,0.0,0.0,0.0,0.0,0.0,0.0,0.0,0.0,0.0,0.0,0.0,0.0,0.0,0.0,0.0,0.0,0.0,0.0,0.0,0.0,0.0,0.0,0.0,0.0,0.0,0.0,0.0,0.0,0.0,0.0,0.0,0.0,0.0,0.0,0.0,0.0,0.0,0.0,0.0,0.0,0.0,0.0,0.0,0.0,0.0,0.0,0.0,0.0,0.0,0.0,0.0,0.0,0.0,0.0,0.0,0.0,0.0,0.0,0.0,0.0,0.0,0.0,0.0,0.0,0.0,0.0,0.0,0.0,0.0,0.0,0.0,0.0,0.0,0.0,0.0,0.0,0.0,0.0,0.0,0.0,0.0,0.0,0.0,0.0,0.0,0.0,0.0,0.0,0.0,0.0,0.0,0.0,0.0,0.0,0.0,0.0,0.0,0.0,0.0,0.0,0.0,0.0,0.0,0.0,0.0,0.0,0.0,0.0,0.0,0.0,0.0,0.0,0.0,0.0,0.0,0.0,0.0,0.0,0.0,0.0,0.0,0.0,0.0,0.0,0.0,0.0,0.0,0.0,0.0,0.0,0.0,0.0,0.0,0.0,0.0,0.0,0.0,0.0,0.0,0.0,0.0,0.0,0.0,0.0,0.0,0.0,0.0,0.0,0.0,0.0,0.0,0.0,0.0,0.0,0.0,0.0,0.0,0.0,1.0613,0.0,0.0,0.0,0.0,0.0,0.0,0.0,0.0,0.0,0.0,0.0,0.0,0.0,0.0,0.0,0.0,0.0,0.0,0.0,0.0,0.0,0.0,0.0,0.0,0.0,0.0,0.0,0.0,0.0,0.0,0.0,0.0,0.0,0.0,0.0,0.0,0.0,0.8465,0.8594,0.8594,0.8662,0.8798,0.8723,0.0,0.0,0.0,0.0,0.0,0.0,0.0,0.0,0.0,0.0,0.0,0.0,0.0,0.0,0.0,0.0,0.0,0.0,0.0,0.0,0.0,0.0,0.0,0.0,0.0,0.0,0.0,0.0,0.0,0.0,0.0,0.0,0.0,0.0,0.0,0.0,0.0,0.0,0.0,0.0,0.0,0.0,0.0,0.0,0.0,0.0,0.0,0.0,0.0,0.0,0.0,0.0,0.0,0.0,0.0,0.0,0.0,0.0,0.0,0.0,0.0,0.0,0.0,0.0,0.0,0.0,0.0,0.0,0.0,0.0,0.0,0.0,0.0,1.0701,0.0,0.0,0.0,0.0,0.0,0.0,0.0,0.0,0.0,0.0,0.0,0.0,0.0,0.0,0.0,0.0,0.0,0.0,0.0,0.0,0.0,0.0,0.0,0.7437,0.7554,0.7781,0.7822,0.7878,0.7994,0.8034,0.8047,0.8047,0.8234,0.8349,0.8369,0.8478,0.8601,0.8737,0.8737,0.8791,0.8906,0.8981,0.0,0.0,0.0,0.0,0.0,0.0,0.0,0.0,0.0,0.0,0.0,0.0,0.0,0.0,0.0,0.0,0.0,0.0,0.0,0.0,0.0,0.0,0.0,0.0,0.0,0.0,0.0,0.0,0.0,0.0,0.0,0.0,0.0,0.0,0.0,0.0,0.0,0.0,0.0,0.0,0.0,0.0,0.0,0.0,0.0,0.0,0.0,0.0,0.0,0.0,0.0,0.0,0.0,0.0,0.0,0.0,0.0,0.0,0.0,0.0,0.0,0.0,0.0,0.0,0.0,0.0,0.0,0.0,1.079,1.079,1.079,1.079,1.079,1.0748,1.0701,0.0,0.0,0.0,0.0,0.0,0.0,0.0,0.0,0.0,0.0,0.0,0.0,0.0,0.0,0.0,0.0,0.0,0.0,0.0,0.0,0.0,0.0,0.7603,0.7761,0.7795,0.7905,0.798,0.8001,0.8167,0.8261,0.8261,0.8397,0.8533,0.8642,0.8662,0.8743,0.8872,0.8872,0.8885,0.8906,0.9314,0.9504,0.949,0.9085,0.0,0.0,0.0,0.0,0.0,0.0,0.0,0.0,0.0,0.0,0.0,0.0,0.0,0.0,0.0,0.0,0.0,0.0,0.0,0.0,0.0,0.0,0.0,0.0,0.0,0.0,0.0,0.0,0.0,0.0,0.0,0.0,0.0,0.0,0.0,0.0,0.0,0.0,0.0,0.0,0.0,0.0,0.0,0.9799,0.9925,0.0,0.0,0.0,0.0,0.0,0.0,0.0,0.0,0.0,0.0,0.0,0.0,0.0,0.0,1.0701,1.0819,1.087,1.0879,1.1051,1.113,1.113,1.113,1.113,1.113,1.113,0.0,1.0701,1.0701,0.0,0.0,0.0,0.0,0.0,0.0,0.0,0.0,0.0,0.0,0.0,0.0,0.0,0.0,0.0,0.0,0.0,0.0,0.0,0.0,0.0,0.7727,0.783,0.7905,0.796,0.8047,0.8167,0.8254,0.8328,0.841,0.8546,0.8642,0.8703,0.8777,0.8975,0.9293,0.9482,0.9609,0.9695,1.0088,1.0267,1.0267,1.0264,1.0042,0.9688,0.9688,0.0,0.0,0.0,0.0,0.0,0.0,0.0,0.0,0.0,0.0,0.0,0.0,0.0,0.0,0.0,0.0,0.0,0.0,0.0,0.0,0.0,0.0,0.0,0.0,0.0,0.0,0.0,0.0,0.0,0.0,0.0,0.0,0.0,0.0,0.0,0.0,0.0,0.0,0.0,0.9872,0.9974,1.0153,1.0174,1.0228,0.0,0.0,0.0,0.0,0.0,0.0,0.0,0.0,0.0,1.0804,1.0919,1.0977,1.0977,1.1045,1.107,1.107,1.1157,1.12,1.12,1.12,1.12,1.12,1.12,1.1125,1.0977,1.0977,1.0977,1.0977,0.0,0.0,0.0,0.0,0.0,0.0,0.0,0.0,0.0,0.0,0.0,0.0,0.0,0.0,0.0,0.0,0.0,0.0,0.7781,0.7836,0.7891,0.7994,0.8047,0.814,0.8287,0.8369,0.8451,0.8546,0.8682,0.8791,0.8879,0.9092,0.9433,0.9909,1.0157,1.0374,1.0568,1.1027,1.1231,1.1254,1.1717,1.1415,1.0561,1.0561,1.0561,0.0,0.0,0.0,0.0,0.0,0.0,0.0,0.0,0.0,0.0,0.0,0.0,0.0,0.0,0.0,0.0,0.0,0.0,0.0,0.0,0.0,0.0,0.0,0.0,0.0,0.0,0.0,0.0,0.0,0.0,0.0,0.0,0.0,0.0,0.0,0.0,0.0,0.0,1.0076,1.0152,1.0333,1.0353,1.04,0.0,0.0,0.0,0.0,0.0,0.0,1.0753,1.0887,1.0977,1.0977,1.1113,1.122,1.1245,1.1295,1.1327,1.1352,1.141,1.1424,1.1424,1.1424,1.1424,1.1424,1.1424,1.1424,1.1417,1.1261,1.12,1.12,1.12,1.12,0.0,1.12,1.12,1.12,0.0,0.0,0.0,0.0,0.0,0.0,0.0,0.0,0.0,0.0,0.0,0.7782,0.7795,0.7918,0.7994,0.8001,0.8174,0.8287,0.8294,0.854,0.8682,0.8689,0.8818,0.9037,0.9361,0.9804,1.0271,1.074,1.0754,1.0928,1.1275,1.2051,1.2407,1.2446,1.3227,1.2717,1.1246,1.1246,1.1246,1.1217,0.0,0.0,0.0,0.0,0.0,0.0,0.0,0.0,0.0,0.0,0.0,0.0,0.0,0.0,0.0,0.0,0.0,0.0,0.0,0.0,0.0,0.0,0.0,0.0,0.0,0.0,0.0,0.0,0.0,0.0,0.0,0.0,0.0,0.0,0.0,0.0,0.0,0.0,0.0,1.0474,1.0488,0.0,0.0,0.0,0.0,1.0701,1.0819,1.0892,1.0892,1.1085,1.1177,1.1177,1.1193,1.1259,1.1391,1.1516,1.1633,1.1768,1.1954,1.205,1.205,1.205,1.205,1.205,1.205,1.205,1.2009,1.144,1.12,1.12,1.12,1.12,1.12,1.12,1.12,1.12,0.0,0.0,0.0,0.0,0.0,0.0,0.0,0.0,0.743,0.7514,0.7692,0.7836,0.7919,0.7967,0.8047,0.818,0.8261,0.8369,0.8547,0.8649,0.8838,0.9139,0.9279,0.9645,1.0293,1.1058,1.1604,1.1891,1.2276,1.2797,1.3433,1.3896,1.4316,1.4705,1.5207,1.5118,1.4507,1.334,1.2839,1.2832,1.2714,1.2409,0.0,0.0,0.0,0.0,0.0,0.0,0.0,0.0,0.0,0.0,0.0,0.0,0.0,0.0,0.0,0.0,0.0,0.0,0.0,0.0,0.0,0.0,0.0,0.0,0.0,0.0,0.0,0.0,0.0,0.0,0.0,0.0,0.0,0.0,0.0,0.0,0.0,1.0614,1.0628,0.0,0.0,1.0833,1.0882,1.1004,1.1074,1.1084,1.1084,1.1321,1.1457,1.1457,1.1667,1.1805,1.185,1.1905,1.195,1.1988,1.207,1.2098,1.2104,1.219,1.2228,1.2235,1.2324,1.2364,1.2334,1.2133,1.193,1.1778,1.1778,1.1778,1.1778,1.1778,1.1778,1.1778,0.0,0.0,0.0,0.0,0.0,0.0,0.0,0.0,0.752,0.7651,0.7789,0.7905,0.7994,0.806,0.8154,0.8287,0.8383,0.8506,0.8689,0.8845,0.9146,0.9613,1.0174,1.0755,1.1356,1.2291,1.2961,1.334,1.386,1.4495,1.5207,1.5496,1.5909,1.6422,1.6732,1.6959,1.6995,1.579,1.4972,1.4465,1.4244,1.3841,1.3278,0.0,0.0,0.0,0.0,0.0,0.0,0.0,0.0,0.0,0.0,0.0,0.0,0.0,0.0,0.0,0.0,0.0,0.0,0.0,0.0,0.0,0.0,0.0,0.0,0.0,0.0,0.0,0.0,0.0,0.0,0.0,0.0,0.0,0.0,0.0,1.0614,1.0753,1.0774,1.0828,1.0992,1.1006,1.1063,1.1193,1.141,1.148,1.134,1.1741,1.1914,1.1769,1.1977,1.2136,1.2228,1.2228,1.2292,1.2404,1.2404,1.2404,1.2404,1.2496,1.2534,1.2541,1.2626,1.2667,1.2667,1.2667,1.2561,1.239,1.2279,1.2228,1.2228,1.2228,1.2228,1.2228,0.0,0.0,0.0,0.0,0.0,0.0,0.0,0.7514,0.7652,0.7782,0.7918,0.8001,0.8001,0.818,0.8307,0.8301,0.8547,0.8703,0.8716,0.916,0.9648,1.0154,1.1513,1.2372,1.2566,1.3515,1.4353,1.507,1.5422,1.5896,1.6487,1.6816,1.7167,1.7507,1.7761,1.8092,1.8453,1.8441,1.7536,1.606,1.544,1.4977,1.4572,0.0,0.0,0.0,0.0,0.0,0.0,0.0,0.0,0.0,0.0,0.0,0.0,0.0,0.0,0.0,0.0,0.0,0.0,0.0,0.0,0.0,0.0,0.0,0.0,0.0,0.0,0.0,0.0,0.0,0.0,0.0,0.0,0.0,1.0701,1.0699,1.0745,1.0877,1.0912,1.1016,1.121,1.1239,1.1248,1.1261,1.1873,1.2059,1.1669,1.2342,1.2559,1.2167,1.2162,1.2296,1.2554,1.2563,1.2723,1.3043,1.3043,1.3043,1.3043,1.3033,1.305,1.305,1.304,1.3036,1.3026,1.3016,1.3006,1.2972,1.2647,1.2515,1.2515,1.2515,1.2515,1.2515,0.0,0.0,0.0,0.0,0.0,0.0,0.0,0.7596,0.7761,0.7795,0.7918,0.8001,0.8001,0.818,0.8335,0.8437,0.8601,0.8845,0.9181,0.9648,1.0497,1.1779,1.3106,1.3964,1.431,1.5517,1.6338,1.674,1.7322,1.7892,1.8421,1.8526,1.8854,1.9353,1.9436,1.9539,1.9616,1.9438,1.9091,1.859,1.7498,1.6767,1.6222,0.0,0.0,0.0,0.0,0.0,0.0,0.0,0.0,0.0,0.0,0.0,0.0,0.0,0.0,0.0,0.0,0.0,0.0,0.0,0.0,0.0,0.0,0.0,0.0,0.0,0.0,0.0,0.0,0.0,0.0,0.0,0.0,1.0813,1.0713,1.0779,1.0858,1.0899,1.1241,1.1597,1.1899,1.2194,1.2464,1.2705,1.2892,1.2952,1.284,1.3262,1.3448,1.3343,1.3569,1.373,1.3798,1.3808,1.3851,1.3946,1.3946,1.3946,1.3946,1.404,1.4091,1.4078,1.3878,1.3795,1.3774,1.3435,1.3292,1.3258,1.2969,1.2854,1.2854,1.2854,1.2854,1.2854,0.0,0.0,0.0,0.0,0.0,0.0,0.0,0.7665,0.7822,0.7871,0.7953,0.8034,0.8114,0.8281,0.8437,0.8574,0.8831,0.916,0.954,1.0692,1.1943,0.0,0.0,1.5596,1.5826,1.71,1.7896,1.8146,1.868,1.9161,1.9577,1.9577,1.9838,2.0313,2.0313,2.0393,2.0515,2.0349,2.0286,2.0203,1.9331,1.8407,1.7465,1.6743,1.5817,1.4814,1.4091,1.3236,1.2417,1.2079,0.0,0.0,0.0,0.0,0.0,0.0,0.0,0.0,0.0,0.0,0.0,0.0,0.0,0.0,0.0,0.0,0.0,0.0,0.0,0.0,0.0,0.0,0.0,0.0,1.1104,1.1203,1.1346,1.1287,1.132,1.1537,1.1921,1.2336,1.2754,1.3071,1.3451,1.3895,1.4319,1.4447,1.4187,1.4761,1.4932,1.4571,1.4746,1.4868,1.4926,1.4926,1.4957,1.5006,1.5104,1.5135,1.5143,1.5136,1.513,0.0,1.4756,1.4601,1.458,1.4308,1.4196,0.0,0.0,0.0,0.0,0.0,1.3166,1.3166,0.0,0.0,0.0,0.0,0.0,0.0,0.0,0.774,0.7864,0.7987,0.8001,0.808,0.8281,0.8417,0.8573,0.8743,0.9153,0.9603,1.0104,1.2062,1.3636,1.4599,1.6224,1.7129,1.7202,1.8366,1.909,1.9365,1.9689,1.9986,2.021,2.021,2.0377,2.0663,2.0663,2.0816,2.1101,2.1101,2.1101,2.1069,2.0777,1.9799,1.8465,1.8108,1.719,1.6071,1.5742,1.4761,1.3571,1.3241,0.0,0.0,0.0,0.0,0.0,0.0,0.0,0.0,0.0,0.0,0.0,0.0,0.0,0.0,0.0,0.0,0.0,0.0,0.0,0.0,0.0,0.0,0.0,0.0,1.1628,1.1869,1.2419,1.2275,1.2239,1.2564,1.287,1.3277,1.3852,1.4113,1.4523,1.52,1.6074,1.6365,0.0,0.0,0.0,0.0,0.0,1.6021,1.6154,1.6154,1.6245,1.6388,1.6553,1.6647,1.6644,1.6461,1.6353,1.6278,1.5817,1.5572,1.5519,1.5476,1.5433,1.5254,1.4021,1.3503,1.3451,1.3451,1.3451,0.0,0.0,0.0,0.0,0.0,0.0,0.0,0.0,0.7871,0.7967,0.8001,0.8001,0.808,0.8281,0.8417,0.8659,0.9066,0.9283,1.0186,1.2024,1.3245,1.4554,1.6035,1.7142,1.7943,1.8447,1.9419,2.0058,2.0326,2.0674,2.0866,2.0903,2.0903,2.0943,2.0998,2.0998,2.1038,2.1101,2.1101,2.1101,2.1093,2.103,2.0527,1.9768,1.9162,1.8302,1.7399,1.7102,1.6143,1.4964,1.4626,1.3883,1.2981,1.2241,0.0,0.0,0.0,0.0,0.0,0.0,0.0,0.0,0.0,0.0,0.0,0.0,0.0,0.0,0.0,0.0,0.0,0.0,0.0,0.0,1.1846,1.2402,1.3003,1.3589,1.4259,1.4318,1.3338,1.4076,1.4947,1.57,1.611,1.6786,1.794,1.8212,1.8407,1.8622,1.861,0.0,1.8346,1.8194,1.8187,1.8378,1.8378,1.85,1.8736,0.0,0.0,1.8801,1.8764,1.8539,1.8157,1.7682,1.7258,1.6895,1.6557,1.6206,1.5759,1.4763,1.4096,1.3724,1.3724,1.3724,1.3724,0.0,0.0,0.0,0.0,0.0,0.0,0.0,0.7918,0.8001,0.8001,0.8001,0.8101,0.8369,0.8458,0.8713,0.9253,1.0046,1.1336,1.3271,1.4409,1.5656,1.7143,1.8261,1.9041,1.9494,2.0266,2.0711,2.0848,2.1022,2.1101,2.1101,2.1101,2.1101,2.1101,2.1101,2.1101,2.1101,2.1101,2.1101,2.1101,2.1101,2.0926,2.0598,2.0095,1.9401,1.8682,1.8544,1.7727,1.6614,1.6115,1.5383,1.4506,1.344,1.2886,1.2516,0.0,0.0,0.0,0.0,0.0,0.0,0.0,0.0,0.0,0.0,0.0,0.0,0.0,0.0,1.1403,0.0,0.0,1.2381,1.2904,1.3653,1.4459,1.5326,1.6287,1.6388,1.5006,1.5889,1.6851,1.7483,1.8106,1.8835,1.9777,2.0262,2.0552,2.0649,2.0833,2.086,2.0657,2.0488,2.0455,2.0546,2.0546,2.0628,2.0751,2.0852,2.0974,2.1108,2.0962,2.0695,2.0326,1.986,1.939,1.8943,1.8735,1.8243,1.7532,1.6786,1.5561,1.4197,1.4197,1.4037,1.3795,0.0,0.0,0.0,0.0,0.0,0.0,0.0,0.7933,0.8001,0.8001,0.8034,0.8175,0.8465,0.8519,0.8815,0.9519,1.0861,1.2388,1.4069,1.5262,1.6534,1.794,1.9165,1.9933,2.0186,2.0794,2.1101,2.1101,2.1101,2.1101,2.1101,2.1101,2.1101,2.1101,2.1101,2.1101,2.1101,2.1101,2.1101,2.1101,2.1101,2.1101,2.1069,2.0792,2.0316,1.9799,1.9799,1.9156,1.821,1.7542,1.6896,1.6151,1.475,1.4071,1.3621,1.2758,1.2041,0.0,0.0,0.0,0.0,0.0,0.0,0.0,0.0,0.0,1.1763,1.1514,1.1847,1.222,1.2364,1.2909,1.3562,1.422,1.5123,1.6101,1.7126,1.8239,1.8553,1.7514,1.8049,1.8761,1.9398,2.0053,2.0744,2.154,2.2246,2.2639,2.2622,2.3042,2.3169,2.2907,2.2709,2.2634,2.2679,2.2734,2.2788,2.2844,2.3055,2.3266,2.3476,2.3261,2.2938,2.2529,2.1971,2.1513,2.1165,2.1075,2.0516,1.9685,1.9066,1.7393,1.5291,1.4909,1.4508,1.4122,0.0,0.0,0.0,0.0,0.0,0.0,0.0,0.0,0.8001,0.8001,0.816,0.8322,0.8485,0.8601,0.9088,1.0111,1.1277,1.2671,1.4353,1.5361,1.663,1.8272,1.928,1.9933,2.0189,2.0789,2.1101,2.1101,2.1101,2.1101,2.1101,2.1101,2.1101,2.1101,2.1101,2.1101,2.1101,2.1101,2.1101,2.1101,2.1101,2.1101,2.1101,2.1062,2.0808,2.0483,2.0483,2.003,1.9316,1.8652,1.813,1.7542,1.6183,1.5492,1.4928,1.3654,0.0,1.2486,1.1884,1.195,1.2189,1.223,1.2239,1.223,0.0,0.0,1.2069,1.238,1.2637,1.3002,1.3661,1.4414,1.5071,1.5452,1.6733,1.7899,1.8501,1.9901,2.0983,2.1238,2.0503,2.0453,2.1702,2.1891,2.2552,2.3985,2.4189,2.4521,2.5153,2.4856,2.4786,2.5052,2.4635,2.4517,2.4755,2.5004,2.5243,2.547,2.5735,2.5879,2.5903,2.5884,2.539,2.454,2.3631,2.322,2.3142,2.273,2.2206,2.1603,2.0705,1.9381,1.7777,1.6043,1.5355,1.5242,0.0,0.0,0.0,0.0,0.0,0.0,0.0,0.0,0.0,0.8001,0.8174,0.8349,0.8485,0.9005,0.9598,1.0242,1.1475,1.2878,1.4402,1.5713,1.7103,1.8616,1.9548,2.0184,2.0473,2.0887,2.1101,2.1101,2.1101,2.1101,2.1101,2.1101,2.1101,2.1101,2.1101,2.1101,2.1101,2.1101,2.1101,2.1101,2.1101,2.1101,2.1101,2.1101,2.1014,2.0887,2.0887,2.0586,0.0,0.0,1.91,1.8427,1.7252,1.6489,1.5808,1.462,1.3884,0.0,1.3095,1.312,0.0,0.0,1.381,1.3803,1.3767,1.3837,1.3948,1.4043,1.437,1.4787,1.5251,1.6062,1.6793,0.0,1.8738,2.0062,2.0638,2.1849,2.2869,2.3458,2.3106,2.2943,2.3268,2.3654,2.4238,2.5085,2.5369,2.5695,2.6163,2.6149,2.6187,2.6322,2.6222,2.6213,2.6314,2.6632,2.6842,2.6955,2.7069,2.7195,2.7359,2.7359,2.7056,2.6486,2.5824,2.5543,2.5498,2.5026,2.4518,2.392,2.2707,2.1501,2.0139,1.7679,1.6246,1.5473,0.0,0.0,0.0,0.0,0.0,0.0,0.0,0.0,0.0,0.0,0.8208,0.8417,0.8594,0.926,0.9858,1.0263,1.15,1.2866,1.4296,1.5798,1.7231,1.8576,1.9568,2.0235,2.0556,2.0922,2.1101,2.1101,2.1101,2.1101,2.1101,2.1101,2.1101,2.1101,2.1101,2.1101,2.1101,2.1101,2.1101,2.1101,2.1101,2.1101,2.1101,2.1101,2.1101,2.1101,2.1101,2.0943,0.0,0.0,1.9855,1.9208,1.8242,1.7394,1.6588,1.5614,1.4783,1.4194,1.4292,0.0,0.0,1.5284,1.5451,1.546,1.548,1.5635,1.579,1.5881,1.6249,1.6674,1.7031,1.7788,0.0,1.9075,2.0551,2.1862,2.2553,2.3531,2.4377,2.494,2.5106,2.5083,2.4874,2.5187,2.5541,2.5911,2.6291,2.6621,2.69,2.7181,2.7357,2.7449,2.7611,2.7695,2.7695,2.8036,2.82,2.82,2.8277,2.846,2.8733,2.8676,2.8558,2.8338,2.786,2.7631,2.7608,2.7266,2.6752,2.6052,2.4879,2.3644,2.2225,1.991,1.7856,1.622,0.0,0.0,0.0,0.0,0.0,0.0,0.0,0.0,0.0,0.0,0.0,0.0,0.0,0.9203,0.9651,1.025,1.1287,1.2543,1.4016,1.5429,1.6729,1.7884,1.9134,1.995,2.0203,2.0799,2.1101,2.1101,2.1101,2.1101,2.1101,2.1101,2.1101,2.1101,2.1101,2.1101,2.1101,2.1101,2.1101,2.1101,2.1101,2.1101,2.1101,2.1101,2.1101,2.1101,2.1101,0.0,2.103,2.0697,2.0361,1.9955,1.9264,1.8318,0.0,1.6653,1.5696,1.4939,0.0,0.0,1.6082,1.6693,1.6836,1.6915,1.7168,1.7083,1.7126,1.7778,1.8078,1.8409,1.9005,1.9608,2.0277,2.1001,2.1983,2.2977,2.391,2.4789,2.5443,2.573,2.6116,2.644,0.0,2.6378,2.6331,2.6723,2.7084,2.7375,2.7648,2.7973,2.8281,2.8545,2.8806,2.8955,2.8955,2.9282,2.945,2.945,2.9708,3.0013,3.0318,3.0126,3.0027,3.0005,2.9461,2.9229,2.9229,2.9206,2.866,2.7776,2.7215,2.5775,2.3902,2.2839,2.0612,1.8043,0.0,0.0,0.0,0.0,0.0,0.0,0.0,0.0,0.0,0.0,0.0,0.0,0.0,0.0,0.0,0.0,1.1149,1.2433,1.3689,1.5285,1.6712,1.785,1.8912,1.9696,2.0189,2.0615,2.0922,2.1101,2.1101,2.1101,2.1101,2.1101,2.1101,2.1101,2.1101,2.1101,2.1101,2.1101,2.1101,2.1101,2.1101,2.1101,2.1101,2.1101,2.1101,2.1101,0.0,0.0,2.1077,2.0967,2.0705,2.03,1.9639,1.9032,1.8382,1.744,1.6883,1.6696,1.7285,0.0,1.8075,1.873,1.8886,1.8897,1.8885,1.8972,1.9099,1.9224,1.9462,1.9796,2.0359,2.1061,2.1751,2.2362,2.3593,2.4597,2.4926,2.56,2.6102,2.6185,2.647,0.0,0.0,0.0,0.0,2.7354,2.7495,2.7786,2.827,2.8404,2.8591,2.8863,2.9168,2.9339,2.9339,2.9619,2.9884,3.0107,3.0366,3.0566,3.066,3.0603,3.0551,3.0551,3.0366,3.031,3.0275,2.9962,2.9637,2.9278,2.8429,2.7274,2.5962,2.4963,2.3336,2.1332,0.0,0.0,0.0,0.0,0.0,0.0,0.0,0.0,0.0,0.0,0.0,0.0,0.0,0.0,0.0,0.0,0.0,0.0,1.32,1.4752,1.6165,1.7345,1.8415,1.9327,2.0038,2.0475,2.0831,2.1101,2.1101,2.1101,2.1101,2.1101,2.1101,2.1101,2.1101,2.1101,2.1101,2.1101,2.1101,2.1101,2.1101,2.1101,2.1101,2.1101,2.1101,0.0,0.0,2.1101,2.1101,2.1101,2.088,2.0515,2.0094,1.956,1.8936,1.8067,1.7885,1.812,1.8813,1.9227,1.9639,2.0271,2.0512,2.058,2.0584,2.0799,2.0959,2.0855,2.1042,2.1312,2.1616,2.2285,2.2992,2.3578,2.4641,2.5479,2.5721,2.6128,2.6436,2.6533,2.6697,0.0,0.0,0.0,0.0,2.7669,2.7896,2.819,2.858,2.8794,2.9005,2.917,2.9486,2.9697,2.9815,2.9991,3.0232,3.0549,3.0808,3.093,3.0955,3.1074,3.1114,3.1114,3.1114,3.1114,3.1102,3.0799,3.0566,3.0319,2.9664,2.8807,2.7794,2.6766,2.5687,2.4271,0.0,0.0,0.0,0.0,0.0,0.0,0.0,0.0,0.0,0.0,0.0,0.0,0.0,0.0,0.0,0.0,0.0,0.0,1.2576,1.3859,1.5142,1.6404,1.7665,1.8781,1.9721,2.0354,2.0794,2.1074,2.1088,2.1101,2.1101,2.1101,2.1101,2.1101,2.1101,2.1101,2.1101,2.1101,2.1101,2.1101,2.1101,2.1101,2.1101,2.1101,2.1101,2.1101,2.1101,0.0,2.1101,2.1101,0.0,0.0,2.0594,1.9939,1.908,1.8644,1.8803,1.9246,1.9842,2.0281,2.0743,2.1353,2.1688,2.1939,2.2194,2.2435,2.2602,2.2528,2.2722,2.2864,0.0,0.0,2.3947,2.4613,2.5114,2.5645,2.6307,2.641,2.6507,0.0,0.0,0.0,0.0,0.0,0.0,2.7749,0.0,2.8607,2.8633,2.9189,2.951,2.9548,2.9793,3.0087,3.0426,3.0428,3.0564,3.0822,3.1104,3.1226,3.1239,3.1555,3.1699,3.1699,3.1699,3.1699,3.1699,3.1699,3.1391,3.094,3.094,3.0344,2.9376,2.8332,2.7658,2.6768,0.0,0.0,0.0,0.0,0.0,0.0,0.0,0.0,0.0,0.0,0.0,0.0,0.0,0.0,0.0,0.0,0.0,0.0,1.19,1.3433,1.4763,1.5787,1.6805,1.7904,1.9107,1.9715,2.0272,2.0804,2.0994,2.1101,2.1101,2.1101,2.1101,2.1101,2.1101,2.1101,2.1101,2.1101,2.1101,2.1101,2.1101,2.1101,2.1101,2.1101,2.1101,2.1101,0.0,0.0,0.0,0.0,0.0,0.0,0.0,2.039,2.0117,1.9992,2.0352,2.0873,2.1272,2.1619,2.2005,2.2648,2.2867,2.292,2.2943,2.2924,2.2887,2.2806,2.2771,2.2846,0.0,0.0,0.0,2.4898,2.5391,0.0,2.6323,2.6563,0.0,0.0,0.0,2.7535,2.7693,2.811,0.0,0.0,2.8513,2.8791,2.9243,2.9417,2.9708,3.0161,3.0241,3.0404,3.0698,3.0902,3.1024,3.1104,3.141,3.1568,3.158,3.166,3.1699,3.1699,3.1699,3.1699,3.1699,3.1699,3.1616,3.1511,3.1511,3.1213,3.0748,3.0119,2.9724,2.9175,0.0,0.0,0.0,0.0,0.0,0.0,0.0,0.0,0.0,0.0,0.0,0.0,0.0,0.0,0.0,0.0,0.0,0.0,0.0,1.2599,1.3756,1.4931,1.588,1.6966,1.821,1.9122,1.9883,2.048,2.0899,2.1101,2.1101,2.1101,2.1101,2.1101,2.1101,2.1101,2.1101,2.1101,2.1101,0.0,0.0,2.1101,2.1101,2.1101,2.1101,0.0,0.0,0.0,0.0,0.0,0.0,2.0784,2.0642,2.0645,2.0709,2.0682,0.0,2.1717,2.2167,2.2518,2.2862,2.3394,2.3612,2.3639,2.3421,2.3355,2.3243,2.2842,2.2761,0.0,0.0,0.0,0.0,0.0,0.0,0.0,2.6337,2.663,2.6847,0.0,2.7415,0.0,2.807,2.8393,2.8711,0.0,2.8991,2.9138,2.947,2.9749,3.0054,3.04,3.0511,3.07,3.0971,3.1276,3.1423,3.1423,3.1607,3.1699,3.1701,3.1809,3.1888,3.1876,0.0,3.2087,3.2087,3.2087,3.2087,3.2087,3.2087,3.2001,3.1807,3.131,3.106,3.0759,0.0,0.0,0.0,0.0,0.0,0.0,0.0,0.0,0.0,0.0,0.0,0.0,0.0,0.0,0.0,0.0,0.0,0.0,0.0,0.0,0.0,1.3941,1.4939,1.6038,1.7251,1.8492,1.945,2.0156,2.0705,2.1022,2.1101,2.1101,2.1101,2.1101,2.1101,2.1101,2.1101,2.1101,2.1101,2.1101,2.1101,2.1101,2.1101,0.0,0.0,0.0,0.0,0.0,0.0,0.0,2.103,2.1067,2.0813,2.0927,2.112,2.1114,2.1548,2.2156,2.271,2.3077,2.3389,2.3759,2.3995,2.4036,2.3721,2.3657,2.3432,2.2719,0.0,2.2528,2.2216,0.0,2.374,2.4308,0.0,2.5805,2.6301,2.6654,2.6987,2.7302,2.7626,2.803,2.854,2.866,2.8938,2.9457,2.9564,2.9628,2.9628,3.0121,3.0428,3.0497,3.0767,3.1022,3.1253,3.1555,3.1726,3.1754,3.1754,3.1779,3.1833,3.2063,3.217,3.2171,0.0,0.0,3.2594,3.2594,3.2594,3.2594,3.2594,3.2621,3.2599,3.2135,3.1977,3.1869,0.0,0.0,0.0,0.0,0.0,0.0,0.0,0.0,0.0,0.0,0.8615,0.0,0.0,0.0,0.0,0.0,0.0,0.0,0.0,0.0,0.0,0.0,1.4122,1.5364,1.6624,1.7633,1.8711,1.9863,0.0,2.0616,2.1101,2.1101,2.1101,2.1101,2.1101,2.1101,2.1101,2.1101,2.1101,2.1101,2.1101,2.1101,2.1101,0.0,0.0,0.0,0.0,0.0,0.0,0.0,2.0634,2.1133,2.1363,2.1605,2.1865,2.2083,2.2417,2.2799,2.3115,2.3266,2.3434,2.3995,2.3924,2.3743,2.3905,2.3358,0.0,0.0,0.0,2.177,2.1912,2.2101,0.0,2.374,0.0,0.0,0.0,0.0,2.7315,0.0,0.0,0.0,0.0,0.0,0.0,0.0,0.0,0.0,3.0241,3.0335,3.0604,3.1051,3.138,3.1567,3.162,3.166,3.1808,3.2024,3.2024,3.2182,3.2447,3.25,3.2502,3.2527,0.0,0.0,3.2594,3.2594,3.2594,3.2594,3.2594,3.2741,3.2918,3.2832,3.2929,3.303,0.0,0.0,0.0,0.0,0.0,0.0,0.0,0.0,0.0,0.0,0.8723,0.8831,0.0,0.0,0.0,0.0,0.0,0.0,0.0,0.0,0.0,0.0,0.0,0.0,0.0,0.0,0.0,0.0,0.0,0.0,0.0,0.0,0.0,0.0,0.0,0.0,2.1101,2.1101,2.1101,0.0,0.0,0.0,0.0,0.0,0.0,0.0,0.0,0.0,0.0,0.0,1.9783,2.0168,2.082,2.1359,2.1788,2.2062,2.2607,2.3166,2.3474,2.3665,2.387,2.4297,2.4102,2.3776,2.3619,0.0,0.0,0.0,0.0,2.0391,2.0515,0.0,0.0,0.0,0.0,0.0,0.0,0.0,0.0,0.0,0.0,0.0,0.0,0.0,0.0,0.0,0.0,0.0,3.0388,3.066,3.1009,3.145,3.162,3.1767,3.1903,3.1903,3.205,3.2356,3.2356,3.2448,3.2594,3.2742,3.2809,3.2823,0.0,0.0,3.3024,3.3024,3.3024,3.3024,3.3024,3.3092,3.3212,3.3212,3.3293,3.3351,0.0,0.0,0.0,0.0,0.0,0.0,0.0,0.8417,0.8546,0.8682,0.8818,0.8899,0.8899,0.8899,0.8899,0.0,0.0,0.0,0.0,0.0,0.0,0.0,0.0,0.0,0.0,0.0,0.0,0.0,0.0,0.0,0.0,0.0,0.0,0.0,0.0,0.0,0.0,0.0,2.1101,0.0,0.0,0.0,0.0,0.0,0.0,0.0,0.0,0.0,0.0,0.0,1.8647,1.8791,1.9646,2.0533,2.1354,2.1762,2.2496,2.3258,2.3581,2.3928,2.4239,2.4427,2.41,2.3598,2.3077,2.2099,0.0,0.0,0.0,1.9021,1.9021,0.0,0.0,0.0,0.0,0.0,0.0,0.0,0.0,0.0,0.0,0.0,0.0,0.0,0.0,0.0,0.0,0.0,0.0,3.1036,3.1423,3.1687,3.1754,3.1901,3.2104,3.2171,3.2369,3.2688,3.2688,3.2728,3.2782,3.2998,3.3079,3.3092,0.0,0.0,0.0,3.3401,3.3401,3.3401,3.3401,3.3401,3.3401,3.3401,3.3401,3.3401,0.0,0.0,0.0,0.0,0.0,0.0,0.0,0.8417,0.8546,0.8682,0.8818,0.8899,0.8899,0.8899,0.8899,0.0,0.0,0.0,0.0,0.0,0.0,0.0,0.0,0.0,0.0,0.0,0.0,0.0,0.0,0.0,0.0,0.0,0.0,0.0,0.0,0.0,0.0,0.0,0.0,0.0,0.0,0.0,0.0,0.0,0.0,0.0,0.0,0.0,0.0,0.0,0.0,1.7282,1.7798,1.9132,2.0672,2.1552,0.0,0.0,2.3181,2.3721,2.4184,2.4077,2.3475,2.2768,2.2234,0.0,0.0,0.0,0.0,0.0,0.0,0.0,0.0,0.0,0.0,2.3562,0.0,0.0,0.0,0.0,0.0,0.0,0.0,0.0,0.0,0.0,0.0,0.0,0.0,3.1462,3.1672,3.1699,3.1943,3.2078,3.2104,3.2408,3.2689,3.2957,3.2957,3.3092,3.3334,3.3348,3.3361,3.3361,0.0,0.0,0.0,3.3401,3.3401,3.3401,3.3401,3.3401,3.3401,3.3401,3.3401,3.3401,0.0,0.0,0.0,0.0,0.0,0.0,0.0,0.854,0.8669,0.8798,0.8865,0.8899,0.8899,0.8899,0.8899,0.0,0.0,0.0,0.0,0.0,0.0,0.0,0.0,0.0,0.0,0.0,0.0,0.0,0.0,0.0,0.0,0.0,0.0,0.0,0.0,0.0,0.0,0.0,0.0,0.0,0.0,0.0,0.0,0.0,0.0,0.0,0.0,0.0,0.0,0.0,0.0,0.0,1.6523,1.74,0.0,0.0,2.1505,2.2397,2.2738,2.3269,2.3717,2.3645,2.303,2.2327,2.1906,0.0,0.0,0.0,1.7334,1.6718,1.6482,0.0,0.0,0.0,0.0,0.0,2.4332,2.5762,2.7024,0.0,0.0,0.0,0.0,0.0,0.0,0.0,0.0,0.0,0.0,3.1634,3.1767,3.1943,3.2038,3.2278,3.2638,3.277,3.2984,3.324,3.324,3.3293,3.3401,3.3401,3.3401,3.3401,0.0,0.0,0.0,3.3401,3.3401,3.3401,3.3401,3.3401,3.3401,3.3401,3.3401,3.3401,0.0,0.0,0.0,0.0,0.0,0.0,0.8533,0.8642,0.875,0.8885,0.8899,0.8899,0.8899,0.8899,0.8899,0.8899,0.0,0.0,0.0,0.0,0.0,0.0,0.0,0.0,0.0,0.0,0.0,0.0,0.0,0.0,0.0,0.0,0.0,0.0,0.0,0.0,0.0,0.0,0.0,0.0,0.0,0.0,0.0,0.0,0.0,0.0,0.0,0.0,0.0,0.0,0.0,0.0,0.0,0.0,1.6518,0.0,2.0495,2.1594,2.1993,2.2562,2.3011,2.2899,2.2265,2.1542,0.0,0.0,1.8313,1.7146,1.633,1.569,1.5267,1.5917,1.6864,1.8033,1.9974,2.1915,2.3587,2.5334,2.6828,0.0,0.0,0.0,0.0,0.0,0.0,0.0,0.0,0.0,0.0,0.0,3.1903,3.2091,3.2265,3.2571,3.2998,3.3079,3.3213,3.3401,3.3401,3.3401,3.3401,3.3401,3.3401,0.0,0.0,0.0,0.0,3.3401,3.3401,3.3401,3.3401,3.3401,3.3401,3.3401,3.3401,3.3401,0.0,0.0,0.0,0.0,0.0,0.0,0.0,0.8703,0.875,0.8885,0.8899,0.8899,0.8899,0.8899,0.8899,0.8899,0.0,0.0,0.0,0.0,0.0,0.0,0.0,0.0,0.0,0.0,0.0,0.0,0.0,0.0,0.0,0.0,0.0,0.0,0.0,0.0,0.0,0.0,0.0,0.0,0.0,0.0,0.0,0.0,0.0,0.0,0.0,0.0,0.0,0.0,0.0,0.0,0.0,1.4199,1.5039,1.7654,1.9317,2.0403,2.081,2.1555,2.2116,2.1726,2.1011,2.0207,0.0,0.0,1.7069,1.6192,1.569,1.5257,1.4785,1.5422,1.6287,1.7173,1.9213,2.1348,2.3142,2.5184,2.6967,0.0,0.0,0.0,0.0,0.0,0.0,0.0,0.0,0.0,0.0,0.0,3.2104,3.2104,3.2678,3.2998,3.2998,3.3267,3.3401,3.3401,3.3401,3.3401,3.3401,3.3401,0.0,0.0,0.0,0.0,0.0,3.3401,3.3401,3.3401,3.3401,3.3401,3.3401,3.3401,3.3401,3.3401,0.0,0.0,0.0,0.0,0.0,0.0,0.0,0.8777,0.8852,0.8899,0.8899,0.8899,0.8899,0.8899,0.8899,0.8899,0.0,0.0,0.0,0.0,0.0,0.0,0.0,0.0,0.0,0.0,0.0,0.0,0.0,0.0,0.0,0.0,0.0,0.0,0.0,0.0,0.0,0.0,0.0,0.0,0.0,0.0,0.0,0.0,0.0,0.0,0.0,0.0,0.0,0.0,0.0,0.0,0.0,0.0,0.0,1.5264,1.7162,1.8813,1.9224,1.9931,2.0532,2.04,1.9757,1.9096,1.8847,0.0,1.6311,1.5711,1.501,1.4377,1.3904,1.4524,1.5404,1.627,1.8589,2.0803,0.0,0.0,0.0,0.0,0.0,0.0,0.0,0.0,0.0,0.0,0.0,0.0,0.0,0.0,3.2528,3.2704,3.2904,3.3079,3.3267,3.336,3.3401,3.3401,3.3401,3.3401,3.3401,3.3401,0.0,0.0,0.0,0.0,0.0,3.3401,3.3401,3.3401,3.3401,3.3401,3.3401,3.3401,3.3401,3.3401,0.0,0.0,0.0,0.0,0.0,0.0,0.0,0.8508,0.8602,0.8733,0.8747,0.8788,0.8892,0.8899,0.8899,0.8899,0.0,0.0,0.0,0.0,0.0,0.0,0.0,0.0,0.0,0.0,0.0,0.0,0.0,0.0,0.0,0.0,0.0,0.0,0.0,0.0,0.0,0.0,0.0,0.0,0.0,0.0,1.3227,0.0,0.0,0.0,0.0,0.0,0.0,0.0,0.0,0.0,0.0,0.0,0.0,0.0,1.5038,1.657,1.7625,1.8401,1.8888,1.8888,1.8291,1.7683,0.0,0.0,1.5479,1.5003,1.448,1.3963,1.3497,0.0,0.0,0.0,0.0,0.0,0.0,0.0,0.0,0.0,0.0,0.0,0.0,0.0,0.0,0.0,0.0,0.0,0.0,0.0,3.2864,3.3146,3.3159,3.3227,3.3401,3.3401,3.3401,3.3401,3.3401,3.3401,3.3401,0.0,0.0,0.0,0.0,0.0,0.0,3.3401,3.3401,3.3401,3.3401,3.3401,3.3401,3.3401,3.3401,3.3401,0.0,0.0,0.0,0.0,0.0,0.0,0.0,0.0,0.0,0.0,0.8471,0.8595,0.885,0.8892,0.8899,0.0,0.0,0.0,0.0,0.0,0.0,0.0,0.0,0.0,0.0,0.0,0.0,1.1224,1.1564,1.2031,1.2626,0.0,0.0,0.0,0.0,0.0,0.0,0.0,0.0,0.0,0.0,1.2881,0.0,0.0,0.0,0.0,0.0,0.0,0.0,0.0,0.0,0.0,0.0,0.0,0.0,0.0,0.0,0.0,0.0,1.6871,1.7217,1.7226,1.6654,1.606,1.6026,0.0,0.0,0.0,0.0,0.0,0.0,0.0,0.0,0.0,0.0,0.0,0.0,0.0,0.0,0.0,0.0,0.0,0.0,0.0,0.0,0.0,0.0,0.0,0.0,0.0,0.0,3.3388,3.3401,3.3401,3.3401,3.3401,3.3401,3.3401,3.3401,3.3401,3.3401,0.0,0.0,0.0,0.0,0.0,0.0,3.3401,3.3401,3.3401,3.3401,3.3401,3.3401,3.3401,3.3401,3.3401,0.0,0.0,0.0,0.0,0.0,0.0,0.0,0.0,0.0,0.0,0.8208,0.8526,0.8581,0.8774,0.8899,0.0,0.0,0.0,0.0,0.0,0.0,0.0,0.0,0.0,0.0,0.0,0.0,1.0535,1.0876,1.1239,1.1639,1.2339,0.0,0.0,0.0,0.0,0.0,0.0,0.0,0.0,1.2881,1.2123,0.0,0.0,0.0,0.0,1.0726,1.0701,0.0,0.0,0.0,0.0,0.0,0.0,0.0,0.0,1.2545,1.2945,1.3811,0.0,1.5369,1.553,1.519,1.4874,0.0,1.4468,0.0,0.0,0.0,0.0,0.0,0.0,0.0,0.0,0.0,0.0,0.0,0.0,0.0,0.0,0.0,0.0,0.0,0.0,0.0,0.0,0.0,0.0,0.0,0.0,0.0,3.3388,3.3401,3.3401,3.3401,3.3401,3.3401,3.3401,3.3401,3.3401,3.3401,0.0,0.0,0.0,0.0,0.0,3.3401,3.3401,3.3401,3.3401,3.3401,3.3401,3.3401,3.3401,3.3401,3.3401,0.0,0.0,0.0,0.0,0.0,0.0,0.0,0.0,0.0,0.0,0.0,0.0,0.0,0.0,0.0,0.0,0.0,0.0,0.0,0.0,0.0,0.0,0.0,0.0,0.0,0.0,0.0,0.0,0.0,1.0664,0.0,0.0,0.0,0.0,0.0,0.0,0.0,0.0,0.0,0.0,1.2032,0.0,0.0,0.0,0.0,0.0,1.0701,1.0701,0.0,1.0701,1.0701,1.0763,0.0,0.0,0.0,0.0,1.2047,1.2249,1.2605,1.3411,1.4192,1.4354,1.4154,1.3964,1.4199,0.0,0.0,0.0,0.0,0.0,0.0,0.0,0.0,0.0,0.0,0.0,0.0,0.0,0.0,0.0,0.0,0.0,0.0,0.0,0.0,0.0,0.0,0.0,0.0,0.0,0.0,0.0,3.3401,3.3401,3.3401,3.3401,3.3401,3.3401,3.3401,3.3401,3.3401,0.0,0.0,0.0,0.0,0.0,3.3401,3.3401,3.3401,3.3401,3.3401,3.3401,3.3401,3.3401,3.3401,3.3401,0.0,0.0,0.0,0.0,0.0,0.0,0.0,0.0,0.0,0.0,0.0,0.0,0.0,0.0,0.0,0.0,0.0,0.0,0.0,0.0,0.0,0.0,0.0,0.0,0.0,0.0,0.0,0.0,0.0,0.0,0.0,0.0,1.1287,0.0,0.0,0.0,0.0,0.0,0.0,0.0,1.128,0.0,0.0,0.0,0.0,0.0,0.0,0.0,0.0,1.0701,1.0713,1.0789,1.1103,0.0,0.0,0.0,0.0,0.0,1.2048,1.2705,1.3348,1.3478,1.3416,1.3375,1.3564,0.0,0.0,0.0,0.0,0.0,0.0,0.0,0.0,0.0,0.0,0.0,0.0,0.0,0.0,0.0,0.0,0.0,0.0,0.0,0.0,0.0,0.0,0.0,0.0,0.0,0.0,0.0,3.3401,3.3401,3.3401,3.3401,3.3401,3.3401,3.3401,3.3401,3.3401,3.3401,0.0,0.0,0.0,0.0,3.3401,3.3401,3.3401,3.3401,3.3401,3.3401,3.3401,3.3401,3.3401,3.3401,0.0,0.0,0.0,0.0,0.0,0.0,0.0,0.0,0.0,0.0,0.0,0.0,0.0,0.0,0.0,0.0,0.0,0.0,0.0,0.0,0.0,0.0,0.0,0.0,0.0,0.0,0.0,0.0,0.0,0.0,0.989,1.0389,1.0946,1.1504,0.0,0.0,0.0,0.0,0.0,1.1256,1.0916,0.0,0.0,0.0,0.0,0.0,0.0,0.0,0.0,1.0701,1.078,1.0907,1.1128,0.0,0.0,0.0,0.0,0.0,1.2048,1.2291,1.2525,1.2651,1.3036,1.3424,0.0,0.0,0.0,0.0,0.0,0.0,0.0,0.0,0.0,0.0,0.0,0.0,0.0,0.0,0.0,0.0,0.0,0.0,0.0,0.0,0.0,0.0,0.0,0.0,0.0,0.0,0.0,0.0,0.0,3.3401,3.3401,3.3401,3.3401,3.3401,3.3401,3.3401,3.3401,3.3401,3.3401,0.0,0.0,3.3401,3.3401,3.3401,3.3401,3.3401,3.3401,3.3401,3.3401,3.3401,3.3401,3.3401,0.0,0.0,0.0,0.0,0.0,0.0,0.0,0.0,0.0,0.0,0.0,0.0,0.0,0.0,0.0,0.0,0.0,0.0,0.0,0.0,0.0,0.0,0.0,0.0,0.0,0.0,0.0,0.0,0.0,0.9799,0.9814,1.0207,1.0593,1.0956,0.0,0.0,0.0,0.0,1.0933,1.0916,0.0,0.0,0.0,0.0,0.0,0.0,0.0,0.0,0.0,0.0,1.0786,1.0941,1.1143,0.0,0.0,0.0,0.0,0.0,1.2068,1.2249,1.244,1.257,1.3064,0.0,0.0,0.0,0.0,0.0,0.0,0.0,0.0,0.0,0.0,0.0,0.0,0.0,0.0,0.0,0.0,0.0,0.0,0.0,0.0,0.0,0.0,0.0,0.0,0.0,0.0,0.0,0.0,0.0,0.0,0.0,3.3401,3.3401,3.3401,3.3401,3.3401,3.3401,3.3401,3.3401,3.3401,0.0,0.0,3.3401,3.3401,3.3401,3.3401,3.3401,3.3401,3.3401,3.3401,3.3401,3.3401,3.3401,0.0,0.0,0.0,0.0,0.0,0.0,0.0,0.0,0.0,0.0,0.0,0.0,0.0,0.0,0.0,0.0,0.0,0.0,0.0,0.0,0.0,0.0,0.0,0.0,0.0,0.0,0.9799,0.9799,0.9799,0.9841,0.993,1.021,1.0421,0.0,0.0,0.0,0.0,1.0701,1.0701,1.0701,0.0,0.0,0.0,0.0,0.0,0.0,0.0,0.0,0.0,0.0,0.0,0.0,0.0,0.0,0.0,1.1608,1.1866,1.2104,1.2145,1.2341,1.2609,1.2854,0.0,0.0,0.0,0.0,0.0,0.0,0.0,0.0,0.0,0.0,0.0,0.0,0.0,0.0,0.0,0.0,0.0,0.0,0.0,0.0,0.0,0.0,0.0,0.0,0.0,0.0,0.0,0.0,0.0,0.0,0.0,0.0,3.3401,3.3401,3.3401,3.3401,3.3401,3.3401,3.3401,3.3401,3.3401,3.3401,3.3401,3.3401,3.3401,3.3401,3.3401,3.3401,3.3401,3.3401,3.3401,3.3401,3.3401,3.3401,0.0,0.0,0.0,0.0,0.0,0.0,0.0,0.0,0.0,0.0,0.0,0.0,0.0,0.0,0.0,0.0,0.0,0.0,0.0,0.0,0.0,0.0,0.0,0.0,0.0,0.9799,0.9799,0.9799,0.9799,0.9957,1.0265,1.0421,1.0561,1.0687,0.0,0.0,1.0701,1.0701,1.0701,1.0701,1.0701,0.0,0.0,0.0,0.0,0.0,0.0,0.0,0.0,0.0,0.0,0.0,0.0,0.0,1.1615,1.1748,1.1932,1.2132,1.2256,1.2478,1.2814,1.3393,0.0,0.0,0.0,0.0,0.0,0.0,0.0,0.0,0.0,0.0,0.0,0.0,0.0,0.0,0.0,0.0,0.0,0.0,0.0,0.0,0.0,0.0,0.0,0.0,0.0,0.0,0.0,0.0,0.0,0.0,0.0,0.0,3.3401,3.3401,3.3401,3.3401,3.3401,3.3401,3.3401,3.3401,3.3401,3.3401,3.3401,3.3401,3.3401,3.3401,3.3401,3.3401,3.3401,3.3401,3.3401,3.3401,3.3401,3.3401,0.0,0.0,0.0,0.0,0.0,0.0,0.0,0.0,0.0,0.0,0.0,0.0,0.0,0.0,0.0,0.0,0.0,0.0,0.0,0.0,0.0,0.0,0.0,0.9799,0.9799,0.9799,0.9799,0.9799,0.9886,1.0105,1.0428,1.0483,0.0,0.0,0.0,1.0701,1.0701,1.0701,1.0701,1.0701,1.0701,1.0701,0.0,0.0,0.0,0.0,0.0,0.0,0.0,0.0,1.1087,1.1332,1.1384,1.1488,1.1629,1.1762,1.1938,1.2132,1.226,1.2498,1.2845,1.3447,0.0,0.0,0.0,0.0,0.0,0.0,0.0,0.0,0.0,0.0,0.0,0.0,0.0,0.0,0.0,0.0,0.0,0.0,0.0,0.0,0.0,0.0,0.0,0.0,0.0,0.0,0.0,0.0,0.0,0.0,0.0,0.0,0.0,3.3401,3.3401,3.3401,3.3401,3.3401,3.3401,3.3401,3.3401,3.3401,3.3401,3.3401,3.3401,3.3401,3.3401,3.3401,3.3401,3.3401,3.3401,3.3401,3.3401,3.3401,0.0,0.0,0.0,0.0,0.0,0.0,0.0,0.0,0.0,0.0,0.0,0.0,0.0,0.0,0.0,0.0,0.0,0.0,0.0,0.0,0.0,0.0,0.0,0.9799,0.9799,0.9839,0.9859,0.9859,1.0062,1.0281,1.0502,0.0,0.0,0.0,0.0,1.0701,1.0701,1.0701,1.0701,1.0701,1.0701,1.0701,0.0,0.0,0.0,0.0,0.0,0.0,0.0,0.0,1.1217,1.1411,1.145,1.1556,1.1687,1.1854,1.2022,1.2195,1.2382,1.2698,1.3131,1.3735,0.0,0.0,0.0,0.0,0.0,0.0,0.0,0.0,0.0,0.0,0.0,0.0,0.0,0.0,0.0,0.0,0.0,0.0,0.0,0.0,0.0,0.0,0.0,0.0,0.0,0.0,0.0,0.0,0.0,0.0,0.0,0.0,0.0,3.3401,3.3401,3.3401,3.3401,3.3401,3.3401,3.3401,3.3401,3.3401,3.3401,3.3401,3.3401,3.3401,3.3401,3.3401,3.3401,3.3401,3.3401,3.3401,3.3401,3.3401,0.0,0.0,0.0,0.0,0.0,0.0,0.0,0.0,0.0,0.0,0.0,0.0,0.0,0.0,0.0,0.0,0.0,0.0,0.0,0.0,0.0,0.0,0.0,0.9799,0.9799,0.9933,0.9998,0.9998,1.0343,1.0502,1.0493,1.0641,0.0,0.0,0.0,0.0,1.0701,1.0701,1.0701,1.0701,1.0701,1.0701,1.0701,0.0,0.0,0.0,0.0,0.0,0.0,0.0,1.1404,1.1425,1.1554,1.1687,1.1845,1.2038,1.2204,1.2359,1.2631,1.3141,1.3745,1.4356,0.0,0.0,0.0,0.0,0.0,0.0,0.0,0.0,0.0,0.0,0.0,0.0,0.0,0.0,0.0,0.0,0.0,0.0,0.0,0.0,0.0,0.0,0.0,0.0,0.0,0.0,0.0,0.0,0.0,0.0,0.0,0.0,0.0,3.3401,3.3401,3.3401,3.3401,3.3401,3.3401,3.3401,3.3401,3.3401,3.3401,3.3401,3.3401,3.3401,3.3401,3.3401,3.3401,3.3401,3.3401,3.3401,3.3401,3.3401,0.0,0.0,0.0,0.0,0.0,0.0,0.0,0.0,0.0,0.0,0.0,0.0,0.0,0.0,0.0,0.0,0.0,0.0,0.0,0.0,0.0,0.0,0.0,0.0,0.0,1.0205,1.035,1.035,1.0446,1.0548,0.0,0.0,0.0,1.0701,0.0,0.0,1.0701,1.0701,1.0701,1.0701,1.0701,1.0701,1.0701,0.0,0.0,0.0,0.0,0.0,0.0,0.0,0.0,0.0,1.1703,1.1768,1.1866,1.2149,1.2344,1.2481,1.2648,1.3215,0.0,0.0,0.0,0.0,0.0,0.0,0.0,0.0,0.0,0.0,0.0,0.0,0.0,0.0,0.0,0.0,0.0,0.0,0.0,0.0,0.0,0.0,0.0,0.0,0.0,0.0,0.0,0.0,0.0,0.0,0.0,0.0,0.0,0.0,0.0,0.0,3.3401,3.3401,3.3401,3.3401,3.3401,3.3401,3.3401,3.3401,3.3401,3.3401,3.3401,3.3401,3.3401,3.3401,3.3401,3.3401,3.3401,3.3401,3.3401,3.3401,0.0,0.0,0.0,0.0,0.0,0.0,0.0,0.0,0.0,0.0,0.3398,0.4293,0.0,0.0,0.0,0.0,0.0,0.0,0.0,0.0,0.9799,0.9799,0.9846,0.9981,1.0191,1.0399,1.0529,1.0582,1.0582,0.0,0.0,0.0,1.0701,1.0701,0.0,1.0701,1.0701,1.0701,1.0701,1.0701,1.0701,1.0701,1.0708,0.0,0.0,0.0,0.0,0.0,0.0,0.0,0.0,0.0,1.1762,1.1843,1.1972,1.2226,1.2433,1.2643,1.297,0.0,0.0,0.0,0.0,0.0,0.0,0.0,0.0,0.0,0.0,0.0,0.0,0.0,0.0,0.0,0.0,0.0,0.0,0.0,0.0,0.0,0.0,0.0,0.0,0.0,0.0,0.0,0.0,0.0,0.0,0.0,0.0,0.0,0.0,0.0,3.3401,3.3401,3.3401,3.3401,3.3401,3.3401,3.3401,3.3401,3.3401,3.3401,3.3401,3.3401,3.3401,3.3401,3.3401,3.3401,3.3401,3.3401,3.3401,3.3401,3.3401,3.3401,0.0,0.0,0.0,0.0,0.0,0.0,0.0,0.0,0.0,0.0,0.372,0.4623,0.0,0.0,0.0,0.0,0.0,0.0,0.0,0.0,0.9806,0.9819,0.996,1.0192,1.0487,1.0515,1.0582,1.0701,1.0701,0.0,0.0,0.0,1.0701,1.0701,0.0,1.0701,1.0701,1.0701,1.0701,1.0699,1.0713,1.072,1.0733,1.0865,0.0,0.0,0.0,0.0,0.0,0.0,0.0,0.0,1.1782,1.1959,1.2152,1.2294,1.2519,1.2858,1.3458,0.0,0.0,0.0,0.0,0.0,0.0,0.0,0.0,0.0,0.0,0.0,0.0,0.0,0.0,0.0,0.0,0.0,0.0,0.0,0.0,0.0,0.0,0.0,0.0,0.0,0.0,0.0,0.0,0.0,0.0,0.0,0.0,0.0,0.0,0.0,3.3401,3.3401,3.3401,0.0,3.3401,3.3401,3.3401,3.3401,3.3401,3.3401,3.3401,3.3401,3.3401,3.3401,3.3401,3.3401,3.3401,3.3401,3.3401,3.3401,3.3401,3.3401,0.0,0.0,0.0,0.0,0.0,0.0,0.0,0.0,0.0,0.0,0.0,0.0,0.0,0.0,0.0,0.0,0.0,0.0,0.0,0.0,0.9846,0.9945,1.024,1.0426,1.0495,1.0601,1.0667,1.0701,1.0701,0.0,0.0,0.0,0.0,1.0701,0.0,1.0701,1.0701,1.0701,1.0701,1.0714,1.0811,1.0858,1.088,1.1063,1.1201,0.0,0.0,0.0,0.0,0.0,0.0,0.0,1.1984,1.2133,1.2301,1.2536,1.2766,1.3062,0.0,1.447,0.0,0.0,0.0,0.0,0.0,0.0,0.0,0.0,0.0,0.0,0.0,0.0,0.0,0.0,0.0,0.0,0.0,0.0,0.0,0.0,0.0,0.0,0.0,0.0,0.0,0.0,0.0,0.0,0.0,0.0,0.0,0.0,0.0,3.3401,3.3401,3.3401,3.3401,0.0,3.3401,3.3401,3.3401,3.3401,3.3401,3.3401,3.3401,3.3401,3.3401,3.3401,3.3401,3.3401,3.3401,3.3401,3.3401,3.3401,3.3401,3.3403,0.0,0.0,0.0,0.0,0.0,0.0,0.0,0.0,0.0,0.0,0.0,0.0,0.0,0.0,0.0,0.0,0.0,0.0,0.0,0.0,0.0,0.0,1.0405,1.0527,1.0594,1.066,1.0701,0.0,0.0,0.0,0.0,0.0,0.0,1.0701,0.0,1.0701,1.0701,1.0701,1.074,1.0799,1.0863,1.0963,1.1061,1.123,1.1339,1.1411,1.147,0.0,0.0,0.0,0.0,0.0,0.0,0.0,1.2345,1.2624,1.284,1.317,0.0,0.0,0.0,0.0,0.0,0.0,0.0,0.0,0.0,0.0,0.0,0.0,0.0,0.0,0.0,0.0,0.0,0.0,0.0,0.0,0.0,0.0,0.0,0.0,0.0,0.0,0.0,0.0,0.0,0.0,0.0,0.0,0.0,0.0,3.3401,3.3401,3.3401,3.3401,3.3401,3.3401,3.3401,3.3401,3.3401,3.3401,3.3401,3.3401,3.3401,3.3401,3.3401,3.3401,3.3401,3.3401,3.3401,3.3401,3.3401,3.3401,3.3393,3.3401,0.0,0.0,0.0,0.0,0.0,0.0,0.0,0.0,0.0,0.0,0.0,0.0,0.0,0.0,0.0,0.0,0.0,0.0,0.0,0.0,0.0,0.0,1.0514,1.0588,1.0701,1.0701,1.0701,0.0,0.0,0.0,0.0,0.0,0.0,1.0701,0.0,1.0701,1.0699,1.0726,1.0799,1.0912,1.096,1.1089,0.0,0.0,0.0,0.0,1.1554,1.1606,1.1647,1.1762,0.0,0.0,0.0,0.0,1.242,1.2681,1.2884,1.3252,1.4259,0.0,0.0,0.0,0.0,0.0,0.0,0.0,0.0,0.0,0.0,0.0,0.0,0.0,0.0,0.0,0.0,0.0,0.0,0.0,0.0,0.0,0.0,0.0,0.0,0.0,0.0,0.0,0.0,0.0,0.0,0.0,3.3401,3.3401,3.3401,3.3401,3.3401,3.3401,3.3401,3.3401,3.3401,3.3401,3.3401,3.3401,3.3401,3.3401,3.3401,3.3401,3.3401,3.3401,3.3401,3.3401,3.3401,3.3401,3.3401,3.3404,3.3401,3.3422,0.0,0.0,0.0,0.0,0.0,0.0,0.0,0.0,0.0,0.0,0.564,0.676,0.0,0.862,0.9129,0.9685,0.9883,0.9972,0.9972,0.0,0.0,0.0,1.0607,1.068,1.0701,1.0701,1.0701,0.0,0.0,0.0,0.0,0.0,0.0,1.0701,0.0,0.0,1.0714,1.0818,1.0877,1.0926,1.1217,1.135,0.0,0.0,0.0,0.0,0.0,0.0,1.1782,1.1786,1.1988,0.0,0.0,0.0,1.2685,1.2901,1.3061,1.3394,0.0,0.0,1.8736,0.0,0.0,0.0,0.0,0.0,0.0,0.0,0.0,0.0,0.0,0.0,0.0,0.0,0.0,0.0,0.0,0.0,0.0,0.0,0.0,0.0,0.0,0.0,0.0,0.0,0.0,0.0,0.0,3.3401,3.3401,3.3401,3.3401,3.3401,3.3401,3.3401,3.3401,3.3401,3.3401,3.3401,3.3401,3.3401,3.3401,3.3401,3.3401,3.3401,3.3401,3.3401,3.3401,3.3401,3.3401,3.3401,3.3403,3.3391,3.3408,3.3552,0.0,0.0,0.0,0.0,0.0,0.0,0.0,0.0,0.0,0.0,0.0,0.7329,0.8294,0.8931,0.9458,0.9874,1.007,1.02,1.0282,1.0419,1.0527,1.0607,0.0,1.0701,1.0701,1.0701,0.0,0.0,0.0,0.0,0.0,1.0701,1.0701,0.0,0.0,0.0,0.0,0.0,1.1009,1.1188,1.1335,1.1452,0.0,0.0,0.0,0.0,0.0,0.0,0.0,0.0,1.2176,1.2328,1.2481,0.0,0.0,0.0,1.3156,0.0,1.5018,1.703,1.9152,0.0,2.2933,0.0,0.0,0.0,0.0,0.0,0.0,0.0,0.0,0.0,0.0,0.0,0.0,0.0,0.0,0.0,0.0,0.0,0.0,0.0,0.0,0.0,0.0,0.0,0.0,0.0,3.3401,3.3401,3.3401,3.3401,3.3401,3.3401,3.3401,3.3401,3.3401,3.3401,3.3401,3.3401,3.3401,3.3401,3.3401,3.3401,3.3401,3.3401,3.3401,3.3401,3.3401,3.3401,3.3401,3.3394,3.3402,3.3408,3.3838,3.448,0.0,0.0,0.0,0.0,0.0,0.0,0.0,0.0,0.0,0.0,0.0,0.7867,0.8621,0.0,0.0,0.0,1.0241,1.0408,1.0541,1.0548,1.0602,1.0701,0.0,1.0701,1.0701,1.0701,0.0,0.0,0.0,0.0,1.0701,1.0701,1.072,0.0,1.0753,0.0,0.0,0.0,0.0,1.1404,1.1445,1.1529,0.0,0.0,0.0,0.0,0.0,0.0,0.0,0.0,0.0,0.0,0.0,0.0,0.0,0.0,0.0,0.0,0.0,0.0,1.8978,2.0868,2.261,2.4261,0.0,0.0,0.0,0.0,0.0,0.0,0.0,0.0,0.0,0.0,0.0,0.0,0.0,0.0,0.0,0.0,0.0,0.0,0.0,0.0,0.0,0.0,0.0,0.0,3.3401,3.3401,3.3401,3.3401,3.3401,3.3401,3.3401,3.3401,3.3401,3.3401,3.3401,3.3401,3.3401,3.3401,3.3401,3.3401,3.3401,3.3401,3.3401,3.3401,3.3401,3.3401,3.3406,3.3401,3.3448,3.3734,3.4428,3.5194,0.0,0.0,0.0,0.0,0.0,0.0,0.0,0.0,0.0,0.0,0.0,0.8444,0.9425,0.9688,0.9923,1.0262,1.0407,1.0548,1.068,1.0694,1.0686,1.0701,0.0,0.0,0.0,0.0,0.0,0.0,0.0,0.0,1.0701,1.0701,1.0774,1.0892,1.0892,1.089,1.0926,0.0,0.0,0.0,1.1543,1.1667,0.0,0.0,0.0,0.0,0.0,0.0,0.0,0.0,0.0,0.0,0.0,0.0,0.0,0.0,0.0,0.0,0.0,1.6718,0.0,1.9983,2.1906,0.0,0.0,0.0,0.0,0.0,0.0,0.0,0.0,0.0,0.0,0.0,0.0,0.0,0.0,0.0,0.0,0.0,0.0,0.0,0.0,0.0,0.0,0.0,0.0,0.0,3.3401,3.3401,3.3401,3.3401,3.3401,3.3401,3.3401,3.3401,3.3401,3.3401,3.3401,3.3401,3.3401,3.3401,3.3401,3.3401,3.3401,3.3401,3.3401,3.3401,3.3401,3.3403,3.3404,3.3396,3.3539,3.4678,3.5141,3.5195,0.0,0.0,0.0,0.0,0.0,0.0,0.0,0.0,0.0,0.0,0.0,0.0,0.0,1.0044,1.0299,1.0427,1.0555,1.0655,1.0701,1.0701,1.0701,1.0701,0.0,0.0,0.0,0.0,0.0,0.0,0.0,1.0701,1.0699,1.0786,1.0852,1.0897,1.0897,1.1022,1.1231,1.1348,0.0,0.0,1.1717,1.1825,0.0,0.0,0.0,0.0,0.0,0.0,0.0,0.0,0.0,0.0,0.0,0.0,0.0,0.0,0.0,0.0,0.0,0.0,0.0,1.9612,2.1118,2.2639,0.0,0.0,0.0,0.0,0.0,0.0,0.0,0.0,0.0,0.0,0.0,0.0,0.0,0.0,0.0,0.0,0.0,0.0,0.0,0.0,0.0,0.0,0.0,0.0,3.3401,3.3401,3.3401,3.3401,3.3401,3.3401,3.3401,3.3401,3.3401,3.3401,3.3401,3.3401,3.3401,3.3401,3.3401,3.3401,3.3401,3.3401,3.3401,3.3401,3.3408,3.3404,3.3395,3.3865,3.4599,3.5035,3.5211,3.5202,0.0,0.0,0.0,0.0,0.0,0.84,0.0,0.0,0.0,0.0,0.0,0.0,0.0,0.0,1.0568,1.0568,1.0655,1.0701,1.0701,1.0701,1.0701,1.0701,1.0701,0.0,0.0,0.0,0.0,0.0,0.0,0.0,0.0,0.0,1.096,1.1071,1.1071,0.0,0.0,0.0,0.0,1.1818,0.0,0.0,1.2379,0.0,0.0,0.0,0.0,0.0,0.0,0.0,0.0,0.0,0.0,0.0,0.0,0.0,0.0,0.0,0.0,0.0,0.0,0.0,0.0,2.1832,0.0,0.0,0.0,0.0,0.0,0.0,0.0,0.0,0.0,0.0,0.0,0.0,0.0,0.0,0.0,0.0,0.0,0.0,0.0,0.0,0.0,0.0,0.0,0.0,3.3401,3.3401,3.3401,3.3401,3.3401,3.3401,3.3401,3.3401,3.3401,3.3401,3.3401,3.3401,3.3401,3.3401,3.3401,3.3401,3.3401,3.3401,3.3401,3.3394,3.3403,3.3448,3.3851,3.4494,3.5194,3.5198,3.5201,3.5191,0.0,0.9616,0.9559,0.9362,0.9331,0.9331,0.0,0.0,0.0,0.0,0.0,0.0,0.0,0.0,0.0,1.0701,1.0701,1.0701,1.0701,1.0701,1.0701,1.0701,1.0701,0.0,0.0,0.0,0.0,0.0,0.0,0.0,0.0,0.0,1.1092,0.0,1.1411,1.1411,1.1432,0.0,1.1809,1.1884,0.0,1.2803,1.3003,0.0,0.0,0.0,1.4032,1.3867,0.0,0.0,0.0,0.0,0.0,0.0,0.0,0.0,0.0,0.0,0.0,0.0,0.0,0.0,0.0,0.0,2.3481,0.0,0.0,0.0,0.0,0.0,0.0,0.0,0.0,0.0,0.0,0.0,0.0,0.0,0.0,0.0,0.0,0.0,0.0,0.0,0.0,0.0,0.0,3.3401,3.3401,3.3401,3.3401,3.3401,3.3401,3.3401,3.3401,3.3401,3.3401,3.3401,3.3401,3.3401,3.3401,3.3401,3.3401,3.3401,3.3401,3.3414,3.3428,3.3418,3.3422,3.3565,3.4744,3.5208,3.5209,3.5189,3.5191,3.5191,1.0106,1.0105,1.0087,1.0031,1.0022,1.0063,0.0,0.0,0.0,0.0,0.0,0.0,0.0,0.0,0.0,1.0701,1.0701,1.0701,1.0701,1.0701,1.0701,1.0701,1.0701,1.0701,0.0,0.0,0.0,0.0,0.0,0.0,0.0,0.0,0.0,0.0,1.1595,1.169,1.1687,1.1768,0.0,0.0,1.278,1.3395,0.0,0.0,0.0,0.0,0.0,1.4696,0.0,0.0,1.4275,1.4225,0.0,0.0,0.0,0.0,0.0,0.0,1.4004,0.0,0.0,0.0,0.0,0.0,2.2008,2.3813,0.0,0.0,0.0,0.0,0.0,0.0,0.0,0.0,0.0,0.0,0.0,0.0,0.0,0.0,0.0,0.0,0.0,0.0,0.0,0.0,3.3401,3.3401,3.3401,3.3401,3.3401,3.3401,3.3401,3.3401,3.3401,3.3401,3.3401,3.3401,3.3401,3.3401,3.3401,3.3401,3.3401,3.3401,3.3401,3.3649,3.4016,3.3574,3.3912,3.4732,3.5072,3.5198,3.5202,3.5204,3.5191,3.5191,1.0374,1.0379,1.04,1.0461,1.0474,1.0493,0.0,0.0,0.0,0.0,0.0,0.0,0.0,0.0,0.0,0.0,1.0701,1.0701,1.0701,1.0701,1.0701,1.0701,1.0701,1.0701,0.0,0.0,0.0,0.0,0.0,0.0,0.0,0.0,0.0,0.0,0.0,0.0,0.0,0.0,0.0,0.0,1.366,0.0,0.0,1.5733,1.6238,0.0,0.0,0.0,1.603,1.5766,1.5377,0.0,0.0,0.0,0.0,0.0,0.0,0.0,0.0,0.0,0.0,0.0,0.0,0.0,2.1187,2.3206,2.5139,0.0,0.0,0.0,0.0,0.0,0.0,0.0,0.0,0.0,0.0,0.0,0.0,0.0,0.0,0.0,0.0,0.0,0.0,0.0,3.3401,3.3401,3.3401,3.3401,3.3401,3.3401,3.3401,3.3401,3.3401,3.3401,3.3401,3.3401,3.3401,3.3401,3.3401,3.3401,3.3401,3.3401,3.3401,3.374,3.4291,3.4195,3.4577,3.5199,3.5196,3.5202,3.5191,3.5191,3.5191,3.5191,0.0,1.0514,1.0561,1.068,1.0701,0.0,0.0,0.0,0.0,0.0,0.0,0.0,0.0,0.0,0.0,0.0,1.0701,1.0701,1.0701,1.0701,1.0701,1.0701,1.0713,1.072,1.072,0.0,0.0,0.0,0.0,0.0,0.0,0.0,0.0,0.0,1.1898,1.2096,0.0,0.0,0.0,1.3601,1.488,1.5847,0.0,0.0,1.8141,0.0,1.8661,1.819,1.7583,1.7429,0.0,0.0,0.0,0.0,0.0,0.0,1.4157,0.0,0.0,0.0,0.0,0.0,0.0,0.0,2.0773,2.3053,2.517,0.0,0.0,0.0,0.0,0.0,0.0,0.0,0.0,0.0,0.0,0.0,0.0,0.0,0.0,0.0,0.0,0.0,3.3406,3.3399,3.3401,3.3401,3.3401,3.3401,3.3401,3.3401,3.3401,3.3401,3.3401,3.3401,3.3401,3.3401,3.3401,3.3401,3.3401,3.3401,3.3401,3.3401,3.3441,3.378,3.4333,3.4913,3.5172,3.5208,3.5202,3.5191,3.5191,3.5191,3.5191,3.5191,1.0662,1.066,1.0667,1.0701,0.0,0.0,0.0,0.0,0.0,0.0,0.0,0.0,0.0,0.0,0.0,0.0,0.0,1.0701,1.0701,1.0701,1.0701,1.0701,1.0806,1.0865,1.0865,1.105,0.0,0.0,0.0,0.0,0.0,0.0,0.0,0.0,0.0,0.0,0.0,0.0,0.0,1.5339,1.5824,0.0,0.0,1.9055,1.9885,2.0675,2.0301,1.9866,1.9307,0.0,1.7694,1.7295,0.0,0.0,0.0,0.0,0.0,0.0,0.0,0.0,0.0,0.0,0.0,0.0,2.0219,2.2307,2.4385,0.0,0.0,0.0,0.0,0.0,0.0,0.0,0.0,0.0,0.0,0.0,0.0,0.0,0.0,0.0,0.0,3.301,3.3406,3.3399,3.3401,3.3401,3.3401,3.3401,3.3401,3.3401,3.3401,3.3401,3.3401,3.3401,3.3401,3.3401,3.3401,3.3401,3.3401,3.3401,3.3401,3.3427,3.3694,3.3987,3.4333,3.4718,3.501,3.5208,3.5202,3.5191,3.5191,3.5191,3.5191,3.5191,1.0701,1.0701,1.0701,1.0701,0.0,0.0,0.0,0.0,0.0,0.0,0.0,0.0,0.0,0.0,0.0,0.0,0.0,0.0,0.0,0.0,1.1203,1.1203,1.1101,1.1048,1.1048,1.1208,0.0,0.0,0.0,0.0,0.0,0.0,0.0,0.0,0.0,0.0,0.0,0.0,1.5571,1.6209,1.673,0.0,1.9574,2.0238,2.1228,2.2194,2.176,2.1326,2.08,1.9813,1.9185,0.0,0.0,1.7188,1.6534,0.0,1.5467,1.5091,0.0,0.0,0.0,1.5763,0.0,0.0,0.0,2.2037,2.4141,2.6398,0.0,0.0,0.0,0.0,0.0,0.0,0.0,0.0,0.0,0.0,0.0,0.0,0.0,0.0,0.0,3.2839,3.3183,3.3374,3.3401,3.3401,3.3401,3.3401,3.3401,3.3401,3.3401,3.3401,3.3401,3.3401,3.3401,3.3401,3.3401,3.3401,3.3401,3.3401,3.3401,3.3415,3.3748,3.4055,3.4336,3.4656,3.4961,3.52,3.5203,3.5191,3.5191,3.5191,3.5191,3.5191,1.0701,1.0701,1.0701,1.0701,0.0,0.0,0.0,0.0,0.0,0.0,0.0,0.0,0.0,0.0,0.0,0.0,0.0,0.0,0.0,0.0,0.0,1.1693,1.1505,1.1358,1.1279,1.1447,1.1588,0.0,0.0,0.0,0.0,0.0,0.0,0.0,0.0,0.0,0.0,0.0,0.0,1.6997,0.0,1.8989,2.0353,2.1295,2.2416,2.3411,2.3137,2.2781,2.2343,2.1682,0.0,1.9998,1.9673,1.8699,0.0,0.0,0.0,0.0,0.0,0.0,0.0,0.0,0.0,1.8569,0.0,0.0,0.0,2.639,0.0,0.0,0.0,0.0,0.0,0.0,0.0,0.0,0.0,0.0,0.0,0.0,0.0,0.0,0.0,3.2756,3.3051,3.3386,3.3401,3.3401,3.3401,3.3401,3.3401,3.3401,3.3401,3.3401,3.3401,3.3401,3.3401,3.3401,3.3401,3.3401,3.3401,3.3401,3.3401,3.3415,3.3814,3.4108,3.4336,3.4723,3.499,3.5191,3.5191,3.5191,3.5191,3.5191,3.5191,3.5191,1.0701,1.0701,1.0701,1.0701,0.0,0.0,0.0,0.0,0.0,0.0,0.0,0.0,0.0,0.0,0.0,0.0,0.0,0.0,1.2303,0.0,0.0,0.0,1.1952,0.0,1.1556,1.1862,1.203,1.2041,0.0,0.0,0.0,0.0,0.0,0.0,1.4675,0.0,0.0,0.0,1.7535,0.0,1.9389,2.0312,0.0,2.2516,2.3552,2.4389,2.4573,2.4531,2.4253,0.0,2.2494,2.1599,0.0,1.9869,0.0,0.0,0.0,0.0,0.0,0.0,0.0,0.0,1.8219,0.0,0.0,0.0,2.4935,2.6907,0.0,0.0,0.0,0.0,0.0,0.0,0.0,0.0,0.0,0.0,0.0,0.0,0.0,0.0,0.0,0.0,3.3341,3.3399,3.3401,3.3401,3.3401,3.3401,3.3401,3.3401,3.3401,3.3401,3.3401,3.3401,3.3401,3.3401,3.3401,3.3401,3.3401,3.3401,3.3401,3.3428,3.4016,3.427,3.4337,3.4923,3.5164,3.5191,3.5191,3.5191,3.5191,3.5191,3.5191,3.5191,1.0701,1.0701,1.0701,1.0701,0.0,0.0,0.0,0.0,0.0,0.0,0.0,0.0,0.0,0.0,0.0,0.0,0.0,0.0,0.0,0.0,0.0,0.0,0.0,0.0,0.0,1.238,1.237,1.2224,1.2287,0.0,0.0,0.0,0.0,0.0,1.5174,0.0,1.6792,0.0,0.0,0.0,0.0,0.0,0.0,2.3523,2.4482,2.5413,2.5761,2.5537,2.4971,0.0,2.3736,0.0,0.0,0.0,0.0,0.0,0.0,0.0,0.0,0.0,0.0,0.0,0.0,0.0,0.0,0.0,2.579,0.0,0.0,0.0,0.0,0.0,0.0,0.0,0.0,0.0,0.0,0.0,0.0,0.0,0.0,0.0,0.0,0.0,0.0,0.0,0.0,3.3401,3.3401,3.3401,3.3401,3.3401,3.3401,3.3401,3.3401,3.3401,3.3401,3.3401,3.3401,3.3401,3.3401,3.3401,3.3507,3.3708,3.4122,3.4416,3.4616,3.503,3.5191,3.5191,3.5191,3.5191,3.5191,3.5191,3.5191,3.5191,1.0747,0.0,0.0,0.0,0.0,0.0,0.0,0.0,0.0,0.0,0.0,0.0,1.2697,1.3513,0.0,0.0,0.0,1.5716,0.0,0.0,0.0,0.0,0.0,0.0,0.0,0.0,1.3085,1.266,0.0,0.0,0.0,0.0,0.0,0.0,0.0,1.6612,1.763,0.0,0.0,2.0568,2.175,2.3156,2.4587,2.4831,2.5573,2.6494,2.68,2.6471,2.5878,2.5733,2.5065,0.0,2.37,0.0,0.0,0.0,0.0,0.0,2.0193,0.0,0.0,0.0,0.0,0.0,0.0,0.0,0.0,0.0,0.0,0.0,0.0,0.0,0.0,0.0,0.0,0.0,0.0,0.0,0.0,0.0,0.0,0.0,0.0,0.0,0.0,0.0,3.3399,3.3401,3.3401,3.3401,3.3401,3.3401,3.3401,3.3401,3.3401,3.3401,3.3401,3.3401,3.3401,3.3401,3.3401,3.3401,3.3575,3.3907,3.4176,3.4496,3.4829,3.5097,3.5191,3.5191,3.5191,3.5191,3.5191,3.5191,3.5191,3.5191,1.0872,1.0786,0.0,0.0,0.0,0.0,0.0,0.0,0.0,0.0,0.0,0.0,0.0,0.0,0.0,0.0,0.0,1.6848,1.6857,0.0,1.6489,0.0,0.0,0.0,0.0,0.0,0.0,1.3561,0.0,0.0,0.0,0.0,0.0,0.0,0.0,1.7161,1.8062,1.9408,2.061,2.1764,2.3035,2.4923,2.6952,0.0,2.6996,2.7651,2.7661,0.0,0.0,2.7418,2.6662,0.0,0.0,0.0,0.0,0.0,0.0,0.0,0.0,0.0,0.0,0.0,0.0,0.0,0.0,0.0,2.793,0.0,0.0,0.0,0.0,0.0,0.0,0.0,0.0,0.0,0.0,0.0,0.0,0.0,0.0,0.0,0.0,0.0,0.0,3.3359,3.3391,3.3401,3.3401,3.3401,3.3401,3.3401,3.3401,3.3401,3.3401,3.3401,3.3401,3.3401,3.3401,3.3401,3.3401,3.3401,3.3575,3.3907,3.4176,3.4496,3.4829,3.5097,3.5191,3.5191,3.5191,3.5191,3.5191,3.5191,3.5191,3.5191,0.0,0.0,0.0,0.0,0.0,0.0,0.0,1.2182,0.0,0.0,0.0,0.0,0.0,0.0,1.7857,0.0,0.0,1.9352,1.9352,1.9352,0.0,0.0,0.0,1.7618,0.0,0.0,0.0,0.0,0.0,0.0,1.3541,1.4117,1.4485,0.0,0.0,1.7713,0.0,0.0,0.0,0.0,0.0,2.6594,2.7576,0.0,0.0,2.8297,2.8297,2.8206,0.0,2.8102,2.7623,2.7003,2.6698,2.6342,2.5986,2.5678,2.4928,0.0,0.0,0.0,2.4397,2.4397,0.0,0.0,0.0,0.0,0.0,0.0,0.0,0.0,0.0,0.0,0.0,0.0,0.0,0.0,0.0,0.0,0.0,0.0,0.0,0.0,0.0,0.0,0.0,3.3109,3.3303,3.3401,0.0,3.3401,3.3401,3.3401,3.3401,3.3401,3.3401,3.3401,3.3401,3.3401,3.3401,3.3401,3.3401,3.3401,3.3682,3.4162,3.4269,3.459,3.507,3.5151,3.5191,3.5191,3.5191,3.5191,3.5191,3.5191,3.5191,3.5191,1.1318,0.0,0.0,0.0,0.0,0.0,0.0,0.0,0.0,0.0,1.5829,0.0,1.7572,0.0,2.0005,0.0,2.1018,2.1499,2.1499,2.1499,0.0,0.0,2.0355,0.0,0.0,0.0,0.0,0.0,0.0,1.4421,1.4135,1.4524,1.4919,1.5373,0.0,0.0,0.0,0.0,2.2813,0.0,0.0,2.7684,0.0,0.0,2.8185,0.0,0.0,2.869,2.8607,2.8607,2.8378,2.8039,2.7742,2.7596,2.7461,2.7163,2.6652,2.6185,2.6185,2.6271,0.0,0.0,2.731,0.0,0.0,0.0,0.0,0.0,0.0,0.0,0.0,0.0,0.0,0.0,0.0,0.0,0.0,3.1555,0.0,0.0,0.0,0.0,0.0,0.0,3.2674,3.2849,3.3187,3.3401,0.0,0.0,3.3401,3.3401,3.3401,3.3401,3.3401,3.3401,3.3401,3.3401,3.3401,3.3401,3.3401,3.3401,3.3735,3.4296,3.4296,3.4643,3.5191,3.5191,3.5191,3.5191,3.5191,3.5191,3.5191,3.5191,3.5191,3.5191,0.0,0.0,0.0,0.0,1.1813,0.0,0.0,0.0,1.4819,0.0,1.7133,1.8486,1.911,2.086,2.202,2.2039,2.275,0.0,2.3196,2.3196,0.0,0.0,2.2193,2.1476,1.9773,0.0,0.0,0.0,0.0,0.0,1.478,1.478,1.5358,1.6442,1.7372,0.0,2.0834,2.2582,2.4066,2.5392,2.7226,2.8234,2.8673,2.8919,0.0,2.9041,2.9039,2.9028,2.9041,2.9041,2.8952,2.8844,2.8844,2.8717,2.8565,2.8565,2.8555,2.8556,2.8556,2.858,2.858,2.858,0.0,0.0,0.0,0.0,3.0036,0.0,0.0,0.0,0.0,0.0,0.0,0.0,0.0,0.0,0.0,0.0,0.0,0.0,0.0,0.0,0.0,3.2246,3.2594,3.2594,3.3092,3.3401,0.0,0.0,3.3401,3.3401,3.3401,3.3401,3.3401,3.3401,3.3401,3.3401,3.3401,3.3401,3.3401,3.3401,3.3735,3.4296,3.4296,3.4643,3.5191,3.5191,3.5191,3.5191,3.5191,3.5191,3.5191,3.5191,3.5191,3.5191,1.1959,1.2211,1.2465,0.0,0.0,1.2933,0.0,0.0,0.0,0.0,1.9247,2.0713,2.1504,2.2767,2.3656,2.3959,2.4354,0.0,0.0,0.0,0.0,2.3851,2.3546,2.2883,2.1779,2.0788,0.0,1.8633,0.0,0.0,1.5891,1.5891,1.6133,1.6617,0.0,0.0,2.1047,2.2835,2.4979,2.7271,2.8303,2.8939,0.0,0.0,2.9499,2.9637,2.9435,2.9501,2.9664,2.9664,2.9651,2.9628,2.9628,2.9578,2.9532,2.9532,2.9429,2.9313,2.9313,2.9504,2.9695,2.9695,3.0039,3.0396,0.0,0.0,0.0,0.0,0.0,0.0,0.0,0.0,0.0,0.0,0.0,0.0,0.0,0.0,0.0,3.1699,0.0,0.0,0.0,3.2246,3.2594,3.2594,3.3092,0.0,0.0,0.0,0.0,3.3401,3.3401,3.3401,3.3401,3.3401,3.3401,3.3401,3.3401,3.3401,3.3401,3.3401,3.3735,3.4296,3.4296,3.4643,3.5191,3.5191,3.5191,3.5191,3.5191,3.5191,3.5191,3.5191,3.5191,3.5191,1.2296,0.0,0.0,0.0,0.0,0.0,1.5244,0.0,0.0,1.8952,0.0,0.0,2.2861,2.4083,2.4934,2.5161,2.559,0.0,0.0,0.0,0.0,2.543,2.516,2.4533,2.3475,2.2569,0.0,2.0219,0.0,0.0,1.7348,1.7568,1.7757,1.7983,0.0,2.1055,0.0,2.4496,2.6562,2.844,2.8992,0.0,0.0,2.9631,2.9871,3.0098,2.9949,2.9898,2.9929,3.0074,3.0125,3.0152,3.0261,3.0289,3.0289,3.0289,3.0214,3.0116,3.0116,3.0271,3.0412,3.0412,3.061,3.0807,3.0807,3.0807,3.0822,0.0,0.0,0.0,0.0,0.0,0.0,0.0,0.0,0.0,0.0,0.0,0.0,0.0,0.0,0.0,0.0,0.0,3.2594,3.2594,0.0,0.0,0.0,0.0,0.0,3.3401,3.3401,3.3401,3.3401,3.3401,3.3401,3.3401,3.3401,3.3401,3.3401,3.3401,3.3735,3.4296,3.4296,3.4643,3.5191,3.5191,3.5191,3.5191,3.5191,3.5191,3.5191,3.5191,3.5191,3.5191,0.0,0.0,0.0,0.0,0.0,0.0,0.0,1.7998,0.0,2.0244,0.0,2.3341,0.0,2.5143,2.6009,0.0,0.0,2.6871,0.0,2.7141,2.7112,2.6713,2.6631,2.6087,2.4978,2.4451,0.0,0.0,0.0,0.0,1.9008,1.9474,1.9737,1.9895,0.0,0.0,0.0,2.6748,2.8266,0.0,2.9419,2.9577,2.9631,2.9873,3.0165,3.0455,3.0455,3.027,3.0062,3.035,3.0455,3.0495,3.0726,3.0807,3.0807,3.0807,3.0822,3.0849,3.0849,3.0875,3.0914,3.0914,3.0914,3.0914,3.0914,3.0914,3.0982,3.1224,3.1278,0.0,0.0,0.0,0.0,0.0,0.0,0.0,0.0,0.0,0.0,0.0,0.0,0.0,0.0,0.0,0.0,0.0,0.0,0.0,0.0,0.0,0.0,3.3401,3.3401,0.0,3.3401,0.0,3.3401,3.3401,3.3401,3.3401,3.3401,3.3454,3.3775,3.4296,3.4349,3.467,3.5191,3.5191,3.5191,3.5191,3.5191,3.5191,3.5191,3.5191,3.5191,3.5191,0.0,0.0,0.0,0.0,0.0,0.0,0.0,1.9934,2.0586,2.2178,2.3652,0.0,2.5645,2.651,2.7037,2.7037,2.7141,0.0,0.0,0.0,0.0,2.7186,2.6815,2.6508,2.6272,2.5545,2.4637,0.0,0.0,0.0,0.0,0.0,2.119,2.1069,2.2707,0.0,2.6455,2.7951,0.0,2.9443,2.9726,3.0005,3.0241,3.0283,3.0484,3.0726,3.0726,3.07,3.0648,3.0713,3.0726,3.074,3.0793,3.0807,3.0807,3.0807,3.0969,3.1132,3.1132,3.133,3.154,3.154,3.154,3.154,3.154,3.154,3.1554,3.1607,3.162,3.1634,3.1699,0.0,0.0,0.0,0.0,0.0,0.0,0.0,0.0,0.0,0.0,0.0,0.0,0.0,0.0,0.0,0.0,0.0,0.0,0.0,0.0,0.0,0.0,0.0,0.0,0.0,3.3401,3.3401,3.3401,3.3401,3.3401,3.3694,3.3988,3.4323,3.4589,3.4896,3.5191,3.5191,3.5191,3.5191,3.5191,3.5191,3.5191,3.5191,3.5191,3.5191,0.0,0.0,0.0,0.0,0.0,0.0,0.0,2.2494,0.0,2.3535,2.4879,2.5934,2.6361,2.694,2.7299,2.7299,2.7432,2.7516,0.0,2.766,2.7774,2.7774,2.7556,0.0,2.7077,0.0,2.6023,0.0,0.0,0.0,0.0,0.0,0.0,2.2877,0.0,2.6269,0.0,0.0,0.0,2.9987,3.011,3.035,3.0604,3.0604,3.078,3.1011,3.1011,3.1116,3.1234,3.1062,3.1011,3.1037,3.1208,3.1273,3.1273,3.1273,3.1355,3.145,3.145,3.158,3.1699,3.1699,3.1699,3.1699,3.1699,3.1699,3.1699,3.1699,3.1699,3.1699,3.1699,3.1699,0.0,0.0,0.0,0.0,0.0,0.0,0.0,0.0,0.0,0.0,0.0,0.0,0.0,0.0,0.0,0.0,0.0,0.0,0.0,0.0,0.0,0.0,0.0,0.0,0.0,3.3401,3.3401,3.3401,3.3415,3.376,3.4042,3.4323,3.4642,3.495,3.5191,3.5191,3.5191,3.5191,3.5191,3.5191,3.5191,3.5191,3.5191,3.5191,0.0,1.7993,0.0,0.0,2.1375,0.0,0.0,2.482,2.511,2.4829,2.5908,2.6743,2.6825,2.724,2.7513,2.7569,2.7773,2.7923,2.7966,2.8224,2.8379,2.8379,2.8379,2.8199,2.784,2.7829,2.7411,0.0,0.0,0.0,0.0,0.0,0.0,0.0,0.0,0.0,0.0,0.0,2.9824,3.0402,3.0469,3.0644,3.0889,3.0889,3.1062,3.1304,3.1304,3.1488,3.166,3.1396,3.1304,3.1344,3.162,3.1699,3.1699,3.1699,3.1699,3.1699,3.1699,3.1699,3.1699,3.1699,3.1699,3.1699,3.1699,3.1699,3.1699,3.1699,3.1699,3.1699,3.1699,3.1699,0.0,0.0,0.0,0.0,0.0,0.0,0.0,0.0,0.0,0.0,0.0,0.0,0.0,0.0,0.0,0.0,0.0,0.0,0.0,0.0,0.0,3.3401,3.3401,0.0,3.3401,0.0,3.3401,3.3401,3.3415,3.3763,3.4057,3.4323,3.4709,3.499,3.5191,3.5191,3.5191,3.5191,3.5191,3.5191,3.5191,3.5191,3.5191,3.5191,0.0,0.0,0.0,0.0,0.0,0.0,0.0,2.6185,2.6755,2.6436,2.677,2.7181,2.7552,2.7906,2.8219,2.8457,2.85,2.862,2.8865,2.8906,2.8919,2.8919,2.8919,2.8897,2.8854,2.8854,2.8637,0.0,0.0,0.0,0.0,0.0,0.0,0.0,0.0,0.0,0.0,2.9979,3.0327,3.0415,3.066,3.0929,3.1159,3.1159,3.137,3.1647,3.1647,3.1674,3.1699,3.166,3.1647,3.166,3.1687,3.1699,3.1699,3.1699,3.1699,3.1699,3.1699,3.1699,3.1699,3.1699,3.1699,3.1699,3.1699,3.1699,3.1699,3.1699,3.1699,3.1699,3.1699,3.1699,3.1699,0.0,0.0,0.0,0.0,0.0,0.0,0.0,0.0,0.0,0.0,0.0,0.0,0.0,0.0,0.0,0.0,0.0,0.0,3.3401,0.0,3.3401,3.3401,3.3401,0.0,3.3401,3.3401,3.3401,3.3415,3.381,3.4089,3.4323,3.491,3.519,3.5191,3.5191,3.5191,3.5191,3.5191,3.5191,3.5191,3.5191,3.5191,3.5191,0.0,0.0,0.0,0.0,0.0,0.0,0.0,2.7286,2.7697,2.7992,2.8018,2.8066,2.8222,2.85,2.8714,2.8836,2.885,2.8879,2.8988,2.9001,2.9001,2.9001,2.9001,2.9001,2.9001,2.9001,2.8925,0.0,0.0,0.0,0.0,0.0,0.0,0.0,0.0,2.9519,2.9945,3.0431,3.0726,3.0889,3.0997,3.1211,3.1502,3.1502,3.1582,3.1699,3.1699,3.1808,3.1943,3.1943,3.1822,3.1739,3.1889,3.1943,3.1983,3.2181,3.2246,3.2246,3.2246,3.2246,3.2246,3.2246,3.2246,3.2246,3.2246,3.2246,3.2246,3.2246,3.2246,3.2246,3.2246,3.2246,3.2246,0.0,0.0,0.0,0.0,0.0,0.0,0.0,0.0,0.0,0.0,0.0,0.0,0.0,0.0,0.0,0.0,0.0,0.0,3.3401,0.0,3.3401,3.3401,3.3401,3.3401,3.3401,3.3401,3.3401,3.3415,3.3939,3.4419,3.4844,3.5097,3.5191,3.5191,3.5191,3.5191,3.5191,3.5191,3.5191,3.5191,3.5191,3.5191,3.5191,2.3976,0.0,2.492,0.0,2.6504,2.6938,2.8045,2.8229,2.8402,2.8931,2.8916,2.8831,2.874,2.8879,2.9039,2.9143,2.9143,2.9183,2.9252,2.9266,2.9266,2.9266,2.9266,0.0,2.9266,2.9266,2.9266,2.9266,2.898,0.0,0.0,0.0,0.0,0.0,2.988,3.0166,3.0549,3.0795,3.1024,3.1213,3.1304,3.1488,3.1699,3.1699,3.1741,3.1821,3.1821,3.1996,3.225,3.225,3.2128,3.1993,3.2195,3.225,3.229,3.2527,3.2594,3.2594,3.2594,3.2594,3.2594,3.2594,3.2594,3.2594,3.2594,3.2594,3.2594,3.2594,3.2594,3.2594,3.2594,3.2594,3.2594,0.0,0.0,0.0,0.0,0.0,0.0,0.0,0.0,3.2904,3.3105,0.0,0.0,0.0,0.0,0.0,0.0,0.0,0.0,0.0,0.0,0.0,0.0,3.3401,3.3401,3.3401,3.3401,3.3404,3.3422,3.4085,3.4697,3.5191,3.5191,3.5191,3.5191,3.5191,3.5191,3.5191,3.5191,3.5191,3.5191,3.5191,3.5191,3.5191,2.578,2.6511,2.7308,2.7794,2.8147,2.8507,2.8923,2.8988,2.8988,2.9001,2.9285,2.9366,2.9039,2.8999,2.9119,2.947,2.9497,2.9617,2.9864,2.9889,2.9889,0.0,0.0,2.9889,2.9889,2.9889,2.9889,2.9889,0.0,0.0,2.988,0.0,3.0513,3.0782,3.0782,3.0782,3.0808,3.1077,3.1199,3.1226,3.1555,3.1699,3.1699,3.1699,3.1862,3.2104,3.2104,3.2316,3.2594,3.2594,3.2581,3.2581,3.2581,3.2594,3.2594,3.2594,3.2594,3.2594,3.2594,3.2594,3.2594,3.2594,3.2594,3.2594,3.2594,3.2594,3.2594,3.2594,3.2594,3.2594,3.2594,3.2594,3.2594,3.2594,0.0,0.0,0.0,0.0,0.0,0.0,3.3227,3.3388,3.3388,0.0,0.0,0.0,0.0,0.0,0.0,0.0,0.0,3.3401,3.3401,0.0,3.3401,3.3401,3.3401,3.3401,3.3401,3.341,3.3422,3.4223,3.4832,3.5191,3.5191,3.5191,3.5191,3.5191,3.5191,3.5191,3.5191,3.5191,3.5191,3.5191,3.5191,3.5191,2.7521,2.7814,2.8148,2.8584,2.8739,2.8937,2.929,2.9339,2.9406,2.9584,2.9911,3.0069,2.9976,2.9742,2.9662,0.0,2.9978,3.0148,0.0,3.0419,3.0515,3.0515,3.0515,3.0515,3.0515,3.0515,3.0515,3.0515,0.0,0.0,0.0,3.062,3.0713,3.0807,3.0984,3.1066,3.1091,3.1421,3.1542,3.1542,3.166,3.1808,3.1971,3.1971,3.2169,3.2448,3.2448,3.2635,3.2864,3.2864,3.2998,3.3146,3.3146,3.3024,3.2904,3.3092,3.3146,3.3146,3.3146,3.3146,3.3146,3.3146,3.3146,3.3146,3.3146,3.3146,3.3146,3.3146,3.3146,3.3146,3.3146,3.3146,3.3146,3.3146,0.0,0.0,0.0,0.0,0.0,0.0,3.336,3.3401,0.0,3.3401,0.0,0.0,0.0,0.0,0.0,0.0,0.0,0.0,3.3401,0.0,3.3401,3.3401,3.3401,3.3401,3.3401,3.3541,3.3841,3.4641,3.5081,3.5191,3.5191,3.5191,3.5191,3.5191,3.5191,3.5191,3.5191,3.5191,3.5191,3.5191,3.5191,3.5191,2.8563,2.8732,2.8888,2.914,2.9277,2.945,2.9789,2.9829,2.9925,3.0196,3.0419,3.0551,3.0551,3.0354,0.0,3.0247,3.0432,0.0,3.0551,3.0711,3.0807,3.0807,3.0807,3.0807,3.0807,0.0,0.0,3.0807,3.0807,3.0849,3.0955,3.0955,3.1009,3.1152,3.1316,3.1396,3.1396,3.162,3.1699,3.1712,3.1808,3.1956,3.2118,3.2237,3.2476,3.2742,3.2742,3.2917,3.3159,3.3159,3.3253,3.3401,3.3401,3.3293,3.3173,3.3348,3.3401,3.3401,3.3401,3.3401,3.3401,3.3401,3.3401,3.3401,3.3401,3.3401,3.3401,3.3401,3.3401,3.3401,3.3401,3.3401,3.3401,3.3401,0.0,3.3401,0.0,0.0,0.0,0.0,0.0,0.0,0.0,3.3401,0.0,0.0,0.0,0.0,0.0,0.0,0.0,3.3401,3.3401,0.0,3.3401,3.3401,3.3401,3.3401,3.3553,3.3795,3.4129,3.4867,3.5201,3.5191,3.5191,3.5191,3.5191,3.5191,3.5191,3.5191,3.5191,3.5191,3.5191,3.5191,3.5191,3.5191,2.9055,2.9328,0.0,0.0,2.978,0.0,3.0388,3.044,3.0522,3.0767,3.082,3.0833,3.0833,3.0847,3.0849,3.0849,0.0,0.0,0.0,3.086,3.0849,3.0849,3.0849,0.0,3.0849,3.0849,3.0849,3.0849,3.0849,3.0996,3.1226,3.1226,3.1396,3.1699,3.1699,3.1699,3.1699,3.1714,3.1739,3.1741,3.2011,3.2144,3.221,3.2502,3.2796,3.3038,3.3038,3.3199,3.3401,3.3401,3.3401,3.3401,3.3401,3.3401,3.3401,3.3401,3.3401,3.3401,3.3401,3.3401,3.3401,3.3401,3.3401,3.3401,3.3401,3.3401,3.3401,3.3401,3.3401,3.3401,3.3401,3.3401,3.3401,3.3401,3.3401,3.3401,3.3401,0.0,0.0,0.0,0.0,0.0,0.0,3.3401,3.3401,0.0,0.0,0.0,0.0,0.0,3.3401,3.3401,3.3401,3.3401,3.3401,3.3401,3.3415,3.3441,3.3824,3.4129,3.435,3.4924,3.5191,3.5191,3.5191,3.5191,3.5191,3.5191,3.5191,3.5191,3.5191,3.5191,3.5191,3.5191,3.5191,3.5191,0.0,0.0,3.0188,3.0188,3.0406,3.0608,3.0686,3.0711,3.0726,3.0782,3.0982,3.1117,3.1117,3.1341,3.1487,3.1487,3.1249,3.1117,3.1117,3.133,3.1487,3.1487,3.1487,3.1487,3.1487,3.1487,3.1487,3.1487,3.1487,3.1527,3.1582,3.1582,3.162,3.1699,3.1699,3.1699,3.1701,3.1916,3.2009,3.2024,3.2342,3.2596,3.2797,3.2889,3.3065,3.3307,3.3307,3.336,3.3401,3.3401,3.3401,3.3401,3.3401,3.3401,3.3401,3.3401,3.3401,3.3401,3.3401,3.3401,3.3401,3.3401,3.3401,3.3401,3.3401,3.3401,3.3401,3.3401,3.3401,3.3401,3.3401,3.3401,3.3401,3.3401,3.3401,3.3401,3.3401,3.3401,0.0,0.0,3.3401,3.3401,3.3401,3.3401,3.3401,0.0,0.0,0.0,0.0,0.0,3.3401,3.3401,3.3401,3.3401,3.3401,3.3401,3.3534,3.3787,3.4084,3.4339,3.4539,3.4991,3.5191,3.5191,3.5191,3.5191,3.5191,3.5191,3.5191,3.5191,3.5191,3.5191,3.5191,3.5191,3.5191,3.5191,3.0303,3.0459,3.0578,3.0578,3.07,3.0835,3.0957,3.0984,3.1036,3.1181,3.1341,3.1423,3.1423,3.1582,3.1699,3.1699,3.1528,3.1423,3.1423,3.1607,3.1699,3.1699,3.1699,3.1699,3.1699,3.1699,3.1699,3.1699,3.1699,3.1699,3.1699,3.1699,3.1699,3.1712,3.1834,3.1876,3.1903,3.2209,3.2329,3.2356,3.2662,3.2876,3.2999,3.3146,3.328,3.3401,3.3401,3.3401,3.3401,3.3401,3.3401,3.3401,3.3401,3.3401,3.3401,3.3401,3.3401,3.3401,3.3401,3.3401,3.3401,3.3401,3.3401,3.3401,3.3401,3.3401,3.3401,3.3401,3.3401,3.3401,3.3401,3.3401,3.3401,3.3401,3.3401,3.3401,3.3401,3.3401,0.0,3.3401,3.3401,3.3401,3.3401,3.3401,3.3401,3.3401,0.0,0.0,3.3401,3.3401,3.3401,3.3401,3.3401,3.3401,3.3401,3.3401,3.3574,3.3907,3.4176,3.4443,3.4698,3.5044,3.5191,3.5191,3.5191,3.5191,3.5191,3.5191,3.5191,3.5191,3.5191,3.5191,3.5191,3.5191,3.5191,3.5191,3.0807,3.0822,3.0862,3.0862,3.0889,3.1009,3.1238,3.1278,3.1383,3.166,3.1699,3.1699,3.1699,3.1699,3.1699,3.1699,3.1699,3.1699,3.1699,3.1699,3.1699,3.1699,3.1699,3.1699,3.1699,3.1699,3.1699,3.1699,3.1699,3.1714,3.1754,3.1754,3.1781,3.1846,3.2076,3.2183,3.2197,3.2528,3.2661,3.2688,3.2957,3.3052,3.3079,3.3308,3.3401,3.3401,3.3401,3.3401,3.3401,3.3401,3.3401,3.3401,3.3401,3.3401,3.3401,3.3401,3.3401,3.3401,3.3401,3.3401,3.3401,3.3401,3.3401,3.3401,3.3401,3.3401,3.3401,3.3401,3.3401,3.3401,3.3401,3.3401,3.3401,3.3401,3.3401,3.3401,3.3401,0.0,3.3401,3.3401,3.3401,3.3401,3.3401,3.3401,3.3401,3.3401,3.3401,0.0,0.0,3.3401,3.3401,3.3401,3.3401,3.3401,3.3401,3.3441,3.3641,3.3961,3.4229,3.4549,3.4869,3.5097,3.5191,3.5191,3.5191,3.5191,3.5191,3.5191,3.5191,3.5191,3.5191,3.5191,3.5191,3.5191,3.5191,3.5191,3.0807,3.0984,3.1144,3.1144,3.137,3.1567,3.162,3.162,3.1647,3.1687,3.1699,3.1699,3.1699,3.1699,3.1699,3.1699,3.1699,3.1699,3.1699,3.1699,3.1699,3.1699,3.1699,3.1699,3.1699,3.1699,3.1699,3.1699,3.1699,3.1821,3.205,3.205,3.2195,3.246,3.25,3.2527,3.2541,3.2823,3.2931,3.2957,3.3227,3.3347,3.3334,3.3374,3.3401,3.3401,3.3401,3.3401,3.3401,3.3401,3.3401,3.3401,3.3401,3.3401,3.3401,3.3401,3.3401,3.3401,3.3401,3.3401,3.3401,3.3401,3.3401,3.3401,3.3401,3.3401,3.3401,3.3401,3.3401,3.3401,3.3401,3.3401,3.3401,3.3401,3.3401,3.3401,3.3401,0.0,3.3401,3.3401,3.3401,3.3401,3.3401,3.3401,3.3401,3.3401,3.3401,3.3401,3.3401,3.3401,3.3401,3.3401,3.3401,3.3401,3.3401,3.3681,3.3961,3.4243,3.4562,3.4869,3.515,3.5177,3.5191,3.5191,3.5191,3.5191,3.5191,3.5191,3.5191,3.5191,3.5191,3.5191,3.5191,3.5191,3.5191,3.5191,3.1274,3.1381,3.1463,3.1463,3.1607,3.1699,3.1699,3.1699,3.1699,3.1699,3.1699,3.1699,3.1699,3.1699,3.1754,3.1903,3.1916,3.1995,3.2167,3.1886,3.1699,3.1699,3.1699,3.1767,3.1916,3.1916,3.2008,3.2181,3.2181,3.2247,3.2369,3.2369,3.2448,3.262,3.2742,3.2823,3.2836,3.3105,3.3226,3.3227,3.3348,3.3401,3.3401,3.3401,3.3401,3.3401,3.3401,3.3401,3.3401,3.3401,3.3401,3.3401,3.3401,3.3401,3.3401,3.3401,3.3401,3.3401,3.3401,3.3401,3.3401,3.3401,3.3401,3.3401,3.3401,3.3401,3.3401,3.3401,3.3401,3.3401,3.3401,3.3401,3.3401,3.3401,3.3401,0.0,0.0,3.3401,3.3401,3.3401,3.3401,3.3401,3.3401,3.3401,3.3401,3.3401,3.3401,3.3401,3.3401,3.3401,3.3401,3.3401,3.3401,3.3401,3.3401,3.3721,3.4028,3.4296,3.4642,3.4936,3.5191,3.5191,3.5191,3.5191,3.5191,3.5191,3.5191,3.5191,3.5191,3.5191,3.5191,3.5191,3.5191,3.5191,3.5191,3.5191,3.1699,3.1699,3.1699,3.1699,3.1699,3.1699,3.1699,3.1699,3.1714,3.1781,3.1794,3.1821,3.19,3.1913,3.1981,3.2197,3.2223,3.2329,3.2581,3.2166,3.1913,3.1913,3.1913,3.202,3.221,3.2223,3.2342,3.2594,3.2594,3.2634,3.2701,3.2701,3.2728,3.2796,3.2998,3.3092,3.3105,3.3308,3.3401,3.3401,3.3401,3.3401,3.3401,3.3401,3.3401,3.3401,3.3401,3.3401,3.3401,3.3401,3.3401,3.3401,3.3401,3.3401,3.3401,3.3401,3.3401,3.3401,3.3401,3.3401,3.3401,3.3401,3.3401,3.3401,3.3401,3.3401,3.3401,3.3401,3.3401,3.3401,3.3401,3.3401,3.3401,3.3401,0.0,0.0,0.0,3.3401,3.3401,3.3401,3.3401,3.3401,3.3401,3.3401,3.3401,3.3401,3.3401,3.3401,3.3401,3.3401,3.3401,3.3401,3.3401,3.3441,3.3521,3.3828,3.4135,3.4416,3.4736,3.5003,3.5191,3.5191,3.5191,3.5191,3.5191,3.5191,3.5191,3.5191,3.5191,3.5191,3.5191,3.5191,3.5191,3.5191,3.5191,3.5191,3.1699,3.1699,3.1699,3.1699,3.1699,3.1699,3.1699,3.1699,3.1794,3.205,3.2064,3.2183,3.25,3.2527,3.2541,3.2567,3.2567,3.2567,3.2594,3.2554,3.2527,3.2527,3.2527,3.2541,3.2567,3.2567,3.2579,3.2594,3.2594,3.2728,3.2971,3.2971,3.3105,3.3334,3.3361,3.3361,3.3374,3.3388,3.3401,3.3401,3.3401,3.3401,3.3401,3.3401,3.3401,3.3401,3.3401,3.3401,3.3401,3.3401,3.3401,3.3401,3.3401,3.3401,3.3401,3.3401,3.3401,3.3401,3.3401,3.3401,3.3401,3.3401,3.3401,3.3401,3.3401,3.3401,3.3401,3.3401,3.3401,3.3401,3.3401,3.3401,3.3401,3.3401,0.0,0.0,3.3401,3.3401,3.3401,3.3401,3.3401,3.3401,3.3401,3.3401,3.3401,3.3401,3.3401,3.3401,3.3401,3.3401,3.3401,3.3401,3.3401,3.3547,3.3867,3.4136,3.4442,3.4775,3.5043,3.5177,3.5191,3.5191,3.5191,3.5191,3.5191,3.5191,3.5191,3.5191,3.5191,3.5191,3.5191,3.5191,3.5191,3.5191,3.5191,3.5191,3.1699,3.1699,3.1699,3.1699,3.1848,3.1943,3.1943,3.2115,3.2288,3.2395,3.2408,3.2461,3.2581,3.2594,3.2661,3.2836,3.2849,3.2917,3.3079,3.3092,3.2944,3.2607,3.2594,3.2674,3.2849,3.2849,3.2931,3.3092,3.3092,3.3146,3.324,3.324,3.3307,3.3401,3.3401,3.3401,3.3401,3.3401,3.3401,3.3401,3.3401,3.3401,3.3401,3.3401,3.3401,3.3401,3.3401,3.3401,3.3401,3.3401,3.3401,3.3401,3.3401,3.3401,3.3401,3.3401,3.3401,3.3401,3.3401,3.3401,3.3401,3.3401,3.3401,3.3401,3.3401,3.3401,3.3401,3.3401,3.3401,3.3401,3.3401,3.3401,3.3401,3.3401,0.0,3.3401,3.3401,3.3401,3.3401,3.3401,3.3401,3.3401,3.3401,3.3401,3.3401,3.3401,3.3401,3.3401,3.3401,3.3401,3.3507,3.3694,3.3708,3.3761,3.3894,3.4375,3.4669,3.4802,3.507,3.5191,3.5191,3.5191,3.5191,3.5191,3.5191,3.5191,3.5191,3.5191,3.5191,3.5191,3.5191,3.5191,3.5191,3.5191,3.5191,3.5191,3.1699,3.1767,3.1834,3.1834,3.2063,3.225,3.225,3.2448,3.2621,3.2702,3.2728,3.2768,3.2849,3.2849,3.2931,3.3105,3.3132,3.32,3.3388,3.3401,3.324,3.2876,3.2849,3.2931,3.3119,3.3132,3.3226,3.3401,3.3401,3.3401,3.3401,3.3401,3.3401,3.3401,3.3401,3.3401,3.3401,3.3401,3.3401,3.3401,3.3401,3.3401,3.3401,3.3401,3.3401,3.3401,3.3401,3.3401,3.3401,3.3401,3.3401,3.3401,3.3401,3.3401,3.3401,3.3401,3.3401,3.3401,3.3401,3.3401,3.3401,3.3401,3.3401,3.3401,3.3401,3.3401,3.3401,3.3401,3.3401,3.3401,3.3401,3.3401,3.3401,3.3401,3.3401,3.3401,3.3401,3.3401,3.3401,3.3401,3.3401,3.3401,3.3401,3.3401,3.3401,3.3401,3.3401,3.3401,3.3401,3.3507,3.3654,3.3894,3.4081,3.4175,3.4175,3.4589,3.4843,3.4923,3.511,3.5191,3.5191,3.5191,3.5191,3.5191,3.5191,3.5191,3.5191,3.5191,3.5191,3.5191,3.5191,3.5191,3.5191,3.5191,3.5191,3.5191,3.1712,3.1916,3.2104,3.2104,3.2369,3.2594,3.2594,3.2594,3.2689,3.2971,3.2999,3.3105,3.3361,3.3401,3.3401,3.3401,3.3401,3.3401,3.3401,3.3401,3.3401,3.3401,3.3401,3.3401,3.3401,3.3401,3.3401,3.3401,3.3401,3.3401,3.3401,3.3401,3.3401,3.3401,3.3401,3.3401,3.3401,3.3401,3.3401,3.3401,3.3401,3.3401,3.3401,3.3401,3.3401,3.3401,3.3401,3.3401,3.3401,3.3401,3.3401,3.3401,3.3401,3.3401,3.3401,3.3401,3.3401,3.3401,3.3401,3.3401,3.3401,3.3401,3.3401,3.3401,3.3401,3.3401,3.3401,3.3401,3.3401,3.3401,3.3401,3.3401,3.3401,3.3401,3.3401,3.3401,3.3401,3.3401,3.3401,3.3401,3.3401,3.3401,3.3401,3.3401,3.3401,3.3401,3.3401,3.3401,3.3401,3.3721,3.3907,3.3907,3.4482,3.4802,3.4802,3.4802,3.4936,3.5191,3.5191,3.5191,3.5191,3.5191,3.5191,3.5191,3.5191,3.5191,3.5191,3.5191,3.5191,3.5191,3.5191,3.5191,3.5191,3.5191,3.5191,3.5191,3.2286,3.2407,3.2448,3.2448,3.2689,3.2889,3.2889,3.3039,3.3187,3.3267,3.328,3.332,3.3388,3.3401,3.3401,3.3401,3.3401,3.3401,3.3401,3.3401,3.3401,3.3401,3.3401,3.3401,3.3401,3.3401,3.3401,3.3401,3.3401,3.3401,3.3401,3.3401,3.3401,3.3401,3.3401,3.3401,3.3401,3.3401,3.3401,3.3401,3.3401,3.3401,3.3401,3.3401,3.3401,3.3401,3.3401,3.3401,3.3401,3.3401,3.3401,3.3401,3.3401,3.3401,3.3401,3.3401,3.3401,3.3401,3.3401,3.3401,3.3401,3.3401,3.3401,3.3401,3.3401,3.3401,3.3401,3.3401,3.3401,3.3401,3.3401,3.3401,3.3401,3.3401,3.3401,3.3401,3.3401,3.3401,3.3401,3.3401,3.3401,3.3401,3.3401,3.3401,3.3401,3.3401,3.3401,3.3495,3.3747,3.3854,3.4094,3.4522,3.4709,3.4883,3.5083,3.5083,3.5124,3.5191,3.5191,3.5191,3.5191,3.5191,3.5191,3.5191,3.5191,3.5191,3.5191,3.5191,3.5191,3.5191,3.5191,3.5191,3.5191,3.5191,3.5191,3.5191,3.2554,3.2688,3.2768,3.2768,3.2984,3.3159,3.3159,3.3293,3.3401,3.3401,3.3401,3.3401,3.3401,3.3401,3.3401,3.3401,3.3401,3.3401,3.3401,3.3401,3.3401,3.3401,3.3401,3.3401,3.3401,3.3401,3.3401,3.3401,3.3401,3.3401,3.3401,3.3401,3.3401,3.3401,3.3401,3.3401,3.3401,3.3401,3.3401,3.3401,3.3401,3.3401,3.3401,3.3401,3.3401,3.3401,3.3401,3.3401,3.3401,3.3401,3.3401,3.3401,3.3401,3.3401,3.3401,3.3401,3.3401,3.3401,3.3401,3.3401,3.3401,3.3401,3.3401,3.3401,3.3401,3.3401,3.3401,3.3401,3.3401,3.3401,3.3401,3.3401,3.3401,3.3401,3.3401,3.3401,3.3401,3.3401,3.3401,3.3401,3.3401,3.3401,3.3401,3.3401,3.3401,3.3401,3.3521,3.3694,3.3894,3.4134,3.4428,3.4789,3.4896,3.5043,3.5191,3.5191,3.5191,3.5191,3.5191,3.5191,3.5191,3.5191,3.5191,3.5191,3.5191,3.5191,3.5191,3.5191,3.5191,3.5191,3.5191,3.5191,3.5191,3.5191,3.5191,3.5191,3.2661,3.2876,3.3038,3.3038,3.324,3.3401,3.3401,3.3401,3.3401,3.3401,3.3401,3.3401,3.3401,3.3401,3.3401,3.3401,3.3401,3.3401,3.3401,3.3401,3.3401,3.3401,3.3401,3.3401,3.3401,3.3401,3.3401,3.3401,3.3401,3.3401,3.3401,3.3401,3.3401,3.3401,3.3401,3.3401,3.3401,3.3401,3.3401,3.3401,3.3401,3.3401,3.3401,3.3401,3.3401,3.3401,3.3401,3.3401,3.3401,3.3401,3.3401,3.3401,3.3401,3.3401,3.3401,3.3401,3.3401,3.3401,3.3401,3.3401,3.3401,3.3401,3.3401,3.3401,3.3401,3.3401,3.3401,3.3401,3.3401,3.3401,3.3401,3.3401,3.3401,3.3401,3.3401,3.3401,3.3401,3.3401,3.3401,3.3401,3.3401,3.3401,3.3401,3.3428,3.3441,3.3441,3.3748,3.3947,3.3974,3.4495,3.4816,3.4829,3.507,3.5191,3.5191,3.5191,3.5191,3.5191,3.5191,3.5191,3.5191,3.5191,3.5191,3.5191,3.5191,3.5191,3.5191,3.5191,3.5191,3.5191,3.5191,3.5191,3.5191,3.5191,3.5191,3.5191,3.3199,3.328,3.3308,3.3308,3.3361,3.3401,3.3401,3.3401,3.3401,3.3401,3.3401,3.3401,3.3401,3.3401,3.3401,3.3401,3.3401,3.3401,3.3401,3.3401,3.3401,3.3401,3.3401,3.3401,3.3401,3.3401,3.3401,3.3401,3.3401,3.3401,3.3401,3.3401,3.3401,3.3401,3.3401,3.3401,3.3401,3.3401,3.3401,3.3401,3.3401,3.3401,3.3401,3.3401,3.3401,3.3401,3.3401,3.3401,3.3401,3.3401,3.3401,3.3401,3.3401,3.3401,3.3401,3.3401,3.3401,3.3401,3.3401,3.3401,3.3401,3.3401,3.3401,3.3401,3.3401,3.3401,3.3401,3.3401,3.3401,3.3401,3.3401,3.3401,3.3401,3.3401,3.3401,3.3401,3.3401,3.3401,3.3401,3.3401,3.3401,3.3401,3.3401,3.3641,3.3788,3.3788,3.4042,3.4322,3.4589,3.4735,3.4896,3.511,3.5164,3.5191,3.5191,3.5191,3.5191,3.5191,3.5191,3.5191,3.5191,3.5191,3.5191,3.5191,3.5191,3.5191,3.5191,3.5191,3.5191,3.5191,3.5191,3.5191,3.5191,3.5191,3.5191,3.5191,3.3374,3.3401,3.3401,3.3401,3.3401,3.3401,3.3401,3.3401,3.3401,3.3401,3.3401,3.3401,3.3401,3.3401,3.3401,3.3401,3.3401,3.3401,3.3401,3.3401,3.3401,3.3401,3.3401,3.3401,3.3401,3.3401,3.3401,3.3401,3.3401,3.3401,3.3401,3.3401,3.3401,3.3401,3.3401,3.3401,3.3401,3.3401,3.3401,3.3401,3.3401,3.3401,3.3401,3.3401,3.3401,3.3401,3.3401,3.3401,3.3401,3.3401,3.3401,3.3401,3.3401,3.3401,3.3401,3.3401,3.3401,3.3401,3.3401,3.3401,3.3401,3.3401,3.3401,3.3401,3.3401,3.3401,3.3401,3.3401,3.3401,3.3401,3.3401,3.3401,3.3401,3.3401,3.3401,3.3401,3.3401,3.3401,3.3401,3.3401,3.3401,3.3455,3.3627,3.38,3.3948,3.4082,3.4362,3.4616,3.4789,3.4923,3.5057,3.5204,3.5191,3.5191,3.5191,3.5191,3.5191,3.5191,3.5191,3.5191,3.5191,3.5191,3.5191,3.5191,3.5191,3.5191,3.5191,3.5191,3.5191,3.5191,3.5191,3.5191,3.5191,3.5191,3.5191,3.5191,3.3401,3.3401,3.3401,3.3401,3.3401,3.3401,3.3401,3.3401,3.3401,3.3401,3.3401,3.3401,3.3401,3.3401,3.3401,3.3401,3.3401,3.3401,3.3401,3.3401,3.3401,3.3401,3.3401,3.3401,3.3401,3.3401,3.3401,3.3401,3.3401,3.3401,3.3401,3.3401,3.3401,3.3401,3.3401,3.3401,3.3401,3.3401,3.3401,3.3401,3.3401,3.3401,3.3401,3.3401,3.3401,3.3401,3.3401,3.3401,3.3401,3.3401,3.3401,3.3401,3.3401,3.3401,3.3401,3.3401,3.3401,3.3401,3.3401,3.3401,3.3401,3.3401,3.3401,3.3401,3.3401,3.3401,3.3401,3.3401,3.3401,3.3401,3.3401,3.3401,3.3401,3.3401,3.3401,3.3401,3.3401,3.3401,3.3401,3.3401,3.3441,3.3614,3.3947,3.4014,3.4148,3.4376,3.4683,3.4869,3.4869,3.5083,3.5191,3.5191,3.5191,3.5191,3.5191,3.5191,3.5191,3.5191,3.5191,3.5191,3.5191,3.5191,3.5191,3.5191,3.5191,3.5191,3.5191,3.5191,3.5191,3.5191,3.5191,3.5191,3.5191,3.5191,3.5191,3.5191,3.3401,3.3401,3.3401,3.3401,3.3401,3.3401,3.3401,3.3401,3.3401,3.3401,3.3401,3.3401,3.3401,3.3401,3.3401,3.3401,3.3401,3.3401,3.3401,3.3401,3.3401,3.3401,3.3401,3.3401,3.3401,3.3401,3.3401,3.3401,3.3401,3.3401,3.3401,3.3401,3.3401,3.3401,3.3401,3.3401,3.3401,3.3401,3.3401,3.3401,3.3401,3.3401,3.3401,3.3401,3.3401,3.3401,3.3401,3.3401,3.3401,3.3401,3.3401,3.3401,3.3401,3.3401,3.3401,3.3401,3.3401,3.3401,3.3401,3.3401,3.3401,3.3401,3.3401,3.3401,3.3401,3.3401,3.3401,3.3401,3.3401,3.3401,3.3401,3.3401,3.3401,3.3401,3.3401,3.3401,3.3401,3.3401,3.3401,3.3401,3.3654,3.3935,3.4216,3.4509,3.4682,3.4722,3.499,3.515,3.515,3.5177,3.5191,3.5191,3.5191,3.5191,3.5191,3.5191,3.5191,3.5191,3.5191,3.5191,3.5191,3.5191,3.5191,3.5191,3.5191,3.5191,3.5191,3.5191,3.5191,3.5191,3.5191,3.5191,3.5191,3.5191,3.5191,3.5191,3.3401,3.3401,3.3401,3.3401,3.3401,3.3401,3.3401,3.3401,3.3401,3.3401,3.3401,3.3401,3.3401,3.3401,3.3401,3.3401,3.3401,3.3401,3.3401,3.3401,3.3401,3.3401,3.3401,3.3401,3.3401,3.3401,3.3401,3.3401,3.3401,3.3401,3.3401,3.3401,3.3401,3.3401,3.3401,3.3401,3.3401,3.3401,3.3401,3.3401,3.3401,3.3401,3.3401,3.3401,3.3401,3.3401,3.3401,3.3401,3.3401,3.3401,3.3401,3.3401,3.3401,3.3401,3.3401,3.3401,3.3401,3.3401,3.3401,3.3401,3.3401,3.3401,3.3401,3.3401,3.3401,3.3401,3.3401,3.3401,3.3401,3.3401,3.3401,3.3401,3.3401,3.3401,3.3401,3.3401,3.3401,3.3401,3.3468,3.3654,3.3948,3.4242,3.4549,3.4709,3.4856,3.5003,3.5124,3.5191,3.5191,3.5191,3.5191,3.5191,3.5191,3.5191,3.5191,3.5191,3.5191,3.5191,3.5191,3.5191,3.5191,3.5191,3.5191,3.5191,3.5191,3.5191,3.5191,3.5191,3.5191,3.5191,3.5191,3.5191,3.5191,3.5191,3.5191,3.5191]}]]